
Distance (Route):
Temperature : -49.9°C
Humidity : 1.6%
Pressure : 167.2hPa| Receiver | Frames | First received | Last received |
|---|---|---|---|
| SQ9EZE-13 | 384 | 2026-09-02 23:20:04 | 2026-09-03 01:21:13 |
| SP9KGR-15 | 358 | 2026-09-02 23:19:52 | 2026-09-03 01:21:00 |
| HA6NAB-11 | 163 | 2026-09-02 23:39:05 | 2026-09-03 01:14:02 |
| GYPAP8-17 | 102 | 2026-09-02 23:20:01 | 2026-09-03 01:21:05 |
| SQ9EZE-14 | 84 | 2026-09-02 23:21:02 | 2026-09-03 01:19:26 |
| OE5DRO-10 | 83 | 2026-09-03 00:35:55 | 2026-09-03 01:08:57 |
| OE5DXL-15 | 45 | 2026-09-03 00:42:46 | 2026-09-03 01:06:17 |
| S52SK | 27 | 2026-09-03 00:40:38 | 2026-09-03 01:06:28 |
| PETON7-10 | 26 | 2026-09-03 00:03:01 | 2026-09-03 00:19:06 |
| OE3JTB-15 | 20 | 2026-09-02 23:26:41 | 2026-09-02 23:52:09 |
| OM5KV | 7 | 2026-09-02 23:25:15 | 2026-09-02 23:26:40 |
| LZ4TU-5 | 3 | 2026-09-03 01:06:33 | 2026-09-03 01:07:56 |
| Receiver | Date | Latitude | Longitude | Direction | Speed | Altitude | Climb | Temperature | Humidity | Pressure | Voltage | Killtimer | Uptime | BKT | XDATA |
|---|---|---|---|---|---|---|---|---|---|---|---|---|---|---|---|
| SQ9EZE-13 | 2026-09-03 01:21:13 | 48.93051 | 21.18005 | 96° | 60km/h | 13197m | -14.3m/s | -49.9°C | 1.6% | 167.2hPa | 2.6V | 08:13:00 | 00:00:00 | 00:00:00 | |
| GYPAP8-17 | 2026-09-03 01:21:05 | 48.93068 | 21.17821 | 103° | 58km/h | 13315m | -12.7m/s | -50.0°C | 1.6% | 164.3hPa | 2.6V | 00:00:00 | 00:00:00 | 00:00:00 | |
| SP9KGR-15 | 2026-09-03 01:21:00 | 48.93084 | 21.17713 | 104° | 51km/h | 13383m | -14.8m/s | -50.0°C | 1.6% | 162.7hPa | 2.6V | 08:14:00 | 00:00:00 | 00:00:00 | |
| SQ9EZE-13 | 2026-09-03 01:20:57 | 48.93094 | 21.17651 | 106° | 53km/h | 13430m | -16.4m/s | -50.0°C | 1.6% | 161.7hPa | 2.6V | 08:14:00 | 00:00:00 | 00:00:00 | |
| SP9KGR-15 | 2026-09-03 01:20:45 | 48.93156 | 21.17415 | 110° | 57km/h | 13609m | -14.7m/s | -50.7°C | 1.6% | 157.4hPa | 2.6V | 08:14:00 | 00:00:00 | 00:00:00 | |
| SQ9EZE-13 | 2026-09-03 01:20:42 | 48.93168 | 21.17353 | 103° | 58km/h | 13652m | -13.4m/s | -50.7°C | 1.6% | 156.3hPa | 2.6V | 08:14:00 | 00:00:00 | 00:00:00 | |
| SP9KGR-15 | 2026-09-03 01:20:29 | 48.93208 | 21.17077 | 111° | 55km/h | 13846m | -14.7m/s | -50.9°C | 1.7% | 151.8hPa | 2.6V | 08:14:00 | 00:00:00 | 00:00:00 | |
| SQ9EZE-13 | 2026-09-03 01:20:27 | 48.93216 | 21.17038 | 106° | 51km/h | 13878m | -14.4m/s | -50.9°C | 1.7% | 151.1hPa | 2.6V | 08:14:00 | 00:00:00 | 00:00:00 | |
| GYPAP8-17 | 2026-09-03 01:20:21 | 48.93223 | 21.16929 | 98° | 49km/h | 13992m | -16.6m/s | -50.7°C | 1.7% | 149.1hPa | 2.6V | 00:00:00 | 00:00:00 | 00:00:00 | |
| SP9KGR-15 | 2026-09-03 01:20:13 | 48.93214 | 21.16784 | 100° | 77km/h | 14156m | -2.9m/s | -50.9°C | 1.7% | 146.5hPa | 2.6V | 08:14:00 | 00:00:00 | 00:00:00 | |
| SQ9EZE-13 | 2026-09-03 01:20:11 | 48.93222 | 21.16729 | 110° | 71km/h | 14158m | -9.0m/s | -50.7°C | 1.6% | 145.9hPa | 2.6V | 08:14:00 | 00:00:00 | 00:00:00 | |
| SP9KGR-15 | 2026-09-03 01:19:58 | 48.93223 | 21.16435 | 94° | 66km/h | 14276m | -15.6m/s | -51.5°C | 1.6% | 141.7hPa | 2.6V | 08:14:00 | 00:00:00 | 00:00:00 | |
| SQ9EZE-13 | 2026-09-03 01:19:56 | 48.93223 | 21.16384 | 93° | 64km/h | 14304m | -16.8m/s | -51.7°C | 1.6% | 141.1hPa | 2.6V | 08:14:00 | 00:00:00 | 00:00:00 | |
| SP9KGR-15 | 2026-09-03 01:19:42 | 48.93260 | 21.16007 | 104° | 73km/h | 14521m | -15.3m/s | -52.1°C | 1.6% | 136.6hPa | 2.6V | 08:14:00 | 00:00:00 | 00:00:00 | |
| SQ9EZE-13 | 2026-09-03 01:19:41 | 48.93264 | 21.15979 | 106° | 75km/h | 14536m | -15.4m/s | -52.1°C | 1.6% | 136.3hPa | 2.6V | 08:14:00 | 00:00:00 | 00:00:00 | |
| GYPAP8-17 | 2026-09-03 01:19:37 | 48.93283 | 21.15874 | 110° | 69km/h | 14593m | -15.7m/s | -52.3°C | 1.6% | 135.1hPa | 2.6V | 00:00:00 | 00:00:00 | 00:00:00 | |
| SP9KGR-15 | 2026-09-03 01:19:27 | 48.93358 | 21.15612 | 111° | 66km/h | 14751m | -15.8m/s | -51.7°C | 1.5% | 131.8hPa | 2.6V | 08:14:00 | 00:00:00 | 00:00:00 | |
| SQ9EZE-14 | 2026-09-03 01:19:26 | 48.93358 | 21.15612 | 111° | 66km/h | 14751m | -15.8m/s | -51.7°C | 1.5% | 131.8hPa | 2.6V | 08:14:00 | 00:00:00 | 00:00:00 | |
| SP9KGR-15 | 2026-09-03 01:19:11 | 48.93429 | 21.15284 | 107° | 58km/h | 14977m | -15.2m/s | -51.8°C | 1.5% | 127.4hPa | 2.6V | 08:15:00 | 00:00:00 | 00:00:00 | |
| SQ9EZE-13 | 2026-09-03 01:19:10 | 48.93433 | 21.15262 | 107° | 57km/h | 14993m | -13.4m/s | -51.8°C | 1.5% | 127.1hPa | 2.6V | 08:15:00 | 00:00:00 | 00:00:00 | |
| SP9KGR-15 | 2026-09-03 01:18:55 | 48.93464 | 21.14956 | 98° | 53km/h | 15203m | -17.4m/s | -51.9°C | 1.4% | 122.9hPa | 2.6V | 08:15:00 | 00:00:00 | 00:00:00 | |
| SQ9EZE-13 | 2026-09-03 01:18:54 | 48.93467 | 21.14936 | 100° | 51km/h | 15219m | -17.9m/s | -52.0°C | 1.5% | 122.6hPa | 2.6V | 08:15:00 | 00:00:00 | 00:00:00 | |
| GYPAP8-17 | 2026-09-03 01:18:53 | 48.93469 | 21.14917 | 98° | 53km/h | 15237m | -20.0m/s | -51.9°C | 1.5% | 122.3hPa | 2.6V | 00:00:00 | 00:00:00 | 00:00:00 | |
| SP9KGR-15 | 2026-09-03 01:18:40 | 48.93504 | 21.14628 | 102° | 64km/h | 15437m | -14.9m/s | -52.3°C | 1.5% | 118.3hPa | 2.6V | 08:15:00 | 00:00:00 | 00:00:00 | |
| SQ9EZE-13 | 2026-09-03 01:18:39 | 48.93504 | 21.14608 | 97° | 60km/h | 15456m | -14.3m/s | -52.2°C | 1.5% | 117.9hPa | 2.6V | 08:15:00 | 00:00:00 | 00:00:00 | |
| SP9KGR-15 | 2026-09-03 01:18:25 | 48.93559 | 21.14247 | 109° | 71km/h | 15655m | -14.3m/s | -52.1°C | 1.5% | 114.0hPa | 2.6V | 08:16:00 | 00:00:00 | 00:00:00 | |
| SQ9EZE-13 | 2026-09-03 01:18:23 | 48.93571 | 21.14195 | 114° | 64km/h | 15680m | -13.8m/s | -51.7°C | 1.4% | 113.6hPa | 2.6V | 08:16:00 | 00:00:00 | 00:00:00 | |
| SP9KGR-15 | 2026-09-03 01:18:10 | 48.93640 | 21.13921 | 104° | 42km/h | 15884m | -21.0m/s | -51.4°C | 1.4% | 109.7hPa | 2.6V | 08:16:00 | 00:00:00 | 00:00:00 | |
| GYPAP8-17 | 2026-09-03 01:18:09 | 48.93640 | 21.13921 | 104° | 42km/h | 15884m | -21.0m/s | -51.4°C | 1.4% | 109.7hPa | 2.6V | 00:00:00 | 00:00:00 | 00:00:00 | |
| SQ9EZE-13 | 2026-09-03 01:18:07 | 48.93645 | 21.13890 | 104° | 38km/h | 15928m | -20.1m/s | -51.4°C | 1.4% | 109.1hPa | 2.6V | 08:16:00 | 00:00:00 | 00:00:00 | |
| SP9KGR-15 | 2026-09-03 01:17:54 | 48.93669 | 21.13717 | 103° | 37km/h | 16200m | -16.3m/s | -52.2°C | 1.4% | 105.6hPa | 2.6V | 08:16:00 | 00:00:00 | 00:00:00 | |
| SQ9EZE-13 | 2026-09-03 01:17:51 | 48.93675 | 21.13672 | 91° | 40km/h | 16244m | -16.5m/s | -52.2°C | 1.4% | 104.9hPa | 2.6V | 08:16:00 | 00:00:00 | 00:00:00 | |
| SP9KGR-15 | 2026-09-03 01:17:38 | 48.93691 | 21.13474 | 105° | 37km/h | 16455m | -16.5m/s | -52.8°C | 1.5% | 101.5hPa | 2.6V | 08:17:00 | 00:00:00 | 00:00:00 | |
| SQ9EZE-13 | 2026-09-03 01:17:34 | 48.93701 | 21.13420 | 109° | 38km/h | 16523m | -16.2m/s | -52.8°C | 1.5% | 100.5hPa | 2.6V | 08:17:00 | 00:00:00 | 00:00:00 | |
| GYPAP8-17 | 2026-09-03 01:17:26 | 48.93713 | 21.13303 | 94° | 37km/h | 16663m | -16.0m/s | -53.2°C | 1.5% | 98.3hPa | 2.6V | 00:00:00 | 00:00:00 | 00:00:00 | |
| SP9KGR-15 | 2026-09-03 01:17:22 | 48.93713 | 21.13262 | 93° | 37km/h | 16709m | -16.8m/s | -53.3°C | 1.5% | 97.7hPa | 2.6V | 08:17:00 | 00:00:00 | 00:00:00 | |
| SQ9EZE-13 | 2026-09-03 01:17:18 | 48.93714 | 21.13199 | 93° | 42km/h | 16780m | -17.6m/s | -53.4°C | 1.5% | 96.7hPa | 2.6V | 08:17:00 | 00:00:00 | 00:00:00 | |
| SQ9EZE-14 | 2026-09-03 01:17:11 | 48.93714 | 21.13090 | 86° | 42km/h | 16897m | -15.5m/s | -52.8°C | 1.4% | 95.0hPa | 2.6V | 00:00:00 | 00:00:00 | 00:00:00 | |
| SP9KGR-15 | 2026-09-03 01:17:07 | 48.93711 | 21.13023 | 102° | 44km/h | 16963m | -17.5m/s | -52.5°C | 1.4% | 94.0hPa | 2.6V | 08:17:00 | 00:00:00 | 00:00:00 | |
| SQ9EZE-13 | 2026-09-03 01:17:03 | 48.93719 | 21.12952 | 101° | 49km/h | 17034m | -17.3m/s | -52.3°C | 1.4% | 93.1hPa | 2.6V | 08:17:00 | 00:00:00 | 00:00:00 | |
| SP9KGR-15 | 2026-09-03 01:16:51 | 48.93761 | 21.12747 | 98° | 42km/h | 17219m | -18.6m/s | -52.0°C | 1.4% | 90.2hPa | 2.6V | 08:18:00 | 00:00:00 | 00:00:00 | |
| SQ9EZE-13 | 2026-09-03 01:16:47 | 48.93771 | 21.12686 | 114° | 44km/h | 17287m | -18.5m/s | -52.1°C | 1.4% | 89.3hPa | 2.6V | 08:18:00 | 00:00:00 | 00:00:00 | |
| GYPAP8-17 | 2026-09-03 01:16:41 | 48.93803 | 21.12599 | 124° | 44km/h | 17389m | -15.7m/s | -51.6°C | 1.3% | 88.0hPa | 2.6V | 08:18:00 | 00:00:00 | 00:00:00 | |
| SP9KGR-15 | 2026-09-03 01:16:35 | 48.93835 | 21.12525 | 115° | 35km/h | 17500m | -17.4m/s | -51.4°C | 1.3% | 86.7hPa | 2.6V | 08:18:00 | 00:00:00 | 00:00:00 | |
| SQ9EZE-13 | 2026-09-03 01:16:31 | 48.93845 | 21.12477 | 97° | 37km/h | 17572m | -16.3m/s | -51.6°C | 1.3% | 85.6hPa | 2.6V | 08:18:00 | 00:00:00 | 00:00:00 | |
| SP9KGR-15 | 2026-09-03 01:16:20 | 48.93852 | 21.12356 | 83° | 24km/h | 17759m | -18.1m/s | -51.8°C | 1.3% | 83.1hPa | 2.6V | 08:18:00 | 00:00:00 | 00:00:00 | |
| SQ9EZE-13 | 2026-09-03 01:16:15 | 48.93841 | 21.12314 | 66° | 24km/h | 17847m | -18.2m/s | -51.9°C | 1.3% | 82.1hPa | 2.6V | 08:18:00 | 00:00:00 | 00:00:00 | |
| SP9KGR-15 | 2026-09-03 01:16:05 | 48.93795 | 21.12215 | 59° | 38km/h | 18024m | -17.9m/s | -53.0°C | 1.3% | 80.0hPa | 2.6V | 08:18:00 | 00:00:00 | 00:00:00 | |
| SQ9EZE-13 | 2026-09-03 01:15:59 | 48.93758 | 21.12128 | 62° | 46km/h | 18126m | -14.0m/s | -53.5°C | 1.4% | 78.6hPa | 2.6V | 08:19:00 | 00:00:00 | 00:00:00 | |
| GYPAP8-17 | 2026-09-03 01:15:57 | 48.93747 | 21.12099 | 59° | 46km/h | 18158m | -15.7m/s | -53.4°C | 1.4% | 78.2hPa | 2.6V | 00:00:00 | 00:00:00 | 00:00:00 | |
| SP9KGR-15 | 2026-09-03 01:15:50 | 48.93714 | 21.11997 | 71° | 46km/h | 18280m | -16.5m/s | -53.7°C | 1.4% | 76.8hPa | 2.6V | 08:19:00 | 00:00:00 | 00:00:00 | |
| SQ9EZE-13 | 2026-09-03 01:15:42 | 48.93694 | 21.11864 | 83° | 42km/h | 18400m | -14.2m/s | -53.6°C | 1.4% | 75.2hPa | 2.6V | 08:19:00 | 00:00:00 | 00:00:00 | |
| SP9KGR-15 | 2026-09-03 01:15:34 | 48.93695 | 21.11746 | 97° | 40km/h | 18525m | -16.0m/s | -53.6°C | 1.5% | 73.7hPa | 2.6V | 08:19:00 | 00:00:00 | 00:00:00 | |
| SQ9EZE-13 | 2026-09-03 01:15:27 | 48.93709 | 21.11629 | 107° | 51km/h | 18652m | -16.0m/s | -53.2°C | 1.4% | 72.3hPa | 2.6V | 08:19:00 | 00:00:00 | 00:00:00 | |
| SP9KGR-15 | 2026-09-03 01:15:18 | 48.93743 | 21.11485 | 108° | 38km/h | 18803m | -16.2m/s | -52.9°C | 1.4% | 70.6hPa | 2.6V | 08:19:00 | 00:00:00 | 00:00:00 | |
| GYPAP8-17 | 2026-09-03 01:15:13 | 48.93758 | 21.11420 | 110° | 37km/h | 18880m | -14.7m/s | -52.7°C | 1.3% | 69.7hPa | 2.6V | 00:00:00 | 00:00:00 | 00:00:00 | |
| SQ9EZE-14 | 2026-09-03 01:15:10 | 48.93768 | 21.11382 | 117° | 40km/h | 18927m | -15.0m/s | -52.6°C | 1.3% | 69.2hPa | 2.6V | 00:00:00 | 00:00:00 | 00:00:00 | |
| SP9KGR-15 | 2026-09-03 01:15:04 | 48.93783 | 21.11298 | 95° | 37km/h | 19057m | -15.2m/s | -52.6°C | 1.4% | 67.8hPa | 2.6V | 08:19:00 | 00:00:00 | 00:00:00 | |
| SQ9EZE-14 | 2026-09-03 01:14:55 | 48.93804 | 21.11186 | 109° | 35km/h | 19203m | -19.6m/s | -53.3°C | 1.3% | 66.4hPa | 2.6V | 00:00:00 | 00:00:00 | 00:00:00 | |
| SP9KGR-15 | 2026-09-03 01:14:48 | 48.93822 | 21.11101 | 107° | 29km/h | 19326m | -18.2m/s | -53.3°C | 1.3% | 65.1hPa | 2.6V | 08:19:00 | 00:00:00 | 00:00:00 | |
| SQ9EZE-13 | 2026-09-03 01:14:39 | 48.93847 | 21.11010 | 105° | 20km/h | 19484m | -17.4m/s | -53.6°C | 1.4% | 63.5hPa | 2.6V | 08:19:00 | 00:00:00 | 00:00:00 | |
| GYPAP8-17 | 2026-09-03 01:14:28 | 48.93854 | 21.10906 | 104° | 31km/h | 19689m | -19.6m/s | -53.9°C | 1.4% | 61.6hPa | 2.6V | 00:00:00 | 00:00:00 | 00:00:00 | |
| SP9KGR-15 | 2026-09-03 01:14:24 | 48.93867 | 21.10860 | 114° | 26km/h | 19789m | -16.2m/s | -54.1°C | 1.4% | 60.6hPa | 2.6V | 08:19:00 | 00:00:00 | 00:00:00 | |
| SQ9EZE-13 | 2026-09-03 01:14:23 | 48.93867 | 21.10860 | 114° | 26km/h | 19789m | -16.2m/s | -54.1°C | 1.4% | 60.6hPa | 2.6V | 08:19:00 | 00:00:00 | 00:00:00 | |
| SP9KGR-15 | 2026-09-03 01:14:07 | 48.93896 | 21.10766 | 91° | 18km/h | 20056m | -17.5m/s | -53.9°C | 1.4% | 58.1hPa | 2.6V | 08:20:00 | 00:00:00 | 00:00:00 | |
| HA6NAB-11 | 2026-09-03 01:14:02 | 48.93896 | 21.10727 | 89° | 24km/h | 20152m | -19.4m/s | -54.2°C | 1.4% | 57.3hPa | 2.6V | 00:00:00 | 00:00:00 | 00:00:00 | |
| SP9KGR-15 | 2026-09-03 01:13:52 | 48.93913 | 21.10654 | 140° | 20km/h | 20354m | -18.7m/s | -53.8°C | 1.5% | 55.6hPa | 2.6V | 08:20:00 | 00:00:00 | 00:00:00 | |
| SQ9EZE-13 | 2026-09-03 01:13:51 | 48.93916 | 21.10649 | 131° | 15km/h | 20373m | -17.3m/s | -53.8°C | 1.4% | 55.5hPa | 2.6V | 08:20:00 | 00:00:00 | 00:00:00 | |
| GYPAP8-17 | 2026-09-03 01:13:46 | 48.93922 | 21.10619 | 113° | 15km/h | 20490m | -19.4m/s | -52.9°C | 1.3% | 54.7hPa | 2.6V | 00:00:00 | 00:00:00 | 00:00:00 | |
| SP9KGR-15 | 2026-09-03 01:13:37 | 48.93934 | 21.10579 | 143° | 13km/h | 20640m | -16.8m/s | -52.7°C | 1.3% | 53.3hPa | 2.6V | 08:20:00 | 00:00:00 | 00:00:00 | |
| SQ9EZE-13 | 2026-09-03 01:13:35 | 48.93941 | 21.10573 | 143° | 11km/h | 20670m | -16.5m/s | -52.8°C | 1.3% | 53.0hPa | 2.6V | 08:20:00 | 00:00:00 | 00:00:00 | |
| SP9KGR-15 | 2026-09-03 01:13:22 | 48.93997 | 21.10573 | 199° | 20km/h | 20876m | -19.1m/s | -53.1°C | 1.3% | 51.1hPa | 2.6V | 08:21:00 | 00:00:00 | 00:00:00 | |
| SQ9EZE-13 | 2026-09-03 01:13:19 | 48.93998 | 21.10571 | 183° | 20km/h | 20943m | -15.7m/s | -53.3°C | 1.3% | 50.6hPa | 2.6V | 08:21:00 | 00:00:00 | 00:00:00 | |
| SP9KGR-15 | 2026-09-03 01:13:06 | 48.94042 | 21.10582 | 238° | 7km/h | 21186m | -20.6m/s | -53.3°C | 1.3% | 48.8hPa | 2.6V | 08:21:00 | 00:00:00 | 00:00:00 | |
| SQ9EZE-13 | 2026-09-03 01:13:03 | 48.94051 | 21.10586 | 162° | 11km/h | 21248m | -21.8m/s | -53.3°C | 1.3% | 48.3hPa | 2.6V | 08:21:00 | 00:00:00 | 00:00:00 | |
| GYPAP8-17 | 2026-09-03 01:13:01 | 48.94055 | 21.10584 | 154° | 9km/h | 21290m | -16.9m/s | -53.7°C | 1.4% | 48.0hPa | 2.6V | 00:00:00 | 00:00:00 | 00:00:00 | |
| SQ9EZE-14 | 2026-09-03 01:12:56 | 48.94053 | 21.10560 | 51° | 16km/h | 21395m | -19.0m/s | -53.7°C | 1.4% | 47.2hPa | 2.6V | 00:00:00 | 00:00:00 | 00:00:00 | |
| SP9KGR-15 | 2026-09-03 01:12:50 | 48.94035 | 21.10529 | 61° | 16km/h | 21488m | -22.1m/s | -53.7°C | 1.4% | 46.5hPa | 2.6V | 08:21:00 | 00:00:00 | 00:00:00 | |
| SQ9EZE-13 | 2026-09-03 01:12:47 | 48.94030 | 21.10513 | 66° | 13km/h | 21547m | -17.3m/s | -53.9°C | 1.4% | 46.1hPa | 2.6V | 08:21:00 | 00:00:00 | 00:00:00 | |
| SQ9EZE-14 | 2026-09-03 01:12:39 | 48.94034 | 21.10480 | 139° | 24km/h | 21705m | -19.6m/s | -53.0°C | 1.3% | 45.0hPa | 2.6V | 00:00:00 | 00:00:00 | 00:00:00 | |
| SP9KGR-15 | 2026-09-03 01:12:34 | 48.94055 | 21.10454 | 136° | 15km/h | 21805m | -18.8m/s | -53.6°C | 1.4% | 44.3hPa | 2.6V | 08:22:00 | 00:00:00 | 00:00:00 | |
| SQ9EZE-13 | 2026-09-03 01:12:31 | 48.94067 | 21.10449 | 168° | 15km/h | 21861m | -18.9m/s | -53.8°C | 1.4% | 43.9hPa | 2.6V | 08:22:00 | 00:00:00 | 00:00:00 | |
| SP9KGR-15 | 2026-09-03 01:12:19 | 48.94112 | 21.10458 | 229° | 13km/h | 22096m | -21.4m/s | -53.0°C | 1.3% | 42.3hPa | 2.6V | 08:22:00 | 00:00:00 | 00:00:00 | |
| GYPAP8-17 | 2026-09-03 01:12:16 | 48.94115 | 21.10463 | 242° | 5km/h | 22138m | -20.7m/s | -52.9°C | 1.3% | 42.0hPa | 2.6V | 00:00:00 | 00:00:00 | 00:00:00 | |
| HA6NAB-11 | 2026-09-03 01:12:05 | 48.94098 | 21.10441 | 56° | 18km/h | 22363m | -20.3m/s | -53.5°C | 1.4% | 40.6hPa | 2.6V | 00:00:00 | 00:00:00 | 00:00:00 | |
| SP9KGR-15 | 2026-09-03 01:12:02 | 48.94090 | 21.10423 | 58° | 22km/h | 22426m | -17.6m/s | -52.8°C | 1.3% | 40.2hPa | 2.6V | 08:22:00 | 00:00:00 | 00:00:00 | |
| SQ9EZE-13 | 2026-09-03 01:11:59 | 48.94083 | 21.10406 | 78° | 16km/h | 22472m | -16.7m/s | -52.4°C | 1.3% | 39.9hPa | 2.6V | 08:22:00 | 00:00:00 | 00:00:00 | |
| HA6NAB-11 | 2026-09-03 01:11:58 | 48.94082 | 21.10390 | 91° | 18km/h | 22507m | -19.0m/s | -52.2°C | 1.3% | 39.7hPa | 2.6V | 00:00:00 | 00:00:00 | 00:00:00 | |
| SP9KGR-15 | 2026-09-03 01:11:44 | 48.94084 | 21.10310 | 77° | 5km/h | 22765m | -18.8m/s | -52.6°C | 1.3% | 38.1hPa | 2.6V | 08:23:00 | 00:00:00 | 00:00:00 | |
| SQ9EZE-13 | 2026-09-03 01:11:43 | 48.94084 | 21.10308 | 150° | 9km/h | 22784m | -18.5m/s | -52.6°C | 1.3% | 38.0hPa | 2.6V | 08:23:00 | 00:00:00 | 00:00:00 | |
| GYPAP8-17 | 2026-09-03 01:11:31 | 48.94102 | 21.10285 | 178° | 7km/h | 23026m | -18.1m/s | -52.7°C | 1.3% | 36.6hPa | 2.6V | 00:00:00 | 00:00:00 | 00:00:00 | |
| SQ9EZE-13 | 2026-09-03 01:11:28 | 48.94104 | 21.10286 | 171° | 7km/h | 23098m | -21.0m/s | -52.4°C | 1.3% | 36.2hPa | 2.6V | 08:23:00 | 00:00:00 | 00:00:00 | |
| SP9KGR-15 | 2026-09-03 01:11:12 | 48.94099 | 21.10232 | 137° | 4km/h | 23420m | -24.5m/s | -52.7°C | 1.3% | 34.4hPa | 2.6V | 08:23:00 | 00:00:00 | 00:00:00 | |
| SQ9EZE-13 | 2026-09-03 01:11:11 | 48.94100 | 21.10232 | 214° | 5km/h | 23444m | -21.9m/s | -52.5°C | 1.3% | 34.3hPa | 2.6V | 08:23:00 | 00:00:00 | 00:00:00 | |
| SP9KGR-15 | 2026-09-03 01:10:57 | 48.94092 | 21.10236 | 91° | 9km/h | 23744m | -16.7m/s | -52.2°C | 1.3% | 32.9hPa | 2.6V | 08:23:00 | 00:00:00 | 00:00:00 | |
| SQ9EZE-13 | 2026-09-03 01:10:54 | 48.94092 | 21.10226 | 99° | 11km/h | 23796m | -17.4m/s | -52.2°C | 1.3% | 32.6hPa | 2.6V | 08:24:00 | 00:00:00 | 00:00:00 | |
| SP9KGR-15 | 2026-09-03 01:10:41 | 48.94121 | 21.10172 | 199° | 11km/h | 24027m | -19.8m/s | -51.8°C | 1.2% | 31.4hPa | 2.6V | 08:24:00 | 00:00:00 | 00:00:00 | |
| GYPAP8-17 | 2026-09-03 01:10:40 | 48.94125 | 21.10175 | 192° | 11km/h | 24044m | -19.2m/s | -51.8°C | 1.3% | 31.2hPa | 2.6V | 00:00:00 | 00:00:00 | 00:00:00 | |
| SQ9EZE-13 | 2026-09-03 01:10:39 | 48.94130 | 21.10177 | 211° | 11km/h | 24061m | -21.8m/s | -51.8°C | 1.3% | 31.1hPa | 2.6V | 08:24:00 | 00:00:00 | 00:00:00 | |
| SQ9EZE-14 | 2026-09-03 01:10:38 | 48.94133 | 21.10182 | 235° | 13km/h | 24081m | -23.3m/s | -51.8°C | 1.2% | 31.1hPa | 2.6V | 00:00:00 | 00:00:00 | 00:00:00 | |
| SP9KGR-15 | 2026-09-03 01:10:26 | 48.94118 | 21.10219 | 290° | 11km/h | 24399m | -19.8m/s | -51.9°C | 1.3% | 29.8hPa | 2.6V | 08:24:00 | 00:00:00 | 00:00:00 | |
| SQ9EZE-14 | 2026-09-03 01:10:23 | 48.94098 | 21.10223 | 56° | 7km/h | 24515m | -22.3m/s | -51.8°C | 1.2% | 29.5hPa | 2.6V | 00:00:00 | 00:00:00 | 00:00:00 | |
| SP9KGR-15 | 2026-09-03 01:10:10 | 48.94111 | 21.10171 | 61° | 29km/h | 24692m | -18.0m/s | -51.4°C | 1.2% | 28.4hPa | 2.6V | 08:24:00 | 00:00:00 | 00:00:00 | |
| SQ9EZE-13 | 2026-09-03 01:10:07 | 48.94105 | 21.10143 | 67° | 24km/h | 24748m | -20.2m/s | -51.5°C | 1.2% | 28.2hPa | 2.6V | 08:24:00 | 00:00:00 | 00:00:00 | |
| SP9KGR-15 | 2026-09-03 01:09:55 | 48.94110 | 21.10058 | 223° | 9km/h | 24997m | -18.2m/s | -51.4°C | 1.3% | 27.1hPa | 2.6V | 08:25:00 | 00:00:00 | 00:00:00 | |
| SQ9EZE-13 | 2026-09-03 01:09:51 | 48.94115 | 21.10069 | 253° | 11km/h | 25054m | -18.5m/s | -51.2°C | 1.3% | 26.8hPa | 2.6V | 08:25:00 | 00:00:00 | 00:00:00 | |
| GYPAP8-17 | 2026-09-03 01:09:50 | 48.94116 | 21.10076 | 233° | 7km/h | 25091m | -18.1m/s | -51.2°C | 1.3% | 26.7hPa | 2.6V | 00:00:00 | 00:00:00 | 00:00:00 | |
| SP9KGR-15 | 2026-09-03 01:09:39 | 48.94142 | 21.10080 | 102° | 16km/h | 25288m | -21.7m/s | -50.8°C | 1.2% | 25.8hPa | 2.6V | 08:25:00 | 00:00:00 | 00:00:00 | |
| SQ9EZE-13 | 2026-09-03 01:09:36 | 48.94145 | 21.10056 | 108° | 15km/h | 25376m | -21.9m/s | -50.5°C | 1.2% | 25.5hPa | 2.6V | 08:25:00 | 00:00:00 | 00:00:00 | |
| SP9KGR-15 | 2026-09-03 01:09:23 | 48.94169 | 21.10022 | 139° | 9km/h | 25639m | -24.1m/s | -49.9°C | 1.1% | 24.5hPa | 2.6V | 08:25:00 | 00:00:00 | 00:00:00 | |
| SQ9EZE-13 | 2026-09-03 01:09:19 | 48.94173 | 21.10021 | 174° | 4km/h | 25737m | -21.8m/s | -50.0°C | 1.2% | 24.1hPa | 2.6V | 08:25:00 | 00:00:00 | 00:00:00 | |
| SP9KGR-15 | 2026-09-03 01:09:08 | 48.94167 | 21.10017 | 62° | 13km/h | 25975m | -18.6m/s | -49.3°C | 1.1% | 23.3hPa | 2.6V | 08:25:00 | 00:00:00 | 00:00:00 | |
| SQ9EZE-13 | 2026-09-03 01:09:03 | 48.94167 | 21.09983 | 102° | 24km/h | 26083m | -20.6m/s | -49.3°C | 1.1% | 22.9hPa | 2.6V | 08:25:00 | 00:00:00 | 00:00:00 | |
| OE5DRO-10 | 2026-09-03 01:08:57 | 48.94186 | 21.09940 | 150° | 16km/h | 26239m | -22.5m/s | -48.9°C | 3.6% | 22.3hPa | 2.6V | 08:25:00 | 00:00:00 | 00:00:00 | |
| HA6NAB-11 | 2026-09-03 01:08:54 | 48.94192 | 21.09935 | 162° | 11km/h | 26289m | -24.4m/s | -48.9°C | 1.1% | 22.2hPa | 2.5V | 00:00:00 | 00:00:00 | 00:00:00 | |
| SP9KGR-15 | 2026-09-03 01:08:52 | 48.94198 | 21.09933 | 178° | 11km/h | 26335m | -22.7m/s | -49.2°C | 1.1% | 22.0hPa | 2.5V | 08:25:00 | 00:00:00 | 00:00:00 | |
| HA6NAB-11 | 2026-09-03 01:08:48 | 48.94209 | 21.09927 | 179° | 18km/h | 26420m | -17.7m/s | -49.0°C | 1.1% | 21.7hPa | 2.5V | 00:00:00 | 00:00:00 | 00:00:00 | |
| GYPAP8-17 | 2026-09-03 01:08:46 | 48.94217 | 21.09924 | 167° | 18km/h | 26461m | -20.9m/s | -48.6°C | 1.1% | 21.6hPa | 2.5V | 00:00:00 | 00:00:00 | 00:00:00 | |
| HA6NAB-11 | 2026-09-03 01:08:42 | 48.94236 | 21.09924 | 157° | 15km/h | 26536m | -19.8m/s | -48.6°C | 1.1% | 21.3hPa | 2.5V | 00:00:00 | 00:00:00 | 00:00:00 | |
| OE5DRO-10 | 2026-09-03 01:08:37 | 48.94258 | 21.09923 | 156° | 18km/h | 26687m | -24.5m/s | -48.3°C | 3.6% | 20.8hPa | 2.5V | 00:00:00 | 00:00:00 | 00:00:00 | |
| HA6NAB-11 | 2026-09-03 01:08:36 | 48.94258 | 21.09923 | 156° | 7km/h | 26687m | -24.6m/s | -48.4°C | 1.1% | 20.8hPa | 2.5V | 00:00:00 | 00:00:00 | 00:00:00 | |
| SQ9EZE-13 | 2026-09-03 01:08:31 | 48.94262 | 21.09892 | 91° | 22km/h | 26798m | -22.0m/s | -47.9°C | 1.0% | 20.4hPa | 2.5V | 08:25:00 | 00:00:00 | 00:00:00 | |
| SQ9EZE-14 | 2026-09-03 01:08:22 | 48.94277 | 21.09829 | 158° | 15km/h | 27036m | -31.0m/s | -47.6°C | 1.0% | 19.8hPa | 2.5V | 00:00:00 | 00:00:00 | 00:00:00 | |
| SP9KGR-15 | 2026-09-03 01:08:21 | 48.94281 | 21.09825 | 157° | 20km/h | 27065m | -28.5m/s | 0°C | 0% | 19.7hPa | 2.5V | 00:00:00 | 00:00:00 | 00:00:00 | |
| OE5DRO-10 | 2026-09-03 01:08:18 | 48.94300 | 21.09814 | 185° | 13km/h | 27169m | -25.5m/s | -47.5°C | 3.3% | 19.3hPa | 2.5V | 00:00:00 | 00:00:00 | 00:00:00 | |
| SQ9EZE-13 | 2026-09-03 01:08:16 | 48.94304 | 21.09816 | 181° | 18km/h | 27197m | -25.4m/s | -47.6°C | 1.0% | 19.3hPa | 2.5V | 08:26:00 | 00:00:00 | 00:00:00 | |
| SP9KGR-15 | 2026-09-03 01:08:06 | 48.94307 | 21.09852 | 334° | 16km/h | 27429m | -22.0m/s | 0°C | 0% | 18.6hPa | 2.5V | 00:00:00 | 00:00:00 | 00:00:00 | |
| SQ9EZE-13 | 2026-09-03 01:08:01 | 48.94298 | 21.09852 | 123° | 4km/h | 27550m | -24.3m/s | -47.4°C | 1.0% | 18.3hPa | 2.5V | 08:26:00 | 00:00:00 | 00:00:00 | |
| OE5DRO-10 | 2026-09-03 01:07:59 | 48.94297 | 21.09845 | 108° | 13km/h | 27625m | -24.3m/s | -47.3°C | 3.4% | 18.0hPa | 2.5V | 00:00:00 | 00:00:00 | 00:00:00 | |
| LZ4TU-5 | 2026-09-03 01:07:56 | 48.94298 | 21.09840 | 158° | 9km/h | 27672m | -23.9m/s | 0°C | 0% | 0hPa | 2.6V | 00:00:00 | 00:00:00 | 00:00:00 | |
| LZ4TU-5 | 2026-09-03 01:07:52 | 48.94306 | 21.09837 | 202° | 11km/h | 27773m | -24.7m/s | 0°C | 0% | 0hPa | 2.6V | 00:00:00 | 00:00:00 | 00:00:00 | |
| SP9KGR-15 | 2026-09-03 01:07:51 | 48.94310 | 21.09838 | 196° | 13km/h | 27797m | -24.5m/s | 0°C | 0% | 0hPa | 2.6V | 00:00:00 | 00:00:00 | 00:00:00 | |
| GYPAP8-17 | 2026-09-03 01:07:44 | 48.94319 | 21.09858 | 309° | 11km/h | 27961m | -24.4m/s | -46.8°C | 1.0% | 17.2hPa | 2.6V | 00:00:00 | 00:00:00 | 00:00:00 | |
| SQ9EZE-13 | 2026-09-03 01:07:43 | 48.94317 | 21.09862 | 310° | 16km/h | 27985m | -25.9m/s | -46.8°C | 1.0% | 17.1hPa | 2.6V | 08:26:00 | 00:00:00 | 00:00:00 | |
| SP9KGR-15 | 2026-09-03 01:07:33 | 48.94289 | 21.09858 | 56° | 13km/h | 28247m | -24.8m/s | 0°C | 0% | 0hPa | 2.6V | 00:00:00 | 00:00:00 | 00:00:00 | |
| SQ9EZE-13 | 2026-09-03 01:07:26 | 48.94279 | 21.09810 | 80° | 18km/h | 28407m | -24.0m/s | -46.4°C | 1.0% | 16.1hPa | 2.6V | 08:27:00 | 00:00:00 | 00:00:00 | |
| OE5DRO-10 | 2026-09-03 01:07:25 | 48.94279 | 21.09795 | 91° | 9km/h | 28454m | -23.5m/s | -46.1°C | 3.3% | 15.9hPa | 2.6V | 00:00:00 | 00:00:00 | 00:00:00 | |
| SP9KGR-15 | 2026-09-03 01:07:18 | 48.94297 | 21.09760 | 157° | 18km/h | 28621m | -25.0m/s | 0°C | 0% | 0hPa | 2.6V | 00:00:00 | 00:00:00 | 00:00:00 | |
| SQ9EZE-13 | 2026-09-03 01:07:11 | 48.94306 | 21.09728 | 101° | 13km/h | 28792m | -29.4m/s | -45.7°C | 1.0% | 15.2hPa | 2.6V | 08:27:00 | 00:00:00 | 00:00:00 | |
| OE5DRO-10 | 2026-09-03 01:06:58 | 48.94310 | 21.09709 | 350° | 15km/h | 29165m | -31.3m/s | -44.6°C | 3.2% | 14.3hPa | 2.6V | 00:00:00 | 00:00:00 | 00:00:00 | |
| SQ9EZE-13 | 2026-09-03 01:06:55 | 48.94308 | 21.09710 | 300° | 4km/h | 29226m | -30.7m/s | -44.3°C | 1.0% | 14.2hPa | 2.6V | 08:27:00 | 00:00:00 | 00:00:00 | |
| OE5DRO-10 | 2026-09-03 01:06:39 | 48.94262 | 21.09630 | 63° | 13km/h | 29713m | -34.6m/s | -42.0°C | 2.6% | 13.2hPa | 2.6V | 00:00:00 | 00:00:00 | 00:00:00 | |
| LZ4TU-5 | 2026-09-03 01:06:33 | 48.94259 | 21.09592 | 91° | 16km/h | 29888m | -27.5m/s | 0°C | 0% | 0hPa | 2.6V | 00:00:00 | 00:00:00 | 00:00:00 | |
| S52SK | 2026-09-03 01:06:28 | 48.94260 | 21.09568 | 87° | 9km/h | 29994m | -24.8m/s | 0°C | 0% | 12.7hPa | 2.6V | 00:00:00 | 00:00:00 | 00:00:00 | |
| S52SK | 2026-09-03 01:06:23 | 48.94263 | 21.09556 | 141° | 9km/h | 30126m | -32.2m/s | 0°C | 0% | 12.4hPa | 2.6V | 00:00:00 | 00:00:00 | 00:00:00 | |
| OE5DRO-10 | 2026-09-03 01:06:20 | 48.94276 | 21.09547 | 161° | 13km/h | 30252m | -32.3m/s | -41.8°C | 2.6% | 12.1hPa | 2.6V | 00:00:00 | 00:00:00 | 00:00:00 | |
| OE5DXL-15 | 2026-09-03 01:06:17 | 48.94289 | 21.09551 | 208° | 15km/h | 30351m | -32.8m/s | -41.9°C | 2.6% | 11.9hPa | 2.6V | 00:00:00 | 00:00:00 | 00:00:00 | |
| SQ9EZE-13 | 2026-09-03 01:06:07 | 48.94305 | 21.09562 | 328° | 7km/h | 30609m | -23.8m/s | -41.8°C | 0.8% | 11.5hPa | 2.6V | 00:00:00 | 00:00:00 | 00:00:00 | |
| SQ9EZE-14 | 2026-09-03 01:06:05 | 48.94299 | 21.09561 | 17° | 16km/h | 30667m | -30.2m/s | -41.8°C | 0.8% | 11.4hPa | 2.6V | 08:28:00 | 00:00:00 | 00:00:00 | |
| OE5DRO-10 | 2026-09-03 01:06:01 | 48.94275 | 21.09550 | 32° | 16km/h | 30809m | -27.7m/s | -41.7°C | 2.6% | 11.1hPa | 2.6V | 00:00:00 | 00:00:00 | 00:00:00 | |
| SQ9EZE-13 | 2026-09-03 01:05:51 | 48.94251 | 21.09486 | 70° | 20km/h | 31092m | -32.8m/s | -42.1°C | 0.8% | 10.8hPa | 2.6V | 00:00:00 | 00:00:00 | 00:00:00 | |
| SQ9EZE-14 | 2026-09-03 01:05:50 | 48.94250 | 21.09480 | 59° | 9km/h | 31126m | -33.3m/s | -42.1°C | 0.8% | 10.7hPa | 2.6V | 08:28:00 | 00:00:00 | 00:00:00 | |
| SP9KGR-15 | 2026-09-03 01:05:48 | 48.94247 | 21.09473 | 99° | 9km/h | 31190m | -30.0m/s | 0°C | 0% | 0hPa | 2.6V | 00:00:00 | 00:00:00 | 00:00:00 | |
| OE5DXL-15 | 2026-09-03 01:05:47 | 48.94246 | 21.09467 | 92° | 18km/h | 31245m | -29.3m/s | -42.1°C | 2.8% | 10.4hPa | 2.6V | 00:00:00 | 00:00:00 | 00:00:00 | |
| OE5DRO-10 | 2026-09-03 01:05:42 | 48.94254 | 21.09443 | 136° | 18km/h | 31386m | -30.1m/s | -42.1°C | 2.8% | 10.2hPa | 2.6V | 08:28:00 | 00:00:00 | 00:00:00 | |
| GYPAP8-17 | 2026-09-03 01:05:38 | 48.94258 | 21.09427 | 85° | 16km/h | 31472m | -30.6m/s | -42.1°C | 0.9% | 10.1hPa | 2.5V | 00:00:00 | 00:00:00 | 00:00:00 | |
| SQ9EZE-13 | 2026-09-03 01:05:36 | 48.94255 | 21.09416 | 19° | 4km/h | 31550m | -29.3m/s | -41.8°C | 0.8% | 10.0hPa | 2.5V | 08:29:00 | 00:00:00 | 00:00:00 | |
| SP9KGR-15 | 2026-09-03 01:05:31 | 48.94250 | 21.09412 | 61° | 16km/h | 31656m | -32.8m/s | 0°C | 0% | 0hPa | 2.5V | 00:00:00 | 00:00:00 | 00:00:00 | |
| OE5DRO-10 | 2026-09-03 01:05:23 | 48.94214 | 21.09335 | 56° | 24km/h | 31964m | -32.1m/s | -40.6°C | 2.7% | 9.4hPa | 2.5V | 00:00:00 | 00:00:00 | 00:00:00 | |
| SQ9EZE-13 | 2026-09-03 01:05:19 | 48.94206 | 21.09306 | 94° | 26km/h | 32052m | -29.0m/s | -40.5°C | 0.8% | 9.3hPa | 2.5V | 08:29:00 | 00:00:00 | 00:00:00 | |
| OE5DXL-15 | 2026-09-03 01:05:17 | 48.94211 | 21.09280 | 109° | 16km/h | 32131m | -25.3m/s | -40.1°C | 2.7% | 9.1hPa | 2.5V | 08:29:00 | 02:15:26 | 00:00:00 | |
| SP9KGR-15 | 2026-09-03 01:05:15 | 48.94215 | 21.09263 | 95° | 29km/h | 32194m | -35.2m/s | 0°C | 0% | 0hPa | 2.5V | 00:00:00 | 00:00:00 | 00:00:00 | |
| HA6NAB-11 | 2026-09-03 01:05:12 | 48.94215 | 21.09243 | 85° | 26km/h | 32260m | -33.5m/s | -39.2°C | 0.7% | 9.0hPa | 2.5V | 00:00:00 | 00:00:00 | 00:00:00 | |
| HA6NAB-11 | 2026-09-03 01:05:06 | 48.94206 | 21.09190 | 85° | 20km/h | 32472m | -32.2m/s | -38.6°C | 0.7% | 8.7hPa | 2.5V | 00:00:00 | 00:00:00 | 00:00:00 | |
| S52SK | 2026-09-03 01:04:57 | 48.94204 | 21.09130 | 71° | 16km/h | 32760m | -34.7m/s | 0°C | 0% | 8.4hPa | 2.5V | 00:00:00 | 00:00:00 | 00:00:00 | |
| SQ9EZE-13 | 2026-09-03 01:04:48 | 48.94192 | 21.09112 | 80° | 7km/h | 33046m | -27.5m/s | -38.4°C | 0.7% | 8.0hPa | 2.5V | 00:00:00 | 00:00:00 | 00:00:00 | |
| OE5DXL-15 | 2026-09-03 01:04:47 | 48.94190 | 21.09106 | 33° | 16km/h | 33102m | -29.9m/s | -38.3°C | 2.5% | 7.9hPa | 2.5V | 00:00:00 | 00:00:00 | 00:00:00 | |
| OE5DRO-10 | 2026-09-03 01:04:45 | 48.94184 | 21.09102 | 358° | 20km/h | 33170m | -38.2m/s | -38.2°C | 2.5% | 7.8hPa | 2.5V | 00:00:00 | 00:00:00 | 00:00:00 | |
| GYPAP8-17 | 2026-09-03 01:04:34 | 48.94140 | 21.09071 | 94° | 24km/h | 33502m | -32.1m/s | -36.8°C | 0.7% | 7.5hPa | 2.6V | 00:00:00 | 00:00:00 | 00:00:00 | |
| HA6NAB-11 | 2026-09-03 01:04:33 | 48.94140 | 21.09062 | 100° | 24km/h | 33534m | -33.3m/s | -36.7°C | 0.7% | 7.5hPa | 2.6V | 00:00:00 | 00:00:00 | 00:00:00 | |
| SQ9EZE-13 | 2026-09-03 01:04:32 | 48.94141 | 21.09053 | 100° | 18km/h | 33569m | -37.9m/s | -36.5°C | 0.7% | 7.4hPa | 2.6V | 00:00:00 | 00:00:00 | 00:00:00 | |
| HA6NAB-11 | 2026-09-03 01:04:28 | 48.94140 | 21.09038 | 354° | 9km/h | 33706m | -31.7m/s | -36.0°C | 0.6% | 7.3hPa | 2.6V | 00:00:00 | 00:00:00 | 00:00:00 | |
| OE5DRO-10 | 2026-09-03 01:04:26 | 48.94128 | 21.09047 | 337° | 15km/h | 33808m | -37.1m/s | -35.4°C | 2.1% | 7.1hPa | 2.6V | 00:00:00 | 00:00:00 | 00:00:00 | |
| HA6NAB-11 | 2026-09-03 01:04:23 | 48.94118 | 21.09052 | 3° | 5km/h | 33917m | -35.1m/s | -35.7°C | 0.6% | 7.0hPa | 2.6V | 00:00:00 | 00:00:00 | 00:00:00 | |
| OE5DXL-15 | 2026-09-03 01:04:17 | 48.94121 | 21.09037 | 42° | 26km/h | 34112m | -32.8m/s | -34.8°C | 2.1% | 6.8hPa | 2.6V | 00:00:00 | 00:00:00 | 00:00:00 | |
| HA6NAB-11 | 2026-09-03 01:04:16 | 48.94121 | 21.09037 | 43° | 7km/h | 34112m | -32.9m/s | -34.9°C | 0.6% | 6.8hPa | 2.6V | 00:00:00 | 00:00:00 | 00:00:00 | |
| HA6NAB-11 | 2026-09-03 01:04:10 | 48.94092 | 21.09036 | 23° | 20km/h | 34332m | -39.0m/s | -34.4°C | 0.6% | 6.6hPa | 2.6V | 00:00:00 | 00:00:00 | 00:00:00 | |
| SQ9EZE-13 | 2026-09-03 01:04:09 | 48.94088 | 21.09032 | 44° | 16km/h | 34369m | -35.9m/s | -34.4°C | 0.6% | 6.6hPa | 2.6V | 00:00:00 | 00:00:00 | 00:00:00 | |
| OE5DRO-10 | 2026-09-03 01:04:07 | 48.94087 | 21.09008 | 105° | 29km/h | 34467m | -29.4m/s | -34.4°C | 2.1% | 6.4hPa | 2.6V | 00:00:00 | 00:00:00 | 00:00:00 | |
| OE5DRO-10 | 2026-09-03 01:03:48 | 48.94123 | 21.08910 | 123° | 24km/h | 34873m | 5.5m/s | -31.9°C | 1.7% | 6.0hPa | 2.6V | 00:00:00 | 00:00:00 | 00:00:00 | |
| OE5DXL-15 | 2026-09-03 01:03:47 | 48.94127 | 21.08897 | 104° | 22km/h | 34868m | 6.1m/s | -31.9°C | 1.7% | 6.0hPa | 2.5V | 00:00:00 | 00:00:00 | 00:00:00 | |
| SQ9EZE-14 | 2026-09-03 01:03:45 | 48.94126 | 21.08873 | 70° | 29km/h | 34855m | 6.2m/s | -32.0°C | 0.5% | 6.1hPa | 2.6V | 00:00:00 | 00:00:00 | 00:00:00 | |
| SQ9EZE-13 | 2026-09-03 01:03:37 | 48.94127 | 21.08849 | 167° | 22km/h | 34816m | 5.8m/s | -32.2°C | 0.5% | 6.1hPa | 2.6V | 00:00:00 | 00:00:00 | 00:00:00 | |
| HA6NAB-11 | 2026-09-03 01:03:35 | 48.94139 | 21.08841 | 149° | 29km/h | 34805m | 5.5m/s | -32.2°C | 0.5% | 6.1hPa | 2.6V | 00:00:00 | 00:00:00 | 00:00:00 | |
| GYPAP8-17 | 2026-09-03 01:03:31 | 48.94157 | 21.08805 | 112° | 27km/h | 34785m | 4.9m/s | -32.2°C | 0.5% | 6.2hPa | 2.6V | 00:00:00 | 00:00:00 | 00:00:00 | |
| OE5DRO-10 | 2026-09-03 01:03:29 | 48.94162 | 21.08782 | 107° | 18km/h | 34769m | 5.4m/s | -32.3°C | 1.7% | 6.1hPa | 2.6V | 00:00:00 | 00:00:00 | 00:00:00 | |
| SQ9EZE-14 | 2026-09-03 01:03:28 | 48.94162 | 21.08782 | 108° | 15km/h | 34769m | 5.4m/s | -32.3°C | 0.5% | 6.2hPa | 2.6V | 00:00:00 | 00:00:00 | 00:00:00 | |
| OE5DXL-15 | 2026-09-03 01:03:17 | 48.94171 | 21.08697 | 111° | 20km/h | 34706m | 6.0m/s | -32.8°C | 1.7% | 6.2hPa | 2.6V | 00:00:00 | 00:00:00 | 00:00:00 | |
| OE5DRO-10 | 2026-09-03 01:03:10 | 48.94149 | 21.08683 | 32° | 22km/h | 34670m | 3.9m/s | -33.3°C | 1.8% | 6.2hPa | 2.6V | 00:00:00 | 00:00:00 | 00:00:00 | |
| HA6NAB-11 | 2026-09-03 01:02:53 | 48.94138 | 21.08582 | 49° | 9km/h | 34588m | 5.0m/s | -34.2°C | 0.5% | 6.3hPa | 2.6V | 00:00:00 | 00:00:00 | 00:00:00 | |
| OE5DRO-10 | 2026-09-03 01:02:51 | 48.94139 | 21.08568 | 107° | 24km/h | 34573m | 5.2m/s | -34.3°C | 1.9% | 6.3hPa | 2.6V | 00:00:00 | 00:00:00 | 08:30:00 | |
| HA6NAB-11 | 2026-09-03 01:02:48 | 48.94140 | 21.08552 | 90° | 24km/h | 34562m | 5.4m/s | -34.4°C | 0.6% | 6.4hPa | 2.6V | 00:00:00 | 00:00:00 | 00:00:00 | |
| OE5DXL-15 | 2026-09-03 01:02:47 | 48.94138 | 21.08534 | 66° | 24km/h | 34552m | 4.4m/s | -34.5°C | 1.9% | 6.3hPa | 2.6V | 00:00:00 | 00:00:00 | 00:00:00 | |
| HA6NAB-11 | 2026-09-03 01:02:42 | 48.94123 | 21.08515 | 13° | 11km/h | 34525m | 4.6m/s | -35.0°C | 0.6% | 6.4hPa | 2.6V | 00:00:00 | 00:00:00 | 00:00:00 | |
| HA6NAB-11 | 2026-09-03 01:02:35 | 48.94095 | 21.08482 | 49° | 40km/h | 34494m | 5.4m/s | -35.0°C | 0.6% | 6.4hPa | 2.6V | 00:00:00 | 00:00:00 | 00:00:00 | |
| OE5DRO-10 | 2026-09-03 01:02:32 | 48.94076 | 21.08442 | 63° | 22km/h | 34474m | 5.9m/s | -34.8°C | 2.0% | 6.4hPa | 2.6V | 00:00:00 | 00:00:00 | 00:00:00 | |
| HA6NAB-11 | 2026-09-03 01:02:29 | 48.94073 | 21.08434 | 53° | 7km/h | 34463m | 4.8m/s | -34.9°C | 0.6% | 6.5hPa | 2.6V | 00:00:00 | 00:00:00 | 00:00:00 | |
| GYPAP8-17 | 2026-09-03 01:02:27 | 48.94069 | 21.08431 | 15° | 16km/h | 34454m | 4.1m/s | -34.8°C | 0.6% | 6.5hPa | 2.6V | 00:00:00 | 00:00:00 | 00:00:00 | |
| OE5DXL-15 | 2026-09-03 01:02:17 | 48.94010 | 21.08362 | 314° | 18km/h | 34396m | 4.9m/s | -34.7°C | 1.9% | 6.5hPa | 2.6V | 00:00:00 | 00:00:00 | 00:00:00 | |
| OE5DRO-10 | 2026-09-03 01:02:13 | 48.93994 | 21.08371 | 357° | 18km/h | 34374m | 4.7m/s | -34.7°C | 2.0% | 6.5hPa | 2.5V | 00:00:00 | 00:00:00 | 00:00:00 | |
| OE5DRO-10 | 2026-09-03 01:01:54 | 48.93929 | 21.08318 | 48° | 16km/h | 34277m | 5.5m/s | -34.8°C | 2.0% | 6.6hPa | 2.5V | 00:00:00 | 00:00:00 | 00:00:00 | |
| OE5DXL-15 | 2026-09-03 01:01:47 | 48.93906 | 21.08288 | 96° | 13km/h | 34242m | 5.8m/s | -34.9°C | 2.0% | 6.6hPa | 2.5V | 00:00:00 | 00:00:00 | 00:00:00 | |
| OE5DRO-10 | 2026-09-03 01:01:35 | 48.93884 | 21.08277 | 324° | 11km/h | 34181m | 5.8m/s | -35.1°C | 1.9% | 6.7hPa | 2.5V | 00:00:00 | 00:00:00 | 00:00:00 | |
| SQ9EZE-13 | 2026-09-03 01:01:32 | 48.93888 | 21.08276 | 167° | 13km/h | 34171m | 4.8m/s | -35.1°C | 0.6% | 6.7hPa | 2.5V | 00:00:00 | 00:00:00 | 00:00:00 | |
| SQ9EZE-14 | 2026-09-03 01:01:30 | 48.93894 | 21.08273 | 161° | 9km/h | 34162m | 4.2m/s | -35.2°C | 0.6% | 6.7hPa | 2.5V | 00:00:00 | 00:00:00 | 00:00:00 | |
| S52SK | 2026-09-03 01:01:29 | 48.93896 | 21.08273 | 147° | 2km/h | 34157m | 5.4m/s | 0°C | 0% | 6.8hPa | 2.5V | 00:00:00 | 00:00:00 | 00:00:00 | |
| S52SK | 2026-09-03 01:01:23 | 48.93872 | 21.08285 | 329° | 18km/h | 34125m | 5.3m/s | 0°C | 0% | 6.8hPa | 2.5V | 00:00:00 | 00:00:00 | 00:00:00 | |
| GYPAP8-17 | 2026-09-03 01:01:22 | 48.93869 | 21.08288 | 318° | 13km/h | 34119m | 5.2m/s | -35.8°C | 0.6% | 6.8hPa | 2.5V | 00:00:00 | 00:00:00 | 00:00:00 | |
| OE5DXL-15 | 2026-09-03 01:01:17 | 48.93864 | 21.08297 | 16° | 15km/h | 34088m | 5.1m/s | -36.1°C | 2.0% | 6.8hPa | 2.5V | 00:00:00 | 00:00:00 | 00:00:00 | |
| OE5DRO-10 | 2026-09-03 01:01:16 | 48.93863 | 21.08296 | 30° | 13km/h | 34083m | 4.6m/s | -36.1°C | 2.1% | 6.8hPa | 2.5V | 00:00:00 | 00:00:00 | 00:00:00 | |
| SQ9EZE-13 | 2026-09-03 01:01:11 | 48.93858 | 21.08288 | 32° | 9km/h | 34061m | 4.4m/s | -36.2°C | 0.6% | 6.8hPa | 2.5V | 00:00:00 | 00:00:00 | 00:00:00 | |
| OE5DRO-10 | 2026-09-03 01:00:57 | 48.93817 | 21.08282 | 351° | 18km/h | 33987m | 6.4m/s | -36.2°C | 2.1% | 6.9hPa | 2.5V | 00:00:00 | 00:00:00 | 00:00:00 | |
| SQ9EZE-13 | 2026-09-03 01:00:56 | 48.93817 | 21.08282 | 352° | 35km/h | 33987m | 6.5m/s | -36.3°C | 0.6% | 6.9hPa | 2.5V | 00:00:00 | 00:00:00 | 00:00:00 | |
| OE5DXL-15 | 2026-09-03 01:00:47 | 48.93780 | 21.08298 | 207° | 13km/h | 33936m | 5.0m/s | -36.0°C | 2.0% | 6.9hPa | 2.5V | 00:00:00 | 00:00:00 | 08:30:00 | |
| SQ9EZE-13 | 2026-09-03 01:00:39 | 48.93750 | 21.08317 | 339° | 18km/h | 33898m | 5.1m/s | -36.1°C | 0.6% | 7.0hPa | 2.5V | 00:00:00 | 00:00:00 | 00:00:00 | |
| OE5DRO-10 | 2026-09-03 01:00:37 | 48.93741 | 21.08323 | 331° | 9km/h | 33883m | 4.8m/s | -36.1°C | 2.1% | 7.0hPa | 2.5V | 00:00:00 | 00:00:00 | 00:00:00 | |
| SQ9EZE-13 | 2026-09-03 01:00:23 | 48.93721 | 21.08313 | 358° | 16km/h | 33816m | 6.0m/s | -36.4°C | 0.6% | 7.1hPa | 2.5V | 00:00:00 | 00:00:00 | 00:00:00 | |
| GYPAP8-17 | 2026-09-03 01:00:19 | 48.93706 | 21.08319 | 322° | 4km/h | 33798m | 5.2m/s | -36.5°C | 0.6% | 7.1hPa | 2.5V | 00:00:00 | 00:00:00 | 00:00:00 | |
| OE5DXL-15 | 2026-09-03 01:00:18 | 48.93713 | 21.08314 | 150° | 18km/h | 33781m | 5.0m/s | -36.7°C | 2.1% | 7.1hPa | 2.5V | 00:00:00 | 00:00:00 | 00:00:00 | |
| SQ9EZE-13 | 2026-09-03 01:00:07 | 48.93719 | 21.08288 | 114° | 2km/h | 33737m | 5.4m/s | -37.1°C | 0.6% | 7.2hPa | 2.5V | 00:00:00 | 00:00:00 | 00:00:00 | |
| OE5DRO-10 | 2026-09-03 00:59:59 | 48.93725 | 21.08231 | 81° | 22km/h | 33691m | 4.6m/s | -37.2°C | 2.2% | 7.2hPa | 2.5V | 00:00:00 | 00:00:00 | 08:30:00 | |
| SQ9EZE-13 | 2026-09-03 00:59:52 | 48.93722 | 21.08171 | 61° | 22km/h | 33653m | 5.7m/s | -37.3°C | 0.6% | 7.3hPa | 2.6V | 00:00:00 | 00:00:00 | 00:00:00 | |
| OE5DXL-15 | 2026-09-03 00:59:47 | 48.93708 | 21.08135 | 85° | 18km/h | 33626m | 5.9m/s | -37.3°C | 2.1% | 7.3hPa | 2.6V | 00:00:00 | 00:00:00 | 00:00:00 | |
| OE5DRO-10 | 2026-09-03 00:59:40 | 48.93692 | 21.08086 | 29° | 18km/h | 33588m | 5.0m/s | -37.6°C | 2.2% | 7.3hPa | 2.6V | 00:00:00 | 00:00:00 | 00:00:00 | |
| SQ9EZE-13 | 2026-09-03 00:59:35 | 48.93672 | 21.08069 | 45° | 13km/h | 33566m | 5.6m/s | -37.6°C | 0.7% | 7.4hPa | 2.6V | 00:00:00 | 00:00:00 | 00:00:00 | |
| SQ9EZE-14 | 2026-09-03 00:59:29 | 48.93652 | 21.08053 | 17° | 26km/h | 33534m | 4.9m/s | -37.7°C | 0.6% | 7.4hPa | 2.6V | 00:00:00 | 00:00:00 | 00:00:00 | |
| OE5DRO-10 | 2026-09-03 00:59:21 | 48.93612 | 21.08037 | 353° | 16km/h | 33486m | 5.4m/s | -37.9°C | 2.2% | 7.4hPa | 2.6V | 00:00:00 | 00:00:00 | 00:00:00 | |
| SQ9EZE-13 | 2026-09-03 00:59:20 | 48.93612 | 21.08037 | 354° | 16km/h | 33486m | 5.5m/s | -37.9°C | 0.7% | 7.5hPa | 2.6V | 00:00:00 | 00:00:00 | 00:00:00 | |
| OE5DXL-15 | 2026-09-03 00:59:18 | 48.93599 | 21.08029 | 60° | 18km/h | 33465m | 6.1m/s | -38.0°C | 2.2% | 7.4hPa | 2.6V | 00:00:00 | 00:00:00 | 00:00:00 | |
| S52SK | 2026-09-03 00:59:16 | 48.93599 | 21.08029 | 60° | 16km/h | 33465m | 6.2m/s | 0°C | 0% | 7.5hPa | 2.6V | 00:00:00 | 00:00:00 | 00:00:00 | |
| GYPAP8-17 | 2026-09-03 00:59:15 | 48.93597 | 21.08023 | 70° | 20km/h | 33459m | 5.7m/s | -38.1°C | 0.7% | 7.5hPa | 2.6V | 00:00:00 | 00:00:00 | 00:00:00 | |
| SQ9EZE-14 | 2026-09-03 00:59:13 | 48.93592 | 21.08007 | 62° | 26km/h | 33449m | 5.1m/s | -38.2°C | 0.7% | 7.5hPa | 2.6V | 00:00:00 | 00:00:00 | 00:00:00 | |
| S52SK | 2026-09-03 00:59:11 | 48.93584 | 21.07992 | 40° | 26km/h | 33437m | 5.6m/s | 0°C | 0% | 7.5hPa | 2.6V | 00:00:00 | 00:00:00 | 00:00:00 | |
| HA6NAB-11 | 2026-09-03 00:59:05 | 48.93567 | 21.07976 | 82° | 7km/h | 33400m | 4.3m/s | -38.2°C | 0.6% | 7.5hPa | 2.6V | 00:00:00 | 00:00:00 | 00:00:00 | |
| OE5DRO-10 | 2026-09-03 00:59:02 | 48.93559 | 21.07963 | 34° | 24km/h | 33384m | 6.8m/s | -38.1°C | 2.2% | 7.5hPa | 2.6V | 00:00:00 | 00:00:00 | 00:00:00 | |
| HA6NAB-11 | 2026-09-03 00:58:59 | 48.93540 | 21.07948 | 27° | 29km/h | 33367m | 4.8m/s | -38.3°C | 0.6% | 7.6hPa | 2.5V | 00:00:00 | 00:00:00 | 00:00:00 | |
| SQ9EZE-13 | 2026-09-03 00:58:48 | 48.93506 | 21.07949 | 9° | 31km/h | 33313m | 5.5m/s | -38.9°C | 0.7% | 7.7hPa | 2.5V | 00:00:00 | 00:00:00 | 00:00:00 | |
| OE5DXL-15 | 2026-09-03 00:58:47 | 48.93491 | 21.07940 | 32° | 24km/h | 33301m | 6.8m/s | -38.9°C | 2.3% | 7.6hPa | 2.5V | 00:00:00 | 00:00:00 | 00:00:00 | |
| OE5DRO-10 | 2026-09-03 00:58:43 | 48.93467 | 21.07911 | 24° | 24km/h | 33282m | 4.1m/s | -39.1°C | 2.4% | 7.6hPa | 2.5V | 00:00:00 | 00:00:00 | 00:00:00 | |
| SQ9EZE-13 | 2026-09-03 00:58:33 | 48.93427 | 21.07958 | 52° | 16km/h | 33230m | 6.5m/s | -39.1°C | 0.7% | 7.7hPa | 2.5V | 00:00:00 | 00:00:00 | 00:00:00 | |
| SP9KGR-15 | 2026-09-03 00:58:26 | 48.93401 | 21.07925 | 319° | 20km/h | 33192m | 5.9m/s | -39.1°C | 0.7% | 7.8hPa | 2.5V | 00:00:00 | 00:00:00 | 00:00:00 | |
| OE5DRO-10 | 2026-09-03 00:58:23 | 48.93393 | 21.07950 | 291° | 16km/h | 33168m | 4.7m/s | -39.0°C | 2.4% | 7.8hPa | 2.5V | 00:00:00 | 00:00:00 | 00:00:00 | |
| OE5DXL-15 | 2026-09-03 00:58:17 | 48.93371 | 21.07949 | 27° | 15km/h | 33136m | 4.6m/s | -38.9°C | 2.4% | 7.8hPa | 2.5V | 00:00:00 | 00:00:00 | 00:00:00 | |
| SQ9EZE-13 | 2026-09-03 00:58:13 | 48.93365 | 21.07937 | 155° | 9km/h | 33113m | 5.8m/s | -38.9°C | 0.7% | 7.9hPa | 2.5V | 00:00:00 | 00:00:00 | 00:00:00 | |
| GYPAP8-17 | 2026-09-03 00:58:12 | 48.93365 | 21.07937 | 155° | 9km/h | 33113m | 5.8m/s | -38.9°C | 0.7% | 7.9hPa | 2.5V | 00:00:00 | 00:00:00 | 00:00:00 | |
| SP9KGR-15 | 2026-09-03 00:58:11 | 48.93368 | 21.07936 | 189° | 11km/h | 33108m | 4.5m/s | -38.9°C | 0.7% | 7.9hPa | 2.5V | 00:00:00 | 00:00:00 | 00:00:00 | |
| OE5DRO-10 | 2026-09-03 00:58:04 | 48.93346 | 21.07956 | 21° | 11km/h | 33065m | 5.3m/s | -38.7°C | 2.3% | 7.9hPa | 2.5V | 00:00:00 | 00:00:00 | 00:00:00 | |
| SQ9EZE-13 | 2026-09-03 00:57:56 | 48.93349 | 21.07938 | 326° | 4km/h | 33026m | 5.6m/s | -38.7°C | 0.7% | 8.0hPa | 2.5V | 00:00:00 | 00:00:00 | 00:00:00 | |
| SP9KGR-15 | 2026-09-03 00:57:55 | 48.93347 | 21.07939 | 342° | 9km/h | 33021m | 5.6m/s | -38.6°C | 0.7% | 8.0hPa | 2.5V | 00:00:00 | 00:00:00 | 00:00:00 | |
| OE5DXL-15 | 2026-09-03 00:57:47 | 48.93323 | 21.07921 | 40° | 16km/h | 32967m | 6.5m/s | -38.6°C | 2.3% | 8.0hPa | 2.5V | 00:00:00 | 00:00:00 | 00:00:00 | |
| OE5DRO-10 | 2026-09-03 00:57:45 | 48.93320 | 21.07916 | 49° | 18km/h | 32955m | 5.2m/s | -38.6°C | 2.3% | 8.0hPa | 2.5V | 00:00:00 | 00:00:00 | 00:00:00 | |
| SQ9EZE-13 | 2026-09-03 00:57:40 | 48.93321 | 21.07900 | 104° | 16km/h | 32932m | 5.2m/s | -38.6°C | 0.7% | 8.1hPa | 2.5V | 00:00:00 | 00:00:00 | 00:00:00 | |
| SP9KGR-15 | 2026-09-03 00:57:37 | 48.93318 | 21.07882 | 53° | 18km/h | 32915m | 6.8m/s | -38.6°C | 0.7% | 8.1hPa | 2.5V | 00:00:00 | 00:00:00 | 00:00:00 | |
| SQ9EZE-13 | 2026-09-03 00:57:26 | 48.93303 | 21.07806 | 68° | 7km/h | 32846m | 5.9m/s | -38.4°C | 0.7% | 8.2hPa | 2.5V | 00:00:00 | 00:00:00 | 00:00:00 | |
| OE5DXL-15 | 2026-09-03 00:57:17 | 48.93282 | 21.07762 | 60° | 20km/h | 32793m | 5.8m/s | -38.2°C | 2.3% | 8.2hPa | 2.5V | 00:00:00 | 00:00:00 | 00:00:00 | |
| SQ9EZE-14 | 2026-09-03 00:57:12 | 48.93280 | 21.07734 | 122° | 20km/h | 32770m | 7.0m/s | -38.3°C | 0.7% | 8.3hPa | 2.5V | 00:00:00 | 00:00:00 | 00:00:00 | |
| SQ9EZE-13 | 2026-09-03 00:57:11 | 48.93286 | 21.07724 | 143° | 15km/h | 32758m | 4.6m/s | -38.4°C | 0.7% | 8.3hPa | 2.5V | 00:00:00 | 00:00:00 | 00:00:00 | |
| S52SK | 2026-09-03 00:57:09 | 48.93290 | 21.07720 | 85° | 4km/h | 32747m | 6.8m/s | 0°C | 0% | 8.3hPa | 2.5V | 00:00:00 | 00:00:00 | 00:00:00 | |
| GYPAP8-17 | 2026-09-03 00:57:08 | 48.93290 | 21.07720 | 85° | 4km/h | 32747m | 6.8m/s | -38.4°C | 0.7% | 8.3hPa | 2.5V | 00:00:00 | 00:00:00 | 00:00:00 | |
| OE5DRO-10 | 2026-09-03 00:57:07 | 48.93285 | 21.07717 | 20° | 22km/h | 32735m | 4.9m/s | -38.3°C | 2.3% | 8.3hPa | 2.5V | 00:00:00 | 00:00:00 | 08:30:00 | |
| S52SK | 2026-09-03 00:57:02 | 48.93269 | 21.07691 | 76° | 29km/h | 32711m | 6.3m/s | 0°C | 0% | 8.4hPa | 2.5V | 00:00:00 | 00:00:00 | 00:00:00 | |
| SQ9EZE-14 | 2026-09-03 00:56:56 | 48.93272 | 21.07642 | 122° | 13km/h | 32674m | 5.5m/s | -38.5°C | 0.7% | 8.4hPa | 2.5V | 00:00:00 | 00:00:00 | 00:00:00 | |
| SQ9EZE-13 | 2026-09-03 00:56:55 | 48.93274 | 21.07638 | 117° | 11km/h | 32668m | 6.0m/s | -38.5°C | 0.7% | 8.4hPa | 2.5V | 00:00:00 | 00:00:00 | 00:00:00 | |
| OE5DRO-10 | 2026-09-03 00:56:48 | 48.93249 | 21.07589 | 52° | 29km/h | 32621m | 4.5m/s | -38.5°C | 2.3% | 8.5hPa | 2.5V | 00:00:00 | 00:00:00 | 00:00:00 | |
| OE5DXL-15 | 2026-09-03 00:56:47 | 48.93245 | 21.07580 | 70° | 27km/h | 32616m | 5.3m/s | -38.6°C | 2.3% | 8.4hPa | 2.5V | 00:00:00 | 00:00:00 | 00:00:00 | |
| SQ9EZE-13 | 2026-09-03 00:56:39 | 48.93257 | 21.07518 | 54° | 13km/h | 32574m | 6.6m/s | -38.7°C | 0.7% | 8.5hPa | 2.5V | 00:00:00 | 00:00:00 | 00:00:00 | |
| OE5DRO-10 | 2026-09-03 00:56:29 | 48.93214 | 21.07414 | 107° | 24km/h | 32508m | 5.8m/s | -38.7°C | 2.3% | 8.6hPa | 2.5V | 00:00:00 | 00:00:00 | 00:00:00 | |
| SQ9EZE-13 | 2026-09-03 00:56:22 | 48.93217 | 21.07370 | 73° | 27km/h | 32472m | 5.8m/s | -38.8°C | 0.7% | 8.7hPa | 2.5V | 00:00:00 | 00:00:00 | 00:00:00 | |
| OE5DXL-15 | 2026-09-03 00:56:17 | 48.93195 | 21.07325 | 65° | 24km/h | 32437m | 5.3m/s | -38.7°C | 2.3% | 8.7hPa | 2.5V | 00:00:00 | 00:00:00 | 08:30:00 | |
| OE5DRO-10 | 2026-09-03 00:56:10 | 48.93201 | 21.07256 | 80° | 22km/h | 32395m | 6.3m/s | -38.6°C | 2.2% | 8.7hPa | 2.6V | 00:00:00 | 00:00:00 | 00:00:00 | |
| SQ9EZE-13 | 2026-09-03 00:56:07 | 48.93196 | 21.07243 | 48° | 22km/h | 32383m | 5.7m/s | -38.7°C | 0.7% | 8.8hPa | 2.5V | 00:00:00 | 00:00:00 | 00:00:00 | |
| GYPAP8-17 | 2026-09-03 00:56:03 | 48.93182 | 21.07210 | 76° | 31km/h | 32360m | 6.1m/s | -38.8°C | 0.7% | 8.8hPa | 2.5V | 00:00:00 | 00:00:00 | 00:00:00 | |
| OE5DRO-10 | 2026-09-03 00:55:51 | 48.93179 | 21.07104 | 61° | 26km/h | 32281m | 6.6m/s | -39.4°C | 2.3% | 8.9hPa | 2.5V | 00:00:00 | 00:00:00 | 00:00:00 | |
| OE5DXL-15 | 2026-09-03 00:55:47 | 48.93170 | 21.07067 | 91° | 26km/h | 32259m | 6.9m/s | -39.6°C | 2.3% | 8.9hPa | 2.5V | 00:00:00 | 00:00:00 | 00:00:00 | |
| SQ9EZE-13 | 2026-09-03 00:55:35 | 48.93172 | 21.06968 | 79° | 31km/h | 32193m | 5.8m/s | -40.0°C | 0.7% | 9.0hPa | 2.5V | 00:00:00 | 00:00:00 | 00:00:00 | |
| OE5DRO-10 | 2026-09-03 00:55:32 | 48.93172 | 21.06922 | 100° | 26km/h | 32169m | 6.6m/s | -40.0°C | 2.4% | 9.0hPa | 2.5V | 00:00:00 | 00:00:00 | 00:00:00 | |
| SQ9EZE-13 | 2026-09-03 00:55:19 | 48.93149 | 21.06820 | 53° | 29km/h | 32101m | 5.8m/s | -40.6°C | 0.8% | 9.2hPa | 2.5V | 00:00:00 | 00:00:00 | 00:00:00 | |
| S52SK | 2026-09-03 00:55:17 | 48.93142 | 21.06800 | 71° | 33km/h | 32089m | 5.5m/s | 0°C | 0% | 9.2hPa | 2.5V | 00:00:00 | 00:00:00 | 00:00:00 | |
| OE5DRO-10 | 2026-09-03 00:55:13 | 48.93135 | 21.06751 | 75° | 33km/h | 32059m | 5.6m/s | -40.5°C | 2.5% | 9.2hPa | 2.5V | 00:00:00 | 00:00:00 | 00:00:00 | |
| S52SK | 2026-09-03 00:55:12 | 48.93135 | 21.06751 | 75° | 20km/h | 32059m | 5.6m/s | 0°C | 0% | 9.2hPa | 2.5V | 00:00:00 | 00:00:00 | 00:00:00 | |
| SQ9EZE-13 | 2026-09-03 00:55:03 | 48.93086 | 21.06677 | 41° | 29km/h | 32009m | 4.7m/s | -40.3°C | 0.7% | 9.3hPa | 2.5V | 00:00:00 | 00:00:00 | 00:00:00 | |
| GYPAP8-17 | 2026-09-03 00:54:58 | 48.93072 | 21.06618 | 85° | 40km/h | 31980m | 4.7m/s | -40.4°C | 0.7% | 9.3hPa | 2.5V | 00:00:00 | 00:00:00 | 00:00:00 | |
| SQ9EZE-14 | 2026-09-03 00:54:57 | 48.93071 | 21.06603 | 83° | 38km/h | 31975m | 4.7m/s | -40.4°C | 0.7% | 9.3hPa | 2.5V | 00:00:00 | 00:00:00 | 00:00:00 | |
| OE5DRO-10 | 2026-09-03 00:54:54 | 48.93057 | 21.06562 | 36° | 37km/h | 31952m | 5.3m/s | -40.6°C | 2.5% | 9.3hPa | 2.5V | 00:00:00 | 00:00:00 | 00:00:00 | |
| SQ9EZE-13 | 2026-09-03 00:54:48 | 48.93011 | 21.06499 | 60° | 40km/h | 31919m | 5.9m/s | -40.8°C | 0.8% | 9.4hPa | 2.5V | 00:00:00 | 00:00:00 | 00:00:00 | |
| OE5DXL-15 | 2026-09-03 00:54:47 | 48.93006 | 21.06486 | 68° | 27km/h | 31913m | 6.3m/s | -40.8°C | 2.5% | 9.4hPa | 2.5V | 00:00:00 | 00:00:00 | 00:00:00 | |
| SQ9EZE-14 | 2026-09-03 00:54:41 | 48.92994 | 21.06425 | 65° | 38km/h | 31885m | 6.3m/s | -41.0°C | 0.8% | 9.5hPa | 2.6V | 00:00:00 | 00:00:00 | 00:00:00 | |
| OE5DRO-10 | 2026-09-03 00:54:35 | 48.92951 | 21.06366 | 38° | 24km/h | 31846m | 4.7m/s | -40.9°C | 2.6% | 9.5hPa | 2.6V | 00:00:00 | 00:00:00 | 00:00:00 | |
| SQ9EZE-13 | 2026-09-03 00:54:31 | 48.92947 | 21.06347 | 79° | 27km/h | 31832m | 5.5m/s | -40.9°C | 0.7% | 9.5hPa | 2.6V | 00:00:00 | 00:00:00 | 00:00:00 | |
| OE5DXL-15 | 2026-09-03 00:54:17 | 48.92891 | 21.06234 | 24° | 15km/h | 31754m | 5.3m/s | -41.1°C | 2.5% | 9.6hPa | 2.6V | 00:00:00 | 00:00:00 | 00:00:00 | |
| OE5DRO-10 | 2026-09-03 00:54:16 | 48.92885 | 21.06230 | 15° | 16km/h | 31749m | 5.1m/s | -41.1°C | 2.6% | 9.6hPa | 2.6V | 00:00:00 | 00:00:00 | 08:30:00 | |
| SQ9EZE-13 | 2026-09-03 00:54:15 | 48.92885 | 21.06230 | 16° | 24km/h | 31749m | 5.1m/s | -41.2°C | 0.8% | 9.7hPa | 2.5V | 00:00:00 | 00:00:00 | 00:00:00 | |
| SQ9EZE-13 | 2026-09-03 00:54:00 | 48.92844 | 21.06185 | 96° | 15km/h | 31664m | 5.2m/s | -41.3°C | 0.8% | 9.8hPa | 2.5V | 00:00:00 | 00:00:00 | 00:00:00 | |
| OE5DRO-10 | 2026-09-03 00:53:57 | 48.92840 | 21.06166 | 59° | 16km/h | 31648m | 5.4m/s | -41.2°C | 2.5% | 9.7hPa | 2.5V | 00:00:00 | 00:00:00 | 00:00:00 | |
| OE5DXL-15 | 2026-09-03 00:53:47 | 48.92828 | 21.06123 | 73° | 13km/h | 31596m | 4.7m/s | -41.4°C | 2.6% | 9.9hPa | 2.5V | 00:00:00 | 00:00:00 | 00:00:00 | |
| SQ9EZE-13 | 2026-09-03 00:53:43 | 48.92820 | 21.06108 | 24° | 11km/h | 31581m | 5.6m/s | -41.6°C | 0.8% | 9.9hPa | 2.5V | 00:00:00 | 00:00:00 | 00:00:00 | |
| OE5DRO-10 | 2026-09-03 00:53:38 | 48.92821 | 21.06099 | 107° | 15km/h | 31549m | 5.6m/s | -41.6°C | 2.6% | 9.9hPa | 2.5V | 00:00:00 | 00:00:00 | 00:00:00 | |
| SQ9EZE-13 | 2026-09-03 00:53:29 | 48.92817 | 21.06069 | 169° | 13km/h | 31503m | 5.1m/s | -41.9°C | 0.8% | 10.0hPa | 2.5V | 00:00:00 | 00:00:00 | 00:00:00 | |
| S52SK | 2026-09-03 00:53:27 | 48.92820 | 21.06067 | 150° | 15km/h | 31498m | 4.9m/s | 0°C | 0% | 10.0hPa | 2.5V | 00:00:00 | 00:00:00 | 00:00:00 | |
| HA6NAB-11 | 2026-09-03 00:53:26 | 48.92825 | 21.06058 | 100° | 18km/h | 31488m | 5.2m/s | -41.9°C | 0.8% | 10.1hPa | 2.5V | 00:00:00 | 00:00:00 | 00:00:00 | |
| S52SK | 2026-09-03 00:53:21 | 48.92818 | 21.06032 | 50° | 15km/h | 31468m | 4.9m/s | 0°C | 0% | 10.1hPa | 2.5V | 00:00:00 | 00:00:00 | 00:00:00 | |
| OE5DXL-15 | 2026-09-03 00:53:17 | 48.92820 | 21.06013 | 124° | 15km/h | 31442m | 5.3m/s | -42.0°C | 2.7% | 10.1hPa | 2.5V | 00:00:00 | 00:00:00 | 00:00:00 | |
| HA6NAB-11 | 2026-09-03 00:53:16 | 48.92820 | 21.06013 | 124° | 18km/h | 31442m | 5.3m/s | -42.0°C | 0.8% | 10.1hPa | 2.6V | 00:00:00 | 00:00:00 | 00:00:00 | |
| SQ9EZE-13 | 2026-09-03 00:53:12 | 48.92824 | 21.05988 | 76° | 13km/h | 31421m | 5.5m/s | -42.0°C | 0.8% | 10.1hPa | 2.6V | 00:00:00 | 00:00:00 | 00:00:00 | |
| HA6NAB-11 | 2026-09-03 00:53:10 | 48.92821 | 21.05980 | 66° | 7km/h | 31410m | 5.3m/s | -42.0°C | 0.8% | 10.2hPa | 2.6V | 00:00:00 | 00:00:00 | 00:00:00 | |
| HA6NAB-11 | 2026-09-03 00:53:04 | 48.92819 | 21.05945 | 79° | 26km/h | 31379m | 4.9m/s | -42.1°C | 0.8% | 10.2hPa | 2.6V | 00:00:00 | 00:00:00 | 00:00:00 | |
| HA6NAB-11 | 2026-09-03 00:52:59 | 48.92814 | 21.05923 | 183° | 5km/h | 31353m | 5.3m/s | -42.1°C | 0.8% | 10.2hPa | 2.6V | 00:00:00 | 00:00:00 | 00:00:00 | |
| OE5DRO-10 | 2026-09-03 00:52:55 | 48.92825 | 21.05908 | 85° | 16km/h | 31327m | 5.9m/s | -42.0°C | 2.7% | 10.3hPa | 2.6V | 00:00:00 | 00:00:00 | 00:00:00 | |
| HA6NAB-11 | 2026-09-03 00:52:54 | 48.92823 | 21.05901 | 69° | 20km/h | 31321m | 5.7m/s | -42.1°C | 0.8% | 10.3hPa | 2.6V | 00:00:00 | 00:00:00 | 00:00:00 | |
| OE5DXL-15 | 2026-09-03 00:52:47 | 48.92813 | 21.05878 | 138° | 18km/h | 31284m | 5.2m/s | -41.9°C | 2.7% | 10.3hPa | 2.6V | 00:00:00 | 00:00:00 | 00:00:00 | |
| HA6NAB-11 | 2026-09-03 00:52:42 | 48.92812 | 21.05859 | 52° | 18km/h | 31264m | 5.1m/s | -42.0°C | 0.8% | 10.4hPa | 2.6V | 00:00:00 | 00:00:00 | 00:00:00 | |
| SQ9EZE-13 | 2026-09-03 00:52:41 | 48.92805 | 21.05851 | 31° | 18km/h | 31253m | 5.1m/s | -42.0°C | 0.8% | 10.4hPa | 2.6V | 00:00:00 | 00:00:00 | 00:00:00 | |
| HA6NAB-11 | 2026-09-03 00:52:34 | 48.92795 | 21.05813 | 80° | 20km/h | 31215m | 5.3m/s | -42.1°C | 0.8% | 10.5hPa | 2.6V | 00:00:00 | 00:00:00 | 00:00:00 | |
| HA6NAB-11 | 2026-09-03 00:52:28 | 48.92787 | 21.05790 | 65° | 5km/h | 31189m | 4.7m/s | -42.1°C | 0.8% | 10.5hPa | 2.6V | 00:00:00 | 00:00:00 | 00:00:00 | |
| SQ9EZE-13 | 2026-09-03 00:52:24 | 48.92784 | 21.05754 | 72° | 35km/h | 31163m | 5.3m/s | -42.1°C | 0.8% | 10.5hPa | 2.6V | 00:00:00 | 00:00:00 | 00:00:00 | |
| HA6NAB-11 | 2026-09-03 00:52:22 | 48.92781 | 21.05742 | 63° | 37km/h | 31158m | 4.9m/s | -42.1°C | 0.8% | 10.6hPa | 2.6V | 00:00:00 | 00:00:00 | 00:00:00 | |
| OE5DXL-15 | 2026-09-03 00:52:17 | 48.92759 | 21.05705 | 82° | 20km/h | 31123m | 5.5m/s | -42.1°C | 2.7% | 10.6hPa | 2.6V | 00:00:00 | 00:00:00 | 00:00:00 | |
| OE5DRO-10 | 2026-09-03 00:52:15 | 48.92760 | 21.05697 | 92° | 22km/h | 31112m | 5.9m/s | -42.1°C | 2.7% | 10.6hPa | 2.6V | 00:00:00 | 00:00:00 | 00:00:00 | |
| SQ9EZE-14 | 2026-09-03 00:52:12 | 48.92758 | 21.05678 | 78° | 31km/h | 31100m | 5.9m/s | -42.1°C | 0.8% | 10.6hPa | 2.6V | 00:00:00 | 00:00:00 | 00:00:00 | |
| SQ9EZE-13 | 2026-09-03 00:52:08 | 48.92739 | 21.05623 | 48° | 22km/h | 31075m | 6.2m/s | -42.1°C | 0.8% | 10.7hPa | 2.6V | 00:00:00 | 00:00:00 | 00:00:00 | |
| SP9KGR-15 | 2026-09-03 00:52:07 | 48.92739 | 21.05623 | 48° | 22km/h | 31075m | 6.2m/s | -42.1°C | 0.8% | 10.7hPa | 2.6V | 00:00:00 | 00:00:00 | 00:00:00 | |
| SP9KGR-15 | 2026-09-03 00:51:52 | 48.92692 | 21.05557 | 56° | 20km/h | 30985m | 6.5m/s | -41.9°C | 0.8% | 10.8hPa | 2.6V | 00:00:00 | 00:00:00 | 00:00:00 | |
| SQ9EZE-13 | 2026-09-03 00:51:51 | 48.92692 | 21.05557 | 56° | 20km/h | 30985m | 6.5m/s | -41.9°C | 0.8% | 10.8hPa | 2.6V | 00:00:00 | 00:00:00 | 00:00:00 | |
| OE5DXL-15 | 2026-09-03 00:51:47 | 48.92675 | 21.05530 | 16° | 18km/h | 30957m | 6.2m/s | -41.8°C | 2.7% | 10.8hPa | 2.6V | 00:00:00 | 00:00:00 | 08:30:00 | |
| SP9KGR-15 | 2026-09-03 00:51:35 | 48.92631 | 21.05497 | 59° | 11km/h | 30896m | 4.9m/s | -41.5°C | 0.8% | 11.0hPa | 2.6V | 00:00:00 | 00:00:00 | 00:00:00 | |
| SQ9EZE-13 | 2026-09-03 00:51:19 | 48.92563 | 21.05451 | 37° | 16km/h | 30804m | 6.7m/s | -41.4°C | 0.8% | 11.1hPa | 2.6V | 00:00:00 | 00:00:00 | 00:00:00 | |
| SP9KGR-15 | 2026-09-03 00:51:18 | 48.92560 | 21.05448 | 32° | 15km/h | 30798m | 6.1m/s | -41.5°C | 0.8% | 11.1hPa | 2.6V | 00:00:00 | 00:00:00 | 00:00:00 | |
| OE5DXL-15 | 2026-09-03 00:51:17 | 48.92555 | 21.05444 | 20° | 13km/h | 30787m | 4.7m/s | -41.5°C | 2.6% | 11.1hPa | 2.6V | 00:00:00 | 00:00:00 | 00:00:00 | |
| S52SK | 2026-09-03 00:51:16 | 48.92554 | 21.05444 | 21° | 11km/h | 30787m | 4.8m/s | 0°C | 0% | 11.2hPa | 2.6V | 00:00:00 | 00:00:00 | 00:00:00 | |
| S52SK | 2026-09-03 00:51:11 | 48.92531 | 21.05440 | 335° | 13km/h | 30753m | 6.7m/s | 0°C | 0% | 11.2hPa | 2.6V | 00:00:00 | 00:00:00 | 00:00:00 | |
| SQ9EZE-13 | 2026-09-03 00:51:03 | 48.92529 | 21.05429 | 102° | 18km/h | 30713m | 5.3m/s | -41.5°C | 0.8% | 11.3hPa | 2.6V | 00:00:00 | 00:00:00 | 00:00:00 | |
| SP9KGR-15 | 2026-09-03 00:51:02 | 48.92530 | 21.05422 | 107° | 16km/h | 30707m | 5.6m/s | -41.5°C | 0.8% | 11.3hPa | 2.6V | 00:00:00 | 00:00:00 | 00:00:00 | |
| OE5DXL-15 | 2026-09-03 00:50:47 | 48.92519 | 21.05416 | 96° | 13km/h | 30616m | 4.7m/s | -41.5°C | 2.6% | 11.4hPa | 2.6V | 00:00:00 | 00:00:00 | 00:00:00 | |
| SP9KGR-15 | 2026-09-03 00:50:44 | 48.92517 | 21.05405 | 347° | 5km/h | 30601m | 6.5m/s | -41.5°C | 0.8% | 11.5hPa | 2.6V | 00:00:00 | 00:00:00 | 00:00:00 | |
| SQ9EZE-13 | 2026-09-03 00:50:31 | 48.92508 | 21.05426 | 176° | 16km/h | 30531m | 5.6m/s | -41.6°C | 0.8% | 11.6hPa | 2.6V | 00:00:00 | 00:00:00 | 00:00:00 | |
| SP9KGR-15 | 2026-09-03 00:50:28 | 48.92519 | 21.05423 | 155° | 11km/h | 30514m | 6.3m/s | -41.6°C | 0.8% | 11.6hPa | 2.6V | 00:00:00 | 00:00:00 | 00:00:00 | |
| GYPAP8-17 | 2026-09-03 00:50:24 | 48.92532 | 21.05418 | 192° | 18km/h | 30485m | 6.1m/s | -41.7°C | 0.8% | 11.7hPa | 2.6V | 00:00:00 | 00:00:00 | 00:00:00 | |
| OE5DXL-15 | 2026-09-03 00:50:16 | 48.92562 | 21.05427 | 194° | 20km/h | 30439m | 6.6m/s | -41.8°C | 2.6% | 11.7hPa | 2.6V | 00:00:00 | 00:00:00 | 00:00:00 | |
| SQ9EZE-13 | 2026-09-03 00:50:15 | 48.92562 | 21.05427 | 195° | 15km/h | 30439m | 6.7m/s | -41.9°C | 0.8% | 11.7hPa | 2.5V | 00:00:00 | 00:00:00 | 00:00:00 | |
| OE5DRO-10 | 2026-09-03 00:50:13 | 48.92576 | 21.05432 | 185° | 20km/h | 30422m | 5.0m/s | -41.9°C | 2.6% | 11.7hPa | 2.5V | 00:00:00 | 00:00:00 | 00:00:00 | |
| SP9KGR-15 | 2026-09-03 00:50:12 | 48.92576 | 21.05432 | 186° | 22km/h | 30422m | 5.0m/s | -41.9°C | 0.8% | 11.8hPa | 2.6V | 00:00:00 | 00:00:00 | 00:00:00 | |
| SQ9EZE-13 | 2026-09-03 00:50:00 | 48.92640 | 21.05402 | 143° | 20km/h | 30353m | 5.0m/s | -42.1°C | 0.8% | 11.9hPa | 2.6V | 00:00:00 | 00:00:00 | 00:00:00 | |
| SQ9EZE-14 | 2026-09-03 00:49:58 | 48.92652 | 21.05393 | 175° | 18km/h | 30335m | 5.9m/s | -42.1°C | 0.8% | 11.9hPa | 2.6V | 00:00:00 | 00:00:00 | 00:00:00 | |
| OE5DRO-10 | 2026-09-03 00:49:51 | 48.92678 | 21.05375 | 139° | 16km/h | 30295m | 5.9m/s | -42.0°C | 2.7% | 12.0hPa | 2.6V | 00:00:00 | 00:00:00 | 00:00:00 | |
| OE5DXL-15 | 2026-09-03 00:49:46 | 48.92700 | 21.05352 | 135° | 15km/h | 30266m | 6.3m/s | -41.9°C | 2.7% | 12.0hPa | 2.6V | 00:00:00 | 00:00:00 | 00:00:00 | |
| SQ9EZE-13 | 2026-09-03 00:49:44 | 48.92702 | 21.05349 | 123° | 11km/h | 30260m | 5.9m/s | -41.9°C | 0.8% | 12.1hPa | 2.6V | 00:00:00 | 00:00:00 | 00:00:00 | |
| OE5DRO-10 | 2026-09-03 00:49:32 | 48.92732 | 21.05312 | 109° | 15km/h | 30186m | 6.3m/s | -41.8°C | 2.6% | 12.2hPa | 2.6V | 00:00:00 | 00:00:00 | 00:00:00 | |
| SQ9EZE-13 | 2026-09-03 00:49:28 | 48.92738 | 21.05304 | 154° | 13km/h | 30168m | 5.3m/s | -41.8°C | 0.8% | 12.2hPa | 2.6V | 00:00:00 | 00:00:00 | 00:00:00 | |
| GYPAP8-17 | 2026-09-03 00:49:22 | 48.92752 | 21.05281 | 141° | 16km/h | 30132m | 6.1m/s | -41.7°C | 0.8% | 12.3hPa | 2.6V | 00:00:00 | 00:00:00 | 00:00:00 | |
| OE5DXL-15 | 2026-09-03 00:49:16 | 48.92764 | 21.05240 | 101° | 16km/h | 30092m | 6.1m/s | 0°C | 0% | 0hPa | 2.6V | 00:00:00 | 00:00:00 | 00:00:00 | |
| OE5DRO-10 | 2026-09-03 00:49:13 | 48.92769 | 21.05223 | 129° | 16km/h | 30074m | 4.9m/s | -41.4°C | 2.7% | 12.4hPa | 2.6V | 00:00:00 | 00:00:00 | 08:30:00 | |
| S52SK | 2026-09-03 00:49:11 | 48.92771 | 21.05219 | 123° | 15km/h | 30069m | 5.8m/s | 0°C | 0% | 0hPa | 2.5V | 00:00:00 | 00:00:00 | 00:00:00 | |
| S52SK | 2026-09-03 00:49:06 | 48.92776 | 21.05192 | 115° | 13km/h | 30041m | 6.2m/s | 0°C | 0% | 0hPa | 2.5V | 00:00:00 | 00:00:00 | 00:00:00 | |
| S52SK | 2026-09-03 00:49:01 | 48.92790 | 21.05162 | 102° | 26km/h | 30006m | 6.9m/s | 0°C | 0% | 0hPa | 2.5V | 00:00:00 | 00:00:00 | 00:00:00 | |
| SQ9EZE-13 | 2026-09-03 00:48:57 | 48.92790 | 21.05131 | 82° | 24km/h | 29990m | 4.5m/s | -41.4°C | 0.8% | 12.6hPa | 2.5V | 00:00:00 | 00:00:00 | 00:00:00 | |
| OE5DRO-10 | 2026-09-03 00:48:54 | 48.92790 | 21.05116 | 189° | 16km/h | 29966m | 5.3m/s | -41.4°C | 2.6% | 12.6hPa | 2.5V | 00:00:00 | 00:00:00 | 00:00:00 | |
| OE5DXL-15 | 2026-09-03 00:48:46 | 48.92816 | 21.05089 | 132° | 18km/h | 29923m | 4.9m/s | -41.5°C | 2.6% | 12.6hPa | 2.5V | 00:00:00 | 00:00:00 | 00:00:00 | |
| SQ9EZE-13 | 2026-09-03 00:48:41 | 48.92830 | 21.05053 | 108° | 26km/h | 29901m | 4.5m/s | -41.5°C | 0.8% | 12.7hPa | 2.5V | 00:00:00 | 00:00:00 | 00:00:00 | |
| OE5DRO-10 | 2026-09-03 00:48:35 | 48.92826 | 21.05025 | 98° | 20km/h | 29861m | 5.8m/s | -41.5°C | 2.6% | 12.8hPa | 2.5V | 00:00:00 | 00:00:00 | 00:00:00 | |
| SQ9EZE-13 | 2026-09-03 00:48:26 | 48.92843 | 21.04952 | 94° | 22km/h | 29809m | 5.2m/s | -42.0°C | 0.8% | 12.9hPa | 2.5V | 00:00:00 | 00:00:00 | 00:00:00 | |
| SP9KGR-15 | 2026-09-03 00:48:18 | 48.92827 | 21.04916 | 96° | 22km/h | 29765m | 6.5m/s | -42.3°C | 0.8% | 13.0hPa | 2.5V | 00:00:00 | 00:00:00 | 00:00:00 | |
| OE5DRO-10 | 2026-09-03 00:48:16 | 48.92831 | 21.04897 | 116° | 18km/h | 29753m | 5.0m/s | -42.3°C | 2.7% | 13.0hPa | 2.5V | 00:00:00 | 00:00:00 | 00:00:00 | |
| GYPAP8-17 | 2026-09-03 00:48:10 | 48.92844 | 21.04862 | 103° | 11km/h | 29725m | 5.5m/s | -42.3°C | 0.8% | 13.1hPa | 2.6V | 00:00:00 | 00:00:00 | 00:00:00 | |
| SP9KGR-15 | 2026-09-03 00:48:01 | 48.92835 | 21.04831 | 79° | 18km/h | 29678m | 6.4m/s | -42.7°C | 0.8% | 13.2hPa | 2.6V | 00:00:00 | 00:00:00 | 00:00:00 | |
| OE5DRO-10 | 2026-09-03 00:47:57 | 48.92827 | 21.04784 | 67° | 18km/h | 29651m | 6.1m/s | -42.9°C | 2.7% | 13.2hPa | 2.6V | 00:00:00 | 00:00:00 | 00:00:00 | |
| OE5DXL-15 | 2026-09-03 00:47:46 | 48.92790 | 21.04726 | 46° | 13km/h | 29592m | 5.7m/s | -43.6°C | 2.7% | 13.3hPa | 2.6V | 00:00:00 | 00:00:00 | 00:00:00 | |
| SP9KGR-15 | 2026-09-03 00:47:45 | 48.92790 | 21.04726 | 47° | 16km/h | 29592m | 5.7m/s | -43.6°C | 0.8% | 13.3hPa | 2.6V | 00:00:00 | 00:00:00 | 00:00:00 | |
| OE5DRO-10 | 2026-09-03 00:47:38 | 48.92770 | 21.04691 | 58° | 13km/h | 29548m | 6.0m/s | -44.0°C | 2.9% | 13.4hPa | 2.6V | 00:00:00 | 00:00:00 | 00:00:00 | |
| SQ9EZE-13 | 2026-09-03 00:47:36 | 48.92767 | 21.04683 | 69° | 13km/h | 29537m | 5.2m/s | -44.1°C | 0.9% | 13.5hPa | 2.6V | 00:00:00 | 00:00:00 | 00:00:00 | |
| SP9KGR-15 | 2026-09-03 00:47:27 | 48.92752 | 21.04649 | 29° | 7km/h | 29492m | 5.1m/s | -44.3°C | 0.9% | 13.5hPa | 2.6V | 00:00:00 | 00:00:00 | 00:00:00 | |
| SQ9EZE-13 | 2026-09-03 00:47:20 | 48.92756 | 21.04620 | 91° | 9km/h | 29448m | 5.2m/s | -44.4°C | 0.9% | 13.6hPa | 2.6V | 00:00:00 | 00:00:00 | 00:00:00 | |
| OE5DRO-10 | 2026-09-03 00:47:18 | 48.92753 | 21.04612 | 51° | 11km/h | 29437m | 5.2m/s | -44.5°C | 2.9% | 13.6hPa | 2.6V | 00:00:00 | 00:00:00 | 00:00:00 | |
| SP9KGR-15 | 2026-09-03 00:47:11 | 48.92738 | 21.04601 | 76° | 4km/h | 29406m | 4.8m/s | -44.9°C | 0.9% | 13.7hPa | 2.6V | 00:00:00 | 00:00:00 | 00:00:00 | |
| S52SK | 2026-09-03 00:47:05 | 48.92743 | 21.04572 | 91° | 7km/h | 29374m | 5.9m/s | 0°C | 0% | 0hPa | 2.6V | 00:00:00 | 00:00:00 | 00:00:00 | |
| SQ9EZE-13 | 2026-09-03 00:47:04 | 48.92741 | 21.04572 | 312° | 9km/h | 29362m | 4.9m/s | -45.2°C | 0.9% | 13.8hPa | 2.6V | 00:00:00 | 00:00:00 | 00:00:00 | |
| OE5DRO-10 | 2026-09-03 00:46:59 | 48.92734 | 21.04575 | 82° | 9km/h | 29336m | 4.7m/s | -45.3°C | 3.0% | 13.8hPa | 2.6V | 00:00:00 | 00:00:00 | 00:00:00 | |
| SP9KGR-15 | 2026-09-03 00:46:55 | 48.92735 | 21.04565 | 144° | 7km/h | 29320m | 5.7m/s | -45.5°C | 0.9% | 13.9hPa | 2.6V | 00:00:00 | 00:00:00 | 00:00:00 | |
| S52SK | 2026-09-03 00:46:54 | 48.92737 | 21.04564 | 174° | 5km/h | 29314m | 5.7m/s | 0°C | 0% | 0hPa | 2.6V | 00:00:00 | 00:00:00 | 00:00:00 | |
| GYPAP8-17 | 2026-09-03 00:46:52 | 48.92737 | 21.04566 | 3° | 5km/h | 29298m | 6.5m/s | -45.8°C | 0.9% | 13.9hPa | 2.6V | 00:00:00 | 00:00:00 | 00:00:00 | |
| SQ9EZE-13 | 2026-09-03 00:46:48 | 48.92731 | 21.04566 | 350° | 7km/h | 29281m | 5.2m/s | -45.9°C | 0.9% | 14.0hPa | 2.6V | 00:00:00 | 00:00:00 | 00:00:00 | |
| OE5DXL-15 | 2026-09-03 00:46:46 | 48.92731 | 21.04571 | 224° | 9km/h | 29263m | 4.9m/s | -45.9°C | 3.1% | 14.0hPa | 2.6V | 00:00:00 | 00:00:00 | 00:00:00 | |
| OE5DRO-10 | 2026-09-03 00:46:40 | 48.92746 | 21.04563 | 157° | 7km/h | 29232m | 5.9m/s | -45.9°C | 3.1% | 14.0hPa | 2.6V | 00:00:00 | 00:00:00 | 00:00:00 | |
| HA6NAB-11 | 2026-09-03 00:46:38 | 48.92749 | 21.04562 | 181° | 11km/h | 29226m | 6.1m/s | -46.0°C | 0.9% | 14.1hPa | 2.6V | 00:00:00 | 00:00:00 | 00:00:00 | |
| HA6NAB-11 | 2026-09-03 00:46:31 | 48.92751 | 21.04563 | 46° | 9km/h | 29188m | 4.6m/s | -46.1°C | 1.0% | 14.2hPa | 2.6V | 00:00:00 | 00:00:00 | 00:00:00 | |
| SP9KGR-15 | 2026-09-03 00:46:25 | 48.92756 | 21.04556 | 155° | 13km/h | 29149m | 5.4m/s | -46.3°C | 1.0% | 14.3hPa | 2.6V | 00:00:00 | 00:00:00 | 00:00:00 | |
| OE5DRO-10 | 2026-09-03 00:46:20 | 48.92770 | 21.04557 | 209° | 7km/h | 29122m | 4.0m/s | -46.2°C | 3.2% | 14.3hPa | 2.6V | 00:00:00 | 00:00:00 | 08:30:00 | |
| HA6NAB-11 | 2026-09-03 00:46:19 | 48.92770 | 21.04557 | 210° | 7km/h | 29122m | 4.0m/s | -46.3°C | 1.0% | 14.3hPa | 2.5V | 00:00:00 | 00:00:00 | 00:00:00 | |
| OE5DXL-15 | 2026-09-03 00:46:16 | 48.92775 | 21.04553 | 131° | 9km/h | 29099m | 5.0m/s | -46.3°C | 3.2% | 14.3hPa | 2.5V | 00:00:00 | 00:00:00 | 00:00:00 | |
| SQ9EZE-13 | 2026-09-03 00:46:15 | 48.92775 | 21.04553 | 131° | 9km/h | 29099m | 5.0m/s | -46.3°C | 1.0% | 14.4hPa | 2.5V | 00:00:00 | 00:00:00 | 00:00:00 | |
| HA6NAB-11 | 2026-09-03 00:46:14 | 48.92777 | 21.04551 | 148° | 9km/h | 29094m | 6.2m/s | -46.3°C | 0.9% | 14.4hPa | 2.5V | 00:00:00 | 00:00:00 | 00:00:00 | |
| SQ9EZE-14 | 2026-09-03 00:46:08 | 48.92790 | 21.04545 | 80° | 7km/h | 29053m | 5.2m/s | -46.5°C | 1.0% | 14.5hPa | 2.5V | 00:00:00 | 00:00:00 | 00:00:00 | |
| HA6NAB-11 | 2026-09-03 00:46:02 | 48.92792 | 21.04539 | 187° | 7km/h | 29026m | 4.6m/s | -46.4°C | 1.0% | 14.5hPa | 2.5V | 00:00:00 | 00:00:00 | 00:00:00 | |
| OE5DRO-10 | 2026-09-03 00:46:00 | 48.92798 | 21.04533 | 117° | 11km/h | 29009m | 5.8m/s | -46.4°C | 3.2% | 14.5hPa | 2.5V | 00:00:00 | 00:00:00 | 00:00:00 | |
| SQ9EZE-13 | 2026-09-03 00:45:59 | 48.92798 | 21.04533 | 118° | 13km/h | 29009m | 5.9m/s | -46.5°C | 1.0% | 14.6hPa | 2.5V | 00:00:00 | 00:00:00 | 00:00:00 | |
| HA6NAB-11 | 2026-09-03 00:45:56 | 48.92802 | 21.04518 | 119° | 13km/h | 28993m | 6.4m/s | -46.5°C | 1.0% | 14.6hPa | 2.5V | 00:00:00 | 00:00:00 | 00:00:00 | |
| SP9KGR-15 | 2026-09-03 00:45:53 | 48.92807 | 21.04510 | 135° | 5km/h | 28975m | 5.3m/s | -46.6°C | 1.0% | 14.7hPa | 2.5V | 00:00:00 | 00:00:00 | 00:00:00 | |
| SQ9EZE-14 | 2026-09-03 00:45:51 | 48.92807 | 21.04507 | 79° | 5km/h | 28963m | 5.4m/s | -46.7°C | 1.0% | 14.7hPa | 2.5V | 00:00:00 | 00:00:00 | 00:00:00 | |
| OE5DXL-15 | 2026-09-03 00:45:46 | 48.92818 | 21.04499 | 153° | 13km/h | 28931m | 5.9m/s | -46.7°C | 3.2% | 14.7hPa | 2.5V | 00:00:00 | 00:00:00 | 00:00:00 | |
| SQ9EZE-13 | 2026-09-03 00:45:43 | 48.92826 | 21.04489 | 132° | 24km/h | 28919m | 5.5m/s | -46.8°C | 1.0% | 14.8hPa | 2.6V | 00:00:00 | 00:00:00 | 00:00:00 | |
| OE5DRO-10 | 2026-09-03 00:45:41 | 48.92836 | 21.04471 | 136° | 11km/h | 28902m | 6.0m/s | -46.8°C | 3.2% | 14.8hPa | 2.6V | 00:00:00 | 00:00:00 | 00:00:00 | |
| SP9KGR-15 | 2026-09-03 00:45:36 | 48.92842 | 21.04455 | 93° | 9km/h | 28873m | 4.8m/s | -46.7°C | 1.0% | 14.9hPa | 2.6V | 00:00:00 | 00:00:00 | 00:00:00 | |
| HA6NAB-11 | 2026-09-03 00:45:34 | 48.92842 | 21.04452 | 110° | 9km/h | 28869m | 4.9m/s | -46.7°C | 1.0% | 14.9hPa | 2.6V | 00:00:00 | 00:00:00 | 00:00:00 | |
| HA6NAB-11 | 2026-09-03 00:45:29 | 48.92857 | 21.04442 | 152° | 18km/h | 28840m | 6.5m/s | -46.7°C | 1.0% | 15.0hPa | 2.6V | 00:00:00 | 00:00:00 | 00:00:00 | |
| SQ9EZE-13 | 2026-09-03 00:45:27 | 48.92864 | 21.04432 | 131° | 18km/h | 28828m | 5.2m/s | -46.7°C | 1.0% | 15.0hPa | 2.6V | 00:00:00 | 00:00:00 | 00:00:00 | |
| HA6NAB-11 | 2026-09-03 00:45:23 | 48.92875 | 21.04418 | 167° | 11km/h | 28805m | 5.7m/s | -46.7°C | 1.0% | 15.0hPa | 2.6V | 00:00:00 | 00:00:00 | 00:00:00 | |
| OE5DRO-10 | 2026-09-03 00:45:22 | 48.92879 | 21.04417 | 163° | 15km/h | 28793m | 6.6m/s | -46.7°C | 3.2% | 15.0hPa | 2.6V | 00:00:00 | 00:00:00 | 00:00:00 | |
| SP9KGR-15 | 2026-09-03 00:45:18 | 48.92888 | 21.04408 | 164° | 16km/h | 28764m | 5.9m/s | -46.8°C | 1.0% | 15.1hPa | 2.5V | 00:00:00 | 00:00:00 | 00:00:00 | |
| OE5DXL-15 | 2026-09-03 00:45:16 | 48.92892 | 21.04406 | 158° | 16km/h | 28759m | 4.9m/s | -46.8°C | 3.3% | 15.1hPa | 2.5V | 00:00:00 | 00:00:00 | 00:00:00 | |
| HA6NAB-11 | 2026-09-03 00:45:12 | 48.92905 | 21.04391 | 126° | 22km/h | 28741m | 6.2m/s | -46.7°C | 1.0% | 15.2hPa | 2.5V | 00:00:00 | 00:00:00 | 00:00:00 | |
| SQ9EZE-13 | 2026-09-03 00:45:11 | 48.92908 | 21.04384 | 119° | 20km/h | 28736m | 5.2m/s | -46.7°C | 1.0% | 15.2hPa | 2.5V | 00:00:00 | 00:00:00 | 00:00:00 | |
| OE5DRO-10 | 2026-09-03 00:45:02 | 48.92922 | 21.04337 | 113° | 16km/h | 28680m | 6.5m/s | -46.6°C | 3.2% | 15.3hPa | 2.5V | 00:00:00 | 00:00:00 | 00:00:00 | |
| SP9KGR-15 | 2026-09-03 00:44:58 | 48.92930 | 21.04319 | 129° | 20km/h | 28663m | 4.9m/s | -46.7°C | 1.0% | 15.4hPa | 2.5V | 00:00:00 | 00:00:00 | 00:00:00 | |
| SQ9EZE-13 | 2026-09-03 00:44:56 | 48.92936 | 21.04296 | 92° | 24km/h | 28646m | 5.7m/s | -46.6°C | 1.0% | 15.4hPa | 2.5V | 00:00:00 | 00:00:00 | 00:00:00 | |
| S52SK | 2026-09-03 00:44:52 | 48.92934 | 21.04263 | 93° | 15km/h | 28623m | 5.5m/s | 0°C | 0% | 0hPa | 2.5V | 00:00:00 | 00:00:00 | 00:00:00 | |
| OE5DXL-15 | 2026-09-03 00:44:46 | 48.92930 | 21.04236 | 86° | 16km/h | 28590m | 6.1m/s | -46.6°C | 3.2% | 15.5hPa | 2.5V | 00:00:00 | 00:00:00 | 00:00:00 | |
| OE5DRO-10 | 2026-09-03 00:44:43 | 48.92933 | 21.04217 | 102° | 16km/h | 28573m | 4.9m/s | -46.7°C | 3.2% | 15.5hPa | 2.5V | 00:00:00 | 00:00:00 | 00:00:00 | |
| SQ9EZE-13 | 2026-09-03 00:44:40 | 48.92932 | 21.04192 | 75° | 22km/h | 28555m | 5.3m/s | -46.9°C | 1.0% | 15.6hPa | 2.5V | 00:00:00 | 00:00:00 | 00:00:00 | |
| GYPAP8-17 | 2026-09-03 00:44:31 | 48.92916 | 21.04148 | 59° | 22km/h | 28509m | 4.9m/s | -47.0°C | 1.0% | 15.7hPa | 2.5V | 00:00:00 | 00:00:00 | 00:00:00 | |
| SP9KGR-15 | 2026-09-03 00:44:27 | 48.92911 | 21.04122 | 87° | 15km/h | 28486m | 5.4m/s | -47.1°C | 1.0% | 15.8hPa | 2.5V | 00:00:00 | 00:00:00 | 00:00:00 | |
| SQ9EZE-13 | 2026-09-03 00:44:25 | 48.92906 | 21.04107 | 41° | 16km/h | 28468m | 5.8m/s | -47.0°C | 1.0% | 15.8hPa | 2.5V | 00:00:00 | 00:00:00 | 00:00:00 | |
| OE5DRO-10 | 2026-09-03 00:44:22 | 48.92897 | 21.04097 | 40° | 13km/h | 28452m | 6.5m/s | -47.0°C | 3.3% | 15.8hPa | 2.5V | 00:00:00 | 00:00:00 | 00:00:00 | |
| OE5DXL-15 | 2026-09-03 00:44:16 | 48.92884 | 21.04077 | 38° | 15km/h | 28418m | 4.7m/s | 0°C | 0% | 0hPa | 2.5V | 00:00:00 | 00:00:00 | 00:00:00 | |
| SP9KGR-15 | 2026-09-03 00:44:13 | 48.92878 | 21.04070 | 67° | 5km/h | 28401m | 5.5m/s | -47.2°C | 1.0% | 16.0hPa | 2.5V | 00:00:00 | 00:00:00 | 00:00:00 | |
| SQ9EZE-13 | 2026-09-03 00:44:07 | 48.92871 | 21.04050 | 46° | 20km/h | 28373m | 5.1m/s | -47.1°C | 1.0% | 16.1hPa | 2.5V | 00:00:00 | 00:00:00 | 00:00:00 | |
| SP9KGR-15 | 2026-09-03 00:43:56 | 48.92834 | 21.04037 | 50° | 9km/h | 28310m | 5.5m/s | -47.2°C | 1.0% | 16.2hPa | 2.5V | 00:00:00 | 00:00:00 | 00:00:00 | |
| OE5DRO-10 | 2026-09-03 00:43:53 | 48.92825 | 21.04019 | 42° | 16km/h | 28288m | 5.6m/s | -47.1°C | 3.3% | 16.2hPa | 2.5V | 00:00:00 | 00:00:00 | 00:00:00 | |
| SQ9EZE-13 | 2026-09-03 00:43:51 | 48.92821 | 21.04014 | 33° | 22km/h | 28282m | 4.9m/s | -47.1°C | 1.0% | 16.3hPa | 2.5V | 00:00:00 | 00:00:00 | 00:00:00 | |
| OE5DXL-15 | 2026-09-03 00:43:46 | 48.92796 | 21.04017 | 337° | 20km/h | 28249m | 6.2m/s | 0°C | 0% | 0hPa | 2.5V | 00:00:00 | 00:00:00 | 00:00:00 | |
| SQ9EZE-14 | 2026-09-03 00:43:45 | 48.92796 | 21.04017 | 337° | 20km/h | 28249m | 6.2m/s | -47.0°C | 1.0% | 16.4hPa | 2.5V | 00:00:00 | 00:00:00 | 00:00:00 | |
| SP9KGR-15 | 2026-09-03 00:43:41 | 48.92779 | 21.04020 | 18° | 13km/h | 28226m | 6.1m/s | -47.0°C | 1.0% | 16.4hPa | 2.5V | 00:00:00 | 00:00:00 | 00:00:00 | |
| SQ9EZE-13 | 2026-09-03 00:43:35 | 48.92750 | 21.04015 | 344° | 27km/h | 28194m | 5.0m/s | -47.0°C | 1.0% | 16.5hPa | 2.5V | 00:00:00 | 00:00:00 | 00:00:00 | |
| SQ9EZE-14 | 2026-09-03 00:43:30 | 48.92726 | 21.04044 | 314° | 24km/h | 28165m | 6.0m/s | -46.9°C | 1.0% | 16.6hPa | 2.5V | 00:00:00 | 00:00:00 | 00:00:00 | |
| SP9KGR-15 | 2026-09-03 00:43:25 | 48.92703 | 21.04065 | 335° | 16km/h | 28137m | 6.4m/s | -46.9°C | 1.0% | 16.7hPa | 2.5V | 00:00:00 | 00:00:00 | 00:00:00 | |
| SQ9EZE-13 | 2026-09-03 00:43:20 | 48.92684 | 21.04080 | 329° | 22km/h | 28110m | 4.2m/s | -46.9°C | 1.0% | 16.7hPa | 2.5V | 00:00:00 | 00:00:00 | 00:00:00 | |
| OE5DXL-15 | 2026-09-03 00:43:16 | 48.92671 | 21.04107 | 287° | 16km/h | 28083m | 4.5m/s | 0°C | 0% | 0hPa | 2.5V | 00:00:00 | 01:53:25 | 00:00:00 | |
| SP9KGR-15 | 2026-09-03 00:43:09 | 48.92653 | 21.04145 | 311° | 15km/h | 28050m | 6.3m/s | -46.9°C | 1.0% | 16.9hPa | 2.5V | 00:00:00 | 00:00:00 | 00:00:00 | |
| SQ9EZE-13 | 2026-09-03 00:43:04 | 48.92647 | 21.04170 | 287° | 20km/h | 28022m | 5.2m/s | -46.9°C | 1.1% | 16.9hPa | 2.5V | 00:00:00 | 00:00:00 | 00:00:00 | |
| S52SK | 2026-09-03 00:43:00 | 48.92645 | 21.04199 | 259° | 15km/h | 28000m | 5.2m/s | 0°C | 0% | 0hPa | 2.5V | 00:00:00 | 00:00:00 | 00:00:00 | |
| SP9KGR-15 | 2026-09-03 00:42:55 | 48.92640 | 21.04222 | 297° | 9km/h | 27969m | 5.1m/s | -46.8°C | 1.0% | 17.1hPa | 2.5V | 00:00:00 | 00:00:00 | 00:00:00 | |
| S52SK | 2026-09-03 00:42:53 | 48.92639 | 21.04225 | 262° | 9km/h | 27963m | 6.2m/s | 0°C | 0% | 0hPa | 2.5V | 00:00:00 | 00:00:00 | 00:00:00 | |
| SQ9EZE-13 | 2026-09-03 00:42:50 | 48.92648 | 21.04245 | 242° | 22km/h | 27941m | 6.3m/s | -46.9°C | 1.0% | 17.1hPa | 2.5V | 00:00:00 | 00:00:00 | 00:00:00 | |
| OE5DXL-15 | 2026-09-03 00:42:46 | 48.92656 | 21.04273 | 239° | 9km/h | 27920m | 6.1m/s | 0°C | 0% | 0hPa | 2.5V | 00:00:00 | 00:00:00 | 00:00:00 | |
| S52SK | 2026-09-03 00:42:42 | 48.92663 | 21.04281 | 191° | 7km/h | 27903m | 5.4m/s | 0°C | 0% | 0hPa | 2.5V | 00:00:00 | 00:00:00 | 00:00:00 | |
| SP9KGR-15 | 2026-09-03 00:42:38 | 48.92669 | 21.04284 | 204° | 11km/h | 27881m | 5.6m/s | -47.0°C | 1.0% | 17.3hPa | 2.5V | 00:00:00 | 00:00:00 | 00:00:00 | |
| SQ9EZE-13 | 2026-09-03 00:42:33 | 48.92688 | 21.04303 | 233° | 18km/h | 27854m | 5.9m/s | -47.1°C | 1.0% | 17.4hPa | 2.5V | 00:00:00 | 00:00:00 | 00:00:00 | |
| SP9KGR-15 | 2026-09-03 00:42:22 | 48.92700 | 21.04306 | 210° | 11km/h | 27797m | 5.3m/s | -47.0°C | 1.0% | 17.5hPa | 2.5V | 00:00:00 | 00:00:00 | 00:00:00 | |
| SQ9EZE-13 | 2026-09-03 00:42:17 | 48.92722 | 21.04314 | 188° | 13km/h | 27771m | 6.0m/s | -47.0°C | 1.0% | 17.6hPa | 2.5V | 00:00:00 | 00:00:00 | 00:00:00 | |
| HA6NAB-11 | 2026-09-03 00:42:16 | 48.92724 | 21.04314 | 174° | 5km/h | 27765m | 5.7m/s | -47.0°C | 1.0% | 17.6hPa | 2.5V | 00:00:00 | 00:00:00 | 00:00:00 | |
| HA6NAB-11 | 2026-09-03 00:42:11 | 48.92722 | 21.04306 | 107° | 4km/h | 27740m | 4.8m/s | -47.0°C | 1.0% | 17.7hPa | 2.5V | 00:00:00 | 00:00:00 | 00:00:00 | |
| SP9KGR-15 | 2026-09-03 00:42:07 | 48.92725 | 21.04310 | 233° | 7km/h | 27718m | 4.5m/s | -47.1°C | 1.0% | 17.7hPa | 2.5V | 00:00:00 | 00:00:00 | 00:00:00 | |
| HA6NAB-11 | 2026-09-03 00:42:06 | 48.92727 | 21.04312 | 211° | 9km/h | 27714m | 4.1m/s | -47.1°C | 1.0% | 17.8hPa | 2.5V | 00:00:00 | 00:00:00 | 00:00:00 | |
| SQ9EZE-13 | 2026-09-03 00:42:01 | 48.92742 | 21.04294 | 101° | 13km/h | 27681m | 5.5m/s | -47.1°C | 1.0% | 17.9hPa | 2.5V | 00:00:00 | 00:00:00 | 00:00:00 | |
| HA6NAB-11 | 2026-09-03 00:41:56 | 48.92744 | 21.04280 | 132° | 9km/h | 27660m | 5.5m/s | -47.1°C | 1.0% | 17.9hPa | 2.5V | 00:00:00 | 00:00:00 | 00:00:00 | |
| SP9KGR-15 | 2026-09-03 00:41:52 | 48.92749 | 21.04272 | 107° | 5km/h | 27638m | 5.0m/s | -47.0°C | 1.0% | 18.0hPa | 2.5V | 00:00:00 | 00:00:00 | 00:00:00 | |
| HA6NAB-11 | 2026-09-03 00:41:50 | 48.92750 | 21.04267 | 102° | 9km/h | 27629m | 4.8m/s | -47.1°C | 1.0% | 18.0hPa | 2.5V | 00:00:00 | 00:00:00 | 00:00:00 | |
| OE5DRO-10 | 2026-09-03 00:41:47 | 48.92755 | 21.04251 | 131° | 9km/h | 27611m | 4.4m/s | -47.2°C | 3.3% | 18.0hPa | 2.5V | 00:00:00 | 00:00:00 | 00:00:00 | |
| SQ9EZE-13 | 2026-09-03 00:41:46 | 48.92756 | 21.04250 | 132° | 2km/h | 27605m | 5.9m/s | -47.3°C | 1.0% | 18.1hPa | 2.5V | 00:00:00 | 00:00:00 | 00:00:00 | |
| SP9KGR-15 | 2026-09-03 00:41:34 | 48.92743 | 21.04248 | 326° | 4km/h | 27547m | 5.1m/s | -47.4°C | 1.1% | 18.2hPa | 2.5V | 00:00:00 | 00:00:00 | 00:00:00 | |
| SQ9EZE-13 | 2026-09-03 00:41:30 | 48.92732 | 21.04244 | 358° | 16km/h | 27522m | 6.3m/s | -47.4°C | 1.0% | 18.3hPa | 2.5V | 00:00:00 | 00:00:00 | 00:00:00 | |
| SQ9EZE-14 | 2026-09-03 00:41:27 | 48.92718 | 21.04251 | 335° | 20km/h | 27505m | 4.3m/s | -47.5°C | 1.0% | 18.3hPa | 2.5V | 00:00:00 | 00:00:00 | 00:00:00 | |
| SP9KGR-15 | 2026-09-03 00:41:19 | 48.92701 | 21.04271 | 311° | 11km/h | 27463m | 4.5m/s | -47.5°C | 1.0% | 18.4hPa | 2.5V | 00:00:00 | 00:00:00 | 00:00:00 | |
| SQ9EZE-13 | 2026-09-03 00:41:13 | 48.92690 | 21.04282 | 316° | 15km/h | 27437m | 6.0m/s | -47.6°C | 1.1% | 18.5hPa | 2.5V | 00:00:00 | 00:00:00 | 00:00:00 | |
| SQ9EZE-14 | 2026-09-03 00:41:11 | 48.92685 | 21.04292 | 293° | 18km/h | 27426m | 4.4m/s | -47.6°C | 1.1% | 18.6hPa | 2.5V | 00:00:00 | 00:00:00 | 00:00:00 | |
| OE5DRO-10 | 2026-09-03 00:41:08 | 48.92683 | 21.04313 | 262° | 15km/h | 27405m | 4.5m/s | -47.7°C | 3.4% | 18.6hPa | 2.5V | 00:00:00 | 00:00:00 | 00:00:00 | |
| SP9KGR-15 | 2026-09-03 00:41:02 | 48.92681 | 21.04345 | 294° | 18km/h | 27379m | 4.9m/s | -47.8°C | 1.1% | 18.7hPa | 2.5V | 00:00:00 | 00:00:00 | 00:00:00 | |
| SQ9EZE-13 | 2026-09-03 00:40:58 | 48.92671 | 21.04362 | 312° | 13km/h | 27359m | 5.0m/s | -47.8°C | 1.1% | 18.8hPa | 2.5V | 00:00:00 | 00:00:00 | 00:00:00 | |
| S52SK | 2026-09-03 00:40:48 | 48.92687 | 21.04411 | 245° | 18km/h | 27307m | 4.8m/s | 0°C | 0% | 0hPa | 2.5V | 00:00:00 | 00:00:00 | 00:00:00 | |
| SP9KGR-15 | 2026-09-03 00:40:47 | 48.92689 | 21.04421 | 258° | 13km/h | 27297m | 5.8m/s | -47.7°C | 1.1% | 18.9hPa | 2.5V | 00:00:00 | 00:00:00 | 00:00:00 | |
| OE5DRO-10 | 2026-09-03 00:40:45 | 48.92691 | 21.04427 | 226° | 15km/h | 27286m | 4.9m/s | -47.7°C | 3.4% | 18.9hPa | 2.5V | 00:00:00 | 00:00:00 | 00:00:00 | |
| S52SK | 2026-09-03 00:40:43 | 48.92692 | 21.04429 | 209° | 5km/h | 27281m | 4.7m/s | 0°C | 0% | 0hPa | 2.5V | 00:00:00 | 00:00:00 | 00:00:00 | |
| SQ9EZE-13 | 2026-09-03 00:40:42 | 48.92694 | 21.04430 | 211° | 9km/h | 27275m | 6.0m/s | -47.7°C | 1.1% | 19.0hPa | 2.5V | 00:00:00 | 00:00:00 | 00:00:00 | |
| GYPAP8-17 | 2026-09-03 00:40:40 | 48.92699 | 21.04434 | 205° | 16km/h | 27265m | 4.3m/s | -47.7°C | 1.1% | 19.0hPa | 2.5V | 00:00:00 | 00:00:00 | 00:00:00 | |
| S52SK | 2026-09-03 00:40:38 | 48.92713 | 21.04438 | 179° | 22km/h | 27249m | 5.7m/s | 0°C | 0% | 0hPa | 2.5V | 00:00:00 | 00:00:00 | 00:00:00 | |
| SP9KGR-15 | 2026-09-03 00:40:28 | 48.92742 | 21.04447 | 155° | 13km/h | 27201m | 4.9m/s | -47.5°C | 1.0% | 19.2hPa | 2.5V | 00:00:00 | 00:00:00 | 00:00:00 | |
| SQ9EZE-13 | 2026-09-03 00:40:27 | 48.92749 | 21.04443 | 165° | 16km/h | 27190m | 6.2m/s | -47.6°C | 1.0% | 19.2hPa | 2.5V | 00:00:00 | 00:00:00 | 00:00:00 | |
| OE5DRO-10 | 2026-09-03 00:40:25 | 48.92759 | 21.04440 | 170° | 18km/h | 27179m | 4.7m/s | -47.6°C | 3.3% | 19.2hPa | 2.5V | 00:00:00 | 00:00:00 | 00:00:00 | |
| SP9KGR-15 | 2026-09-03 00:40:14 | 48.92789 | 21.04413 | 128° | 24km/h | 27120m | 5.2m/s | -47.9°C | 1.1% | 19.4hPa | 2.6V | 00:00:00 | 00:00:00 | 00:00:00 | |
| SQ9EZE-13 | 2026-09-03 00:40:10 | 48.92803 | 21.04393 | 148° | 26km/h | 27104m | 5.9m/s | -47.9°C | 1.1% | 19.5hPa | 2.6V | 00:00:00 | 00:00:00 | 00:00:00 | |
| HA6NAB-11 | 2026-09-03 00:40:07 | 48.92818 | 21.04379 | 143° | 20km/h | 27088m | 5.9m/s | -47.9°C | 1.0% | 19.5hPa | 2.6V | 00:00:00 | 00:00:00 | 00:00:00 | |
| OE5DRO-10 | 2026-09-03 00:40:06 | 48.92823 | 21.04369 | 117° | 13km/h | 27077m | 5.0m/s | -47.7°C | 3.4% | 19.5hPa | 2.6V | 00:00:00 | 00:00:00 | 00:00:00 | |
| HA6NAB-11 | 2026-09-03 00:40:01 | 48.92825 | 21.04354 | 84° | 9km/h | 27055m | 4.6m/s | -47.8°C | 1.1% | 19.6hPa | 2.6V | 00:00:00 | 00:00:00 | 00:00:00 | |
| SP9KGR-15 | 2026-09-03 00:39:57 | 48.92825 | 21.04330 | 100° | 20km/h | 27034m | 4.8m/s | -47.8°C | 1.1% | 19.7hPa | 2.6V | 00:00:00 | 00:00:00 | 00:00:00 | |
| HA6NAB-11 | 2026-09-03 00:39:56 | 48.92826 | 21.04323 | 106° | 18km/h | 27028m | 5.5m/s | -47.8°C | 1.0% | 19.7hPa | 2.6V | 00:00:00 | 00:00:00 | 00:00:00 | |
| SQ9EZE-13 | 2026-09-03 00:39:55 | 48.92827 | 21.04317 | 115° | 15km/h | 27023m | 6.3m/s | -47.8°C | 1.1% | 19.7hPa | 2.6V | 00:00:00 | 00:00:00 | 00:00:00 | |
| HA6NAB-11 | 2026-09-03 00:39:50 | 48.92837 | 21.04299 | 118° | 15km/h | 26996m | 5.4m/s | -47.8°C | 1.1% | 19.8hPa | 2.6V | 00:00:00 | 00:00:00 | 00:00:00 | |
| OE5DRO-10 | 2026-09-03 00:39:47 | 48.92840 | 21.04281 | 84° | 18km/h | 26974m | 4.3m/s | -47.7°C | 3.4% | 19.8hPa | 2.6V | 00:00:00 | 00:00:00 | 00:00:00 | |
| HA6NAB-11 | 2026-09-03 00:39:46 | 48.92839 | 21.04275 | 80° | 16km/h | 26969m | 5.1m/s | -47.8°C | 1.0% | 19.9hPa | 2.6V | 00:00:00 | 00:00:00 | 00:00:00 | |
| GYPAP8-17 | 2026-09-03 00:39:44 | 48.92837 | 21.04260 | 82° | 26km/h | 26957m | 5.7m/s | -47.8°C | 1.0% | 19.9hPa | 2.6V | 00:00:00 | 00:00:00 | 00:00:00 | |
| SP9KGR-15 | 2026-09-03 00:39:41 | 48.92836 | 21.04241 | 92° | 24km/h | 26947m | 6.1m/s | -47.8°C | 1.0% | 20.0hPa | 2.6V | 00:00:00 | 00:00:00 | 00:00:00 | |
| HA6NAB-11 | 2026-09-03 00:39:39 | 48.92838 | 21.04226 | 105° | 16km/h | 26935m | 4.9m/s | -47.8°C | 1.1% | 20.0hPa | 2.6V | 00:00:00 | 00:00:00 | 00:00:00 | |
| OE5DRO-10 | 2026-09-03 00:39:28 | 48.92825 | 21.04147 | 60° | 13km/h | 26872m | 3.6m/s | -47.8°C | 3.3% | 20.1hPa | 2.6V | 00:00:00 | 00:00:00 | 00:00:00 | |
| SP9KGR-15 | 2026-09-03 00:39:26 | 48.92823 | 21.04141 | 64° | 15km/h | 26868m | 5.0m/s | -47.8°C | 1.1% | 20.2hPa | 2.5V | 00:00:00 | 00:00:00 | 00:00:00 | |
| SQ9EZE-13 | 2026-09-03 00:39:23 | 48.92824 | 21.04136 | 190° | 11km/h | 26850m | 4.9m/s | -47.8°C | 1.0% | 20.3hPa | 2.5V | 00:00:00 | 00:00:00 | 00:00:00 | |
| SP9KGR-15 | 2026-09-03 00:39:10 | 48.92821 | 21.04095 | 86° | 7km/h | 26783m | 4.3m/s | -48.3°C | 1.1% | 20.5hPa | 2.5V | 00:00:00 | 00:00:00 | 00:00:00 | |
| OE5DRO-10 | 2026-09-03 00:39:09 | 48.92821 | 21.04092 | 180° | 7km/h | 26772m | 5.9m/s | -48.2°C | 3.4% | 20.5hPa | 2.5V | 00:00:00 | 00:00:00 | 00:00:00 | |
| SQ9EZE-13 | 2026-09-03 00:39:07 | 48.92822 | 21.04092 | 224° | 5km/h | 26766m | 5.3m/s | -48.3°C | 1.1% | 20.5hPa | 2.5V | 00:00:00 | 00:00:00 | 00:00:00 | |
| SP9KGR-15 | 2026-09-03 00:38:55 | 48.92830 | 21.04085 | 220° | 5km/h | 26704m | 5.8m/s | -48.4°C | 1.1% | 20.7hPa | 2.5V | 00:00:00 | 00:00:00 | 00:00:00 | |
| SQ9EZE-13 | 2026-09-03 00:38:50 | 48.92840 | 21.04085 | 141° | 5km/h | 26673m | 5.0m/s | -48.5°C | 1.1% | 20.8hPa | 2.5V | 00:00:00 | 00:00:00 | 00:00:00 | |
| GYPAP8-17 | 2026-09-03 00:38:47 | 48.92843 | 21.04080 | 122° | 11km/h | 26661m | 6.4m/s | -48.4°C | 1.1% | 20.8hPa | 2.5V | 00:00:00 | 00:00:00 | 00:00:00 | |
| SP9KGR-15 | 2026-09-03 00:38:39 | 48.92862 | 21.04069 | 181° | 16km/h | 26617m | 4.8m/s | -48.4°C | 1.1% | 21.0hPa | 2.5V | 00:00:00 | 00:00:00 | 00:00:00 | |
| SQ9EZE-13 | 2026-09-03 00:38:33 | 48.92882 | 21.04063 | 124° | 15km/h | 26578m | 4.9m/s | -48.6°C | 1.1% | 21.1hPa | 2.5V | 00:00:00 | 00:00:00 | 00:00:00 | |
| OE5DRO-10 | 2026-09-03 00:38:27 | 48.92895 | 21.04057 | 199° | 15km/h | 26546m | 6.1m/s | -48.6°C | 3.5% | 21.2hPa | 2.5V | 00:00:00 | 00:00:00 | 08:30:00 | |
| SP9KGR-15 | 2026-09-03 00:38:24 | 48.92904 | 21.04060 | 186° | 20km/h | 26535m | 4.8m/s | -48.6°C | 1.1% | 21.3hPa | 2.5V | 00:00:00 | 00:00:00 | 00:00:00 | |
| SQ9EZE-14 | 2026-09-03 00:38:18 | 48.92932 | 21.04055 | 147° | 16km/h | 26497m | 5.0m/s | -48.6°C | 1.1% | 21.4hPa | 2.5V | 00:00:00 | 00:00:00 | 00:00:00 | |
| SQ9EZE-13 | 2026-09-03 00:38:16 | 48.92935 | 21.04052 | 149° | 13km/h | 26492m | 5.3m/s | -48.6°C | 1.1% | 21.4hPa | 2.5V | 00:00:00 | 00:00:00 | 00:00:00 | |
| SP9KGR-15 | 2026-09-03 00:38:09 | 48.92951 | 21.04049 | 171° | 13km/h | 26454m | 5.1m/s | -48.8°C | 1.1% | 21.5hPa | 2.5V | 00:00:00 | 00:00:00 | 00:00:00 | |
| OE5DRO-10 | 2026-09-03 00:38:08 | 48.92958 | 21.04049 | 185° | 13km/h | 26443m | 5.5m/s | -48.8°C | 3.5% | 21.5hPa | 2.5V | 00:00:00 | 00:00:00 | 00:00:00 | |
| SQ9EZE-13 | 2026-09-03 00:38:00 | 48.92982 | 21.04048 | 196° | 5km/h | 26405m | 5.8m/s | -49.1°C | 1.1% | 21.7hPa | 2.5V | 00:00:00 | 00:00:00 | 00:00:00 | |
| HA6NAB-11 | 2026-09-03 00:37:58 | 48.92984 | 21.04049 | 153° | 4km/h | 26389m | 5.9m/s | -49.2°C | 1.1% | 21.7hPa | 2.5V | 00:00:00 | 00:00:00 | 00:00:00 | |
| SP9KGR-15 | 2026-09-03 00:37:53 | 48.92992 | 21.04045 | 182° | 13km/h | 26367m | 5.6m/s | -49.3°C | 1.1% | 21.8hPa | 2.5V | 00:00:00 | 00:00:00 | 00:00:00 | |
| HA6NAB-11 | 2026-09-03 00:37:51 | 48.93000 | 21.04046 | 179° | 20km/h | 26357m | 5.4m/s | -49.2°C | 1.1% | 21.9hPa | 2.5V | 00:00:00 | 00:00:00 | 00:00:00 | |
| OE5DRO-10 | 2026-09-03 00:37:49 | 48.93018 | 21.04043 | 176° | 15km/h | 26341m | 3.7m/s | -49.1°C | 3.6% | 21.9hPa | 2.5V | 00:00:00 | 00:00:00 | 00:00:00 | |
| HA6NAB-11 | 2026-09-03 00:37:46 | 48.93028 | 21.04043 | 189° | 13km/h | 26332m | 5.8m/s | -49.1°C | 1.1% | 21.9hPa | 2.5V | 00:00:00 | 00:00:00 | 00:00:00 | |
| SQ9EZE-13 | 2026-09-03 00:37:45 | 48.93030 | 21.04044 | 201° | 5km/h | 26326m | 5.1m/s | -49.0°C | 1.1% | 21.9hPa | 2.5V | 00:00:00 | 00:00:00 | 00:00:00 | |
| GYPAP8-17 | 2026-09-03 00:37:43 | 48.93029 | 21.04040 | 76° | 11km/h | 26312m | 5.4m/s | -49.0°C | 1.1% | 22.0hPa | 2.5V | 00:00:00 | 00:00:00 | 00:00:00 | |
| HA6NAB-11 | 2026-09-03 00:37:40 | 48.93030 | 21.04030 | 123° | 18km/h | 26302m | 4.4m/s | -48.9°C | 1.1% | 22.0hPa | 2.5V | 00:00:00 | 00:00:00 | 00:00:00 | |
| SP9KGR-15 | 2026-09-03 00:37:38 | 48.93038 | 21.04019 | 152° | 22km/h | 26292m | 5.7m/s | -49.0°C | 1.1% | 22.1hPa | 2.5V | 00:00:00 | 00:00:00 | 00:00:00 | |
| HA6NAB-11 | 2026-09-03 00:37:36 | 48.93053 | 21.04013 | 174° | 18km/h | 26277m | 4.0m/s | -49.0°C | 1.1% | 22.1hPa | 2.5V | 00:00:00 | 00:00:00 | 00:00:00 | |
| OE5DRO-10 | 2026-09-03 00:37:30 | 48.93067 | 21.03988 | 105° | 18km/h | 26245m | 5.9m/s | -49.2°C | 3.5% | 22.2hPa | 2.5V | 00:00:00 | 00:00:00 | 00:00:00 | |
| HA6NAB-11 | 2026-09-03 00:37:29 | 48.93067 | 21.03988 | 106° | 13km/h | 26245m | 5.9m/s | -49.3°C | 1.1% | 22.2hPa | 2.6V | 00:00:00 | 00:00:00 | 00:00:00 | |
| SQ9EZE-13 | 2026-09-03 00:37:27 | 48.93069 | 21.03979 | 116° | 13km/h | 26235m | 5.1m/s | -49.4°C | 1.1% | 22.3hPa | 2.6V | 00:00:00 | 00:00:00 | 00:00:00 | |
| SP9KGR-15 | 2026-09-03 00:37:23 | 48.93078 | 21.03956 | 129° | 20km/h | 26215m | 4.3m/s | -49.4°C | 1.1% | 22.3hPa | 2.6V | 00:00:00 | 00:00:00 | 00:00:00 | |
| SQ9EZE-13 | 2026-09-03 00:37:12 | 48.93101 | 21.03884 | 70° | 15km/h | 26159m | 4.2m/s | -49.4°C | 1.1% | 22.5hPa | 2.6V | 00:00:00 | 00:00:00 | 00:00:00 | |
| OE5DRO-10 | 2026-09-03 00:37:11 | 48.93099 | 21.03872 | 82° | 13km/h | 26148m | 5.3m/s | -49.4°C | 3.6% | 22.5hPa | 2.6V | 00:00:00 | 00:00:00 | 00:00:00 | |
| SP9KGR-15 | 2026-09-03 00:37:07 | 48.93101 | 21.03854 | 112° | 13km/h | 26133m | 6.2m/s | -49.5°C | 1.1% | 22.6hPa | 2.6V | 00:00:00 | 00:00:00 | 00:00:00 | |
| SQ9EZE-13 | 2026-09-03 00:36:55 | 48.93098 | 21.03800 | 76° | 9km/h | 26070m | 4.9m/s | -49.6°C | 1.1% | 22.8hPa | 2.6V | 00:00:00 | 00:00:00 | 00:00:00 | |
| SP9KGR-15 | 2026-09-03 00:36:52 | 48.93098 | 21.03791 | 0° | 0km/h | 26050m | 5.5m/s | -49.6°C | 1.1% | 22.9hPa | 2.6V | 00:00:00 | 00:00:00 | 00:00:00 | |
| SQ9EZE-13 | 2026-09-03 00:36:40 | 48.93096 | 21.03769 | 134° | 9km/h | 25989m | 4.0m/s | -49.8°C | 1.1% | 23.1hPa | 2.6V | 00:00:00 | 00:00:00 | 00:00:00 | |
| SP9KGR-15 | 2026-09-03 00:36:36 | 48.93099 | 21.03769 | 311° | 4km/h | 25969m | 4.6m/s | -50.0°C | 1.2% | 23.2hPa | 2.6V | 00:00:00 | 00:00:00 | 00:00:00 | |
| GYPAP8-17 | 2026-09-03 00:36:35 | 48.93099 | 21.03769 | 311° | 4km/h | 25969m | 4.6m/s | -50.0°C | 1.2% | 23.2hPa | 2.6V | 00:00:00 | 00:00:00 | 00:00:00 | |
| OE5DRO-10 | 2026-09-03 00:36:33 | 48.93094 | 21.03768 | 14° | 5km/h | 25953m | 4.5m/s | 0°C | 0% | 0hPa | 2.6V | 00:00:00 | 00:00:00 | 00:00:00 | |
| SQ9EZE-13 | 2026-09-03 00:36:23 | 48.93076 | 21.03766 | 237° | 4km/h | 25907m | 5.9m/s | -50.0°C | 1.1% | 23.4hPa | 2.6V | 00:00:00 | 00:00:00 | 00:00:00 | |
| SP9KGR-15 | 2026-09-03 00:36:20 | 48.93078 | 21.03772 | 235° | 5km/h | 25892m | 5.0m/s | -50.0°C | 1.1% | 23.5hPa | 2.6V | 00:00:00 | 00:00:00 | 00:00:00 | |
| OE5DRO-10 | 2026-09-03 00:36:14 | 48.93078 | 21.03773 | 270° | 9km/h | 25856m | 4.6m/s | 0°C | 0% | 0hPa | 2.6V | 00:00:00 | 00:00:00 | 00:00:00 | |
| SQ9EZE-14 | 2026-09-03 00:36:10 | 48.93084 | 21.03772 | 191° | 13km/h | 25836m | 4.5m/s | -50.5°C | 1.2% | 23.7hPa | 2.6V | 00:00:00 | 00:00:00 | 00:00:00 | |
| SQ9EZE-13 | 2026-09-03 00:36:07 | 48.93095 | 21.03780 | 207° | 18km/h | 25821m | 4.0m/s | -50.5°C | 1.2% | 23.7hPa | 2.6V | 00:00:00 | 00:00:00 | 00:00:00 | |
| SP9KGR-15 | 2026-09-03 00:36:04 | 48.93102 | 21.03784 | 186° | 11km/h | 25812m | 5.4m/s | -50.6°C | 1.2% | 23.7hPa | 2.6V | 00:00:00 | 00:00:00 | 00:00:00 | |
| OE5DRO-10 | 2026-09-03 00:35:55 | 48.93097 | 21.03765 | 138° | 9km/h | 25764m | 4.3m/s | 0°C | 0% | 0hPa | 2.6V | 00:00:00 | 00:00:00 | 00:00:00 | |
| SQ9EZE-14 | 2026-09-03 00:35:53 | 48.93099 | 21.03762 | 152° | 13km/h | 25759m | 5.5m/s | -50.6°C | 1.2% | 23.9hPa | 2.6V | 00:00:00 | 00:00:00 | 00:00:00 | |
| SQ9EZE-13 | 2026-09-03 00:35:51 | 48.93105 | 21.03760 | 175° | 11km/h | 25747m | 4.9m/s | -50.6°C | 1.2% | 24.0hPa | 2.6V | 00:00:00 | 00:00:00 | 00:00:00 | |
| HA6NAB-11 | 2026-09-03 00:35:48 | 48.93113 | 21.03751 | 117° | 11km/h | 25728m | 4.2m/s | -50.6°C | 1.2% | 24.1hPa | 2.6V | 00:00:00 | 00:00:00 | 00:00:00 | |
| HA6NAB-11 | 2026-09-03 00:35:42 | 48.93118 | 21.03736 | 146° | 11km/h | 25697m | 5.3m/s | -50.6°C | 1.2% | 24.2hPa | 2.6V | 00:00:00 | 00:00:00 | 00:00:00 | |
| SQ9EZE-13 | 2026-09-03 00:35:36 | 48.93132 | 21.03728 | 141° | 9km/h | 25668m | 4.9m/s | -50.7°C | 1.2% | 24.3hPa | 2.6V | 00:00:00 | 00:00:00 | 00:00:00 | |
| GYPAP8-17 | 2026-09-03 00:35:32 | 48.93139 | 21.03712 | 115° | 11km/h | 25647m | 5.9m/s | -50.7°C | 1.2% | 24.4hPa | 2.6V | 00:00:00 | 00:00:00 | 00:00:00 | |
| HA6NAB-11 | 2026-09-03 00:35:26 | 48.93146 | 21.03702 | 156° | 11km/h | 25622m | 5.2m/s | -50.5°C | 1.1% | 24.5hPa | 2.6V | 00:00:00 | 00:00:00 | 00:00:00 | |
| HA6NAB-11 | 2026-09-03 00:35:20 | 48.93164 | 21.03698 | 191° | 15km/h | 25594m | 3.8m/s | -50.5°C | 1.2% | 24.6hPa | 2.6V | 00:00:00 | 00:00:00 | 00:00:00 | |
| SQ9EZE-13 | 2026-09-03 00:35:18 | 48.93173 | 21.03699 | 177° | 20km/h | 25585m | 5.3m/s | -50.5°C | 1.2% | 24.6hPa | 2.6V | 00:00:00 | 00:00:00 | 00:00:00 | |
| SP9KGR-15 | 2026-09-03 00:35:17 | 48.93178 | 21.03697 | 172° | 20km/h | 25580m | 4.5m/s | -50.5°C | 1.2% | 24.6hPa | 2.6V | 00:00:00 | 00:00:00 | 00:00:00 | |
| SQ9EZE-13 | 2026-09-03 00:35:04 | 48.93199 | 21.03647 | 136° | 16km/h | 25509m | 4.9m/s | -50.8°C | 1.2% | 24.9hPa | 2.6V | 00:00:00 | 00:00:00 | 00:00:00 | |
| SP9KGR-15 | 2026-09-03 00:35:02 | 48.93205 | 21.03638 | 132° | 16km/h | 25499m | 5.5m/s | -50.8°C | 1.2% | 24.9hPa | 2.6V | 00:00:00 | 00:00:00 | 00:00:00 | |
| SQ9EZE-13 | 2026-09-03 00:34:47 | 48.93217 | 21.03568 | 122° | 16km/h | 25429m | 5.0m/s | -50.9°C | 1.2% | 25.2hPa | 2.6V | 00:00:00 | 00:00:00 | 00:00:00 | |
| SP9KGR-15 | 2026-09-03 00:34:45 | 48.93221 | 21.03556 | 114° | 18km/h | 25418m | 5.6m/s | -50.9°C | 1.2% | 25.3hPa | 2.6V | 00:00:00 | 00:00:00 | 00:00:00 | |
| SQ9EZE-13 | 2026-09-03 00:34:32 | 48.93246 | 21.03477 | 127° | 22km/h | 25346m | 5.4m/s | -51.1°C | 1.2% | 25.5hPa | 2.6V | 00:00:00 | 00:00:00 | 00:00:00 | |
| SP9KGR-15 | 2026-09-03 00:34:30 | 48.93249 | 21.03471 | 129° | 20km/h | 25341m | 5.6m/s | -51.1°C | 1.2% | 25.6hPa | 2.6V | 00:00:00 | 00:00:00 | 00:00:00 | |
| SQ9EZE-13 | 2026-09-03 00:34:15 | 48.93290 | 21.03427 | 143° | 9km/h | 25261m | 6.0m/s | -50.9°C | 1.2% | 25.9hPa | 2.6V | 00:00:00 | 00:00:00 | 00:00:00 | |
| SP9KGR-15 | 2026-09-03 00:34:14 | 48.93291 | 21.03425 | 140° | 9km/h | 25256m | 4.8m/s | -50.9°C | 1.2% | 25.9hPa | 2.6V | 00:00:00 | 00:00:00 | 00:00:00 | |
| SQ9EZE-13 | 2026-09-03 00:33:59 | 48.93325 | 21.03429 | 187° | 16km/h | 25176m | 6.4m/s | -51.0°C | 1.2% | 26.2hPa | 2.6V | 00:00:00 | 00:00:00 | 00:00:00 | |
| SP9KGR-15 | 2026-09-03 00:33:58 | 48.93329 | 21.03429 | 174° | 18km/h | 25170m | 5.7m/s | -51.0°C | 1.2% | 26.2hPa | 2.6V | 00:00:00 | 00:00:00 | 00:00:00 | |
| SQ9EZE-13 | 2026-09-03 00:33:43 | 48.93373 | 21.03467 | 169° | 22km/h | 25090m | 4.6m/s | -51.0°C | 1.2% | 26.6hPa | 2.6V | 00:00:00 | 00:00:00 | 00:00:00 | |
| HA6NAB-11 | 2026-09-03 00:33:38 | 48.93394 | 21.03468 | 224° | 16km/h | 25059m | 5.8m/s | -50.9°C | 1.2% | 26.7hPa | 2.6V | 00:00:00 | 00:00:00 | 00:00:00 | |
| HA6NAB-11 | 2026-09-03 00:33:31 | 48.93413 | 21.03485 | 173° | 7km/h | 25028m | 5.2m/s | -50.8°C | 1.2% | 26.8hPa | 2.6V | 00:00:00 | 00:00:00 | 00:00:00 | |
| SP9KGR-15 | 2026-09-03 00:33:29 | 48.93420 | 21.03480 | 160° | 15km/h | 25012m | 5.7m/s | -50.8°C | 1.2% | 26.9hPa | 2.6V | 00:00:00 | 00:00:00 | 00:00:00 | |
| SQ9EZE-13 | 2026-09-03 00:33:27 | 48.93424 | 21.03478 | 168° | 16km/h | 25007m | 4.7m/s | -50.8°C | 1.2% | 26.9hPa | 2.6V | 00:00:00 | 00:00:00 | 00:00:00 | |
| HA6NAB-11 | 2026-09-03 00:33:26 | 48.93428 | 21.03477 | 172° | 16km/h | 25003m | 4.3m/s | -50.8°C | 1.2% | 26.9hPa | 2.6V | 00:00:00 | 00:00:00 | 00:00:00 | |
| HA6NAB-11 | 2026-09-03 00:33:20 | 48.93444 | 21.03470 | 163° | 13km/h | 24972m | 5.6m/s | -50.9°C | 1.2% | 27.0hPa | 2.6V | 00:00:00 | 00:00:00 | 00:00:00 | |
| HA6NAB-11 | 2026-09-03 00:33:14 | 48.93467 | 21.03468 | 161° | 18km/h | 24942m | 5.7m/s | -51.0°C | 1.2% | 27.2hPa | 2.6V | 00:00:00 | 00:00:00 | 00:00:00 | |
| SP9KGR-15 | 2026-09-03 00:33:12 | 48.93476 | 21.03458 | 132° | 26km/h | 24931m | 5.2m/s | -51.0°C | 1.2% | 27.2hPa | 2.6V | 00:00:00 | 00:00:00 | 00:00:00 | |
| SQ9EZE-13 | 2026-09-03 00:33:11 | 48.93480 | 21.03450 | 124° | 26km/h | 24926m | 4.9m/s | -51.0°C | 1.3% | 27.2hPa | 2.6V | 00:00:00 | 00:00:00 | 00:00:00 | |
| HA6NAB-11 | 2026-09-03 00:33:08 | 48.93486 | 21.03426 | 101° | 16km/h | 24909m | 4.6m/s | -51.0°C | 1.2% | 27.3hPa | 2.6V | 00:00:00 | 00:00:00 | 00:00:00 | |
| SP9KGR-15 | 2026-09-03 00:32:57 | 48.93510 | 21.03342 | 107° | 31km/h | 24850m | 4.2m/s | -50.8°C | 1.2% | 27.6hPa | 2.6V | 00:00:00 | 00:00:00 | 00:00:00 | |
| SQ9EZE-13 | 2026-09-03 00:32:55 | 48.93511 | 21.03332 | 104° | 27km/h | 24845m | 5.8m/s | -50.8°C | 1.2% | 27.6hPa | 2.6V | 00:00:00 | 00:00:00 | 00:00:00 | |
| SP9KGR-15 | 2026-09-03 00:32:40 | 48.93512 | 21.03207 | 84° | 26km/h | 24767m | 5.1m/s | -51.0°C | 1.2% | 27.9hPa | 2.6V | 00:00:00 | 00:00:00 | 00:00:00 | |
| SQ9EZE-13 | 2026-09-03 00:32:38 | 48.93508 | 21.03187 | 68° | 27km/h | 24757m | 6.0m/s | -51.0°C | 1.2% | 28.0hPa | 2.6V | 00:00:00 | 00:00:00 | 00:00:00 | |
| SP9KGR-15 | 2026-09-03 00:32:24 | 48.93450 | 21.03053 | 60° | 27km/h | 24685m | 5.9m/s | -51.1°C | 1.2% | 28.3hPa | 2.6V | 00:00:00 | 00:00:00 | 00:00:00 | |
| GYPAP8-17 | 2026-09-03 00:32:23 | 48.93443 | 21.03036 | 61° | 26km/h | 24674m | 4.5m/s | -51.1°C | 1.2% | 28.3hPa | 2.6V | 00:00:00 | 00:00:00 | 00:00:00 | |
| SP9KGR-15 | 2026-09-03 00:32:08 | 48.93402 | 21.02919 | 59° | 22km/h | 24605m | 5.4m/s | -50.9°C | 1.2% | 28.6hPa | 2.6V | 00:00:00 | 00:00:00 | 00:00:00 | |
| SQ9EZE-13 | 2026-09-03 00:32:07 | 48.93399 | 21.02912 | 63° | 18km/h | 24600m | 4.2m/s | -50.9°C | 1.2% | 28.7hPa | 2.6V | 00:00:00 | 00:00:00 | 00:00:00 | |
| SP9KGR-15 | 2026-09-03 00:31:53 | 48.93367 | 21.02837 | 48° | 13km/h | 24531m | 4.0m/s | -51.1°C | 1.2% | 28.9hPa | 2.6V | 00:00:00 | 00:00:00 | 00:00:00 | |
| SQ9EZE-13 | 2026-09-03 00:31:52 | 48.93364 | 21.02828 | 76° | 15km/h | 24521m | 5.8m/s | -51.2°C | 1.2% | 29.0hPa | 2.6V | 00:00:00 | 00:00:00 | 00:00:00 | |
| SP9KGR-15 | 2026-09-03 00:31:37 | 48.93353 | 21.02794 | 59° | 5km/h | 24449m | 4.8m/s | -51.7°C | 1.3% | 29.3hPa | 2.6V | 00:00:00 | 00:00:00 | 00:00:00 | |
| SQ9EZE-13 | 2026-09-03 00:31:36 | 48.93352 | 21.02792 | 55° | 5km/h | 24445m | 3.9m/s | -51.7°C | 1.2% | 29.3hPa | 2.6V | 00:00:00 | 00:00:00 | 00:00:00 | |
| SQ9EZE-14 | 2026-09-03 00:31:30 | 48.93341 | 21.02792 | 9° | 11km/h | 24416m | 4.8m/s | -51.7°C | 1.2% | 29.5hPa | 2.6V | 00:00:00 | 00:00:00 | 00:00:00 | |
| HA6NAB-11 | 2026-09-03 00:31:27 | 48.93334 | 21.02792 | 330° | 9km/h | 24403m | 5.4m/s | -51.7°C | 1.2% | 29.5hPa | 2.6V | 00:00:00 | 00:00:00 | 00:00:00 | |
| HA6NAB-11 | 2026-09-03 00:31:22 | 48.93332 | 21.02806 | 228° | 4km/h | 24378m | 4.6m/s | -51.8°C | 1.2% | 29.6hPa | 2.6V | 00:00:00 | 00:00:00 | 00:00:00 | |
| SP9KGR-15 | 2026-09-03 00:31:20 | 48.93333 | 21.02807 | 200° | 5km/h | 24368m | 5.9m/s | -51.9°C | 1.3% | 29.7hPa | 2.6V | 00:00:00 | 00:00:00 | 00:00:00 | |
| GYPAP8-17 | 2026-09-03 00:31:19 | 48.93335 | 21.02808 | 208° | 7km/h | 24363m | 5.1m/s | -51.9°C | 1.3% | 29.7hPa | 2.6V | 00:00:00 | 00:00:00 | 00:00:00 | |
| HA6NAB-11 | 2026-09-03 00:31:16 | 48.93338 | 21.02810 | 219° | 2km/h | 24348m | 5.2m/s | -52.0°C | 1.3% | 29.8hPa | 2.6V | 00:00:00 | 00:00:00 | 00:00:00 | |
| SQ9EZE-14 | 2026-09-03 00:31:14 | 48.93338 | 21.02813 | 269° | 7km/h | 24339m | 4.6m/s | -52.0°C | 1.3% | 29.8hPa | 2.6V | 00:00:00 | 00:00:00 | 00:00:00 | |
| HA6NAB-11 | 2026-09-03 00:31:10 | 48.93341 | 21.02832 | 256° | 15km/h | 24318m | 5.7m/s | -51.9°C | 1.3% | 29.9hPa | 2.6V | 00:00:00 | 00:00:00 | 00:00:00 | |
| SQ9EZE-13 | 2026-09-03 00:31:04 | 48.93349 | 21.02856 | 239° | 15km/h | 24289m | 4.4m/s | -51.9°C | 1.3% | 30.0hPa | 2.6V | 00:00:00 | 00:00:00 | 00:00:00 | |
| HA6NAB-11 | 2026-09-03 00:30:58 | 48.93353 | 21.02884 | 261° | 20km/h | 24260m | 5.5m/s | -51.9°C | 1.3% | 30.2hPa | 2.6V | 00:00:00 | 00:00:00 | 00:00:00 | |
| SP9KGR-15 | 2026-09-03 00:30:48 | 48.93361 | 21.02926 | 223° | 7km/h | 24211m | 5.3m/s | -51.9°C | 1.3% | 30.4hPa | 2.6V | 00:00:00 | 00:00:00 | 00:00:00 | |
| SP9KGR-15 | 2026-09-03 00:30:33 | 48.93378 | 21.02970 | 176° | 4km/h | 24133m | 5.4m/s | -51.9°C | 1.3% | 30.8hPa | 2.6V | 00:00:00 | 00:00:00 | 00:00:00 | |
| SQ9EZE-13 | 2026-09-03 00:30:31 | 48.93380 | 21.02970 | 194° | 5km/h | 24124m | 4.7m/s | -51.9°C | 1.3% | 30.8hPa | 2.6V | 00:00:00 | 00:00:00 | 00:00:00 | |
| SP9KGR-15 | 2026-09-03 00:30:18 | 48.93398 | 21.02979 | 112° | 13km/h | 24058m | 4.8m/s | -51.8°C | 1.2% | 31.1hPa | 2.6V | 00:00:00 | 00:00:00 | 00:00:00 | |
| GYPAP8-17 | 2026-09-03 00:30:17 | 48.93399 | 21.02975 | 123° | 11km/h | 24054m | 4.4m/s | -51.9°C | 1.2% | 31.2hPa | 2.6V | 00:00:00 | 00:00:00 | 00:00:00 | |
| SQ9EZE-13 | 2026-09-03 00:30:16 | 48.93401 | 21.02972 | 144° | 9km/h | 24048m | 5.7m/s | -51.9°C | 1.2% | 31.2hPa | 2.6V | 00:00:00 | 00:00:00 | 00:00:00 | |
| SQ9EZE-13 | 2026-09-03 00:29:59 | 48.93407 | 21.02933 | 80° | 9km/h | 23964m | 4.3m/s | -52.6°C | 1.3% | 31.6hPa | 2.6V | 00:00:00 | 00:00:00 | 00:00:00 | |
| SP9KGR-15 | 2026-09-03 00:29:58 | 48.93407 | 21.02930 | 63° | 11km/h | 23959m | 5.9m/s | -52.6°C | 1.3% | 31.6hPa | 2.6V | 00:00:00 | 00:00:00 | 00:00:00 | |
| SQ9EZE-13 | 2026-09-03 00:29:43 | 48.93402 | 21.02884 | 54° | 9km/h | 23884m | 5.6m/s | -52.9°C | 1.4% | 32.0hPa | 2.6V | 00:00:00 | 00:00:00 | 00:00:00 | |
| SP9KGR-15 | 2026-09-03 00:29:42 | 48.93400 | 21.02881 | 40° | 15km/h | 23879m | 5.0m/s | -52.9°C | 1.4% | 32.0hPa | 2.6V | 00:00:00 | 00:00:00 | 00:00:00 | |
| SP9KGR-15 | 2026-09-03 00:29:27 | 48.93362 | 21.02837 | 29° | 16km/h | 23804m | 6.1m/s | -52.6°C | 1.3% | 32.4hPa | 2.6V | 00:00:00 | 00:00:00 | 00:00:00 | |
| GYPAP8-17 | 2026-09-03 00:29:15 | 48.93335 | 21.02830 | 360° | 4km/h | 23742m | 4.5m/s | -52.7°C | 1.3% | 32.7hPa | 2.6V | 00:00:00 | 00:00:00 | 00:00:00 | |
| SQ9EZE-14 | 2026-09-03 00:29:14 | 48.93333 | 21.02830 | 4° | 7km/h | 23737m | 5.9m/s | -52.7°C | 1.3% | 32.7hPa | 2.6V | 00:00:00 | 00:00:00 | 00:00:00 | |
| SP9KGR-15 | 2026-09-03 00:29:12 | 48.93328 | 21.02830 | 360° | 13km/h | 23726m | 4.1m/s | -52.7°C | 1.3% | 32.8hPa | 2.6V | 00:00:00 | 00:00:00 | 00:00:00 | |
| SQ9EZE-13 | 2026-09-03 00:29:11 | 48.93325 | 21.02830 | 3° | 11km/h | 23722m | 4.0m/s | -52.7°C | 1.3% | 32.8hPa | 2.6V | 00:00:00 | 00:00:00 | 00:00:00 | |
| SQ9EZE-14 | 2026-09-03 00:28:59 | 48.93323 | 21.02826 | 291° | 4km/h | 23662m | 6.0m/s | -53.0°C | 1.3% | 33.1hPa | 2.6V | 00:00:00 | 00:00:00 | 00:00:00 | |
| SP9KGR-15 | 2026-09-03 00:28:56 | 48.93322 | 21.02834 | 259° | 11km/h | 23647m | 6.0m/s | -53.0°C | 1.3% | 33.2hPa | 2.6V | 00:00:00 | 00:00:00 | 00:00:00 | |
| SQ9EZE-13 | 2026-09-03 00:28:55 | 48.93323 | 21.02838 | 245° | 13km/h | 23642m | 5.4m/s | -53.0°C | 1.4% | 33.2hPa | 2.6V | 00:00:00 | 00:00:00 | 00:00:00 | |
| SP9KGR-15 | 2026-09-03 00:28:42 | 48.93345 | 21.02862 | 201° | 11km/h | 23570m | 5.0m/s | -52.8°C | 1.3% | 33.6hPa | 2.6V | 00:00:00 | 00:00:00 | 00:00:00 | |
| SQ9EZE-13 | 2026-09-03 00:28:39 | 48.93351 | 21.02864 | 192° | 9km/h | 23560m | 5.4m/s | -52.7°C | 1.3% | 33.6hPa | 2.6V | 00:00:00 | 00:00:00 | 00:00:00 | |
| SP9KGR-15 | 2026-09-03 00:28:25 | 48.93364 | 21.02879 | 82° | 2km/h | 23491m | 6.0m/s | -52.7°C | 1.3% | 34.0hPa | 2.6V | 00:00:00 | 00:00:00 | 00:00:00 | |
| SQ9EZE-13 | 2026-09-03 00:28:23 | 48.93362 | 21.02874 | 66° | 11km/h | 23479m | 5.1m/s | -52.7°C | 1.3% | 34.1hPa | 2.6V | 00:00:00 | 00:00:00 | 00:00:00 | |
| SP9KGR-15 | 2026-09-03 00:28:09 | 48.93351 | 21.02849 | 45° | 15km/h | 23410m | 5.1m/s | -52.9°C | 1.4% | 34.4hPa | 2.6V | 00:00:00 | 00:00:00 | 00:00:00 | |
| SQ9EZE-13 | 2026-09-03 00:28:07 | 48.93345 | 21.02840 | 45° | 16km/h | 23401m | 4.7m/s | -52.9°C | 1.4% | 34.5hPa | 2.6V | 00:00:00 | 00:00:00 | 00:00:00 | |
| HA6NAB-11 | 2026-09-03 00:27:59 | 48.93328 | 21.02815 | 319° | 5km/h | 23363m | 4.9m/s | -52.9°C | 1.3% | 34.7hPa | 2.6V | 00:00:00 | 00:00:00 | 00:00:00 | |
| SP9KGR-15 | 2026-09-03 00:27:54 | 48.93325 | 21.02810 | 58° | 15km/h | 23339m | 4.8m/s | -52.9°C | 1.4% | 34.8hPa | 2.6V | 00:00:00 | 00:00:00 | 00:00:00 | |
| HA6NAB-11 | 2026-09-03 00:27:53 | 48.93323 | 21.02805 | 47° | 16km/h | 23333m | 5.6m/s | -52.9°C | 1.3% | 34.9hPa | 2.6V | 00:00:00 | 00:00:00 | 00:00:00 | |
| SQ9EZE-13 | 2026-09-03 00:27:51 | 48.93316 | 21.02796 | 38° | 18km/h | 23324m | 4.3m/s | -52.9°C | 1.3% | 34.9hPa | 2.6V | 00:00:00 | 00:00:00 | 00:00:00 | |
| HA6NAB-11 | 2026-09-03 00:27:49 | 48.93308 | 21.02785 | 57° | 11km/h | 23309m | 4.7m/s | -52.8°C | 1.3% | 35.0hPa | 2.6V | 00:00:00 | 00:00:00 | 00:00:00 | |
| HA6NAB-11 | 2026-09-03 00:27:42 | 48.93299 | 21.02775 | 43° | 5km/h | 23280m | 6.2m/s | -52.8°C | 1.3% | 35.2hPa | 2.6V | 00:00:00 | 00:00:00 | 00:00:00 | |
| SP9KGR-15 | 2026-09-03 00:27:38 | 48.93297 | 21.02769 | 43° | 2km/h | 23258m | 5.3m/s | -52.8°C | 1.3% | 35.3hPa | 2.6V | 00:00:00 | 00:00:00 | 00:00:00 | |
| HA6NAB-11 | 2026-09-03 00:27:37 | 48.93297 | 21.02769 | 29° | 2km/h | 23253m | 4.5m/s | -52.8°C | 1.3% | 35.3hPa | 2.6V | 00:00:00 | 00:00:00 | 00:00:00 | |
| SQ9EZE-13 | 2026-09-03 00:27:35 | 48.93296 | 21.02767 | 120° | 4km/h | 23243m | 5.8m/s | -52.8°C | 1.3% | 35.3hPa | 2.6V | 00:00:00 | 00:00:00 | 00:00:00 | |
| HA6NAB-11 | 2026-09-03 00:27:31 | 48.93297 | 21.02765 | 339° | 4km/h | 23223m | 5.8m/s | -52.8°C | 1.3% | 35.4hPa | 2.6V | 00:00:00 | 00:00:00 | 00:00:00 | |
| SP9KGR-15 | 2026-09-03 00:27:22 | 48.93304 | 21.02777 | 188° | 11km/h | 23178m | 5.9m/s | -52.9°C | 1.4% | 35.7hPa | 2.6V | 00:00:00 | 00:00:00 | 00:00:00 | |
| SQ9EZE-13 | 2026-09-03 00:27:19 | 48.93313 | 21.02774 | 167° | 9km/h | 23162m | 5.4m/s | -52.8°C | 1.3% | 35.8hPa | 2.6V | 00:00:00 | 00:00:00 | 00:00:00 | |
| SP9KGR-15 | 2026-09-03 00:27:07 | 48.93334 | 21.02770 | 132° | 20km/h | 23101m | 4.0m/s | -53.0°C | 1.3% | 36.1hPa | 2.6V | 00:00:00 | 00:00:00 | 00:00:00 | |
| SQ9EZE-13 | 2026-09-03 00:27:03 | 48.93341 | 21.02755 | 118° | 2km/h | 23080m | 5.0m/s | -53.0°C | 1.3% | 36.3hPa | 2.6V | 00:00:00 | 00:00:00 | 00:00:00 | |
| SQ9EZE-14 | 2026-09-03 00:27:00 | 48.93342 | 21.02758 | 225° | 7km/h | 23065m | 4.5m/s | -53.1°C | 1.3% | 36.3hPa | 2.6V | 00:00:00 | 00:00:00 | 00:00:00 | |
| SP9KGR-15 | 2026-09-03 00:26:51 | 48.93358 | 21.02745 | 117° | 18km/h | 23022m | 4.6m/s | -53.1°C | 1.4% | 36.6hPa | 2.6V | 00:00:00 | 00:00:00 | 00:00:00 | |
| SQ9EZE-13 | 2026-09-03 00:26:47 | 48.93360 | 21.02728 | 94° | 4km/h | 23003m | 4.7m/s | -53.1°C | 1.3% | 36.7hPa | 2.6V | 00:00:00 | 00:00:00 | 00:00:00 | |
| SQ9EZE-14 | 2026-09-03 00:26:44 | 48.93363 | 21.02727 | 181° | 7km/h | 22989m | 4.3m/s | -53.2°C | 1.3% | 36.7hPa | 2.6V | 00:00:00 | 00:00:00 | 00:00:00 | |
| GYPAP8-17 | 2026-09-03 00:26:42 | 48.93369 | 21.02724 | 141° | 9km/h | 22974m | 4.3m/s | -53.2°C | 1.4% | 36.8hPa | 2.6V | 00:00:00 | 00:00:00 | 00:00:00 | |
| SP9KGR-15 | 2026-09-03 00:26:33 | 48.93382 | 21.02700 | 181° | 7km/h | 22934m | 5.6m/s | -53.1°C | 1.4% | 37.1hPa | 2.6V | 00:00:00 | 00:00:00 | 00:00:00 | |
| SQ9EZE-13 | 2026-09-03 00:26:30 | 48.93389 | 21.02703 | 196° | 9km/h | 22919m | 5.8m/s | -53.1°C | 1.4% | 37.2hPa | 2.6V | 00:00:00 | 00:00:00 | 00:00:00 | |
| HA6NAB-11 | 2026-09-03 00:26:19 | 48.93407 | 21.02681 | 0° | 0km/h | 22865m | 5.5m/s | -53.0°C | 1.3% | 37.5hPa | 2.6V | 00:00:00 | 00:00:00 | 00:00:00 | |
| SP9KGR-15 | 2026-09-03 00:26:17 | 48.93407 | 21.02681 | 168° | 4km/h | 22856m | 3.5m/s | -53.0°C | 1.4% | 37.6hPa | 2.6V | 00:00:00 | 00:00:00 | 00:00:00 | |
| SQ9EZE-13 | 2026-09-03 00:26:16 | 48.93410 | 21.02678 | 137° | 7km/h | 22846m | 5.2m/s | -53.0°C | 1.3% | 37.6hPa | 2.6V | 00:00:00 | 00:00:00 | 00:00:00 | |
| HA6NAB-11 | 2026-09-03 00:26:13 | 48.93413 | 21.02674 | 144° | 11km/h | 22837m | 5.4m/s | -53.0°C | 1.3% | 37.7hPa | 2.6V | 00:00:00 | 00:00:00 | 00:00:00 | |
| HA6NAB-11 | 2026-09-03 00:26:07 | 48.93417 | 21.02656 | 51° | 13km/h | 22808m | 4.4m/s | -53.0°C | 1.4% | 37.8hPa | 2.6V | 00:00:00 | 00:00:00 | 00:00:00 | |
| HA6NAB-11 | 2026-09-03 00:26:02 | 48.93412 | 21.02645 | 85° | 7km/h | 22785m | 5.3m/s | -53.0°C | 1.4% | 38.0hPa | 2.6V | 00:00:00 | 00:00:00 | 00:00:00 | |
| SQ9EZE-13 | 2026-09-03 00:25:59 | 48.93412 | 21.02633 | 98° | 13km/h | 22771m | 4.3m/s | -53.0°C | 1.4% | 38.0hPa | 2.6V | 00:00:00 | 00:00:00 | 00:00:00 | |
| HA6NAB-11 | 2026-09-03 00:25:57 | 48.93414 | 21.02623 | 110° | 15km/h | 22761m | 4.3m/s | -52.9°C | 1.4% | 38.1hPa | 2.6V | 00:00:00 | 00:00:00 | 00:00:00 | |
| HA6NAB-11 | 2026-09-03 00:25:51 | 48.93414 | 21.02580 | 90° | 16km/h | 22732m | 5.1m/s | -52.9°C | 1.4% | 38.3hPa | 2.6V | 00:00:00 | 00:00:00 | 00:00:00 | |
| SP9KGR-15 | 2026-09-03 00:25:47 | 48.93414 | 21.02556 | 83° | 16km/h | 22713m | 4.8m/s | -52.9°C | 1.4% | 38.4hPa | 2.6V | 00:00:00 | 00:00:00 | 00:00:00 | |
| SQ9EZE-13 | 2026-09-03 00:25:43 | 48.93413 | 21.02534 | 94° | 15km/h | 22694m | 3.7m/s | -52.8°C | 1.4% | 38.5hPa | 2.6V | 00:00:00 | 00:00:00 | 00:00:00 | |
| GYPAP8-17 | 2026-09-03 00:25:41 | 48.93412 | 21.02514 | 83° | 20km/h | 22679m | 4.7m/s | -52.8°C | 1.4% | 38.6hPa | 2.6V | 00:00:00 | 00:00:00 | 00:00:00 | |
| SP9KGR-15 | 2026-09-03 00:25:32 | 48.93404 | 21.02467 | 71° | 16km/h | 22642m | 4.4m/s | -52.5°C | 1.3% | 38.8hPa | 2.6V | 00:00:00 | 00:00:00 | 00:00:00 | |
| SQ9EZE-13 | 2026-09-03 00:25:27 | 48.93401 | 21.02441 | 70° | 15km/h | 22617m | 4.9m/s | -52.4°C | 1.3% | 39.0hPa | 2.6V | 00:00:00 | 00:00:00 | 00:00:00 | |
| SP9KGR-15 | 2026-09-03 00:25:16 | 48.93384 | 21.02384 | 83° | 11km/h | 22565m | 4.1m/s | -52.6°C | 1.3% | 39.3hPa | 2.6V | 00:00:00 | 00:00:00 | 00:00:00 | |
| SQ9EZE-13 | 2026-09-03 00:25:12 | 48.93380 | 21.02370 | 39° | 11km/h | 22546m | 4.5m/s | -52.5°C | 1.3% | 39.4hPa | 2.6V | 00:00:00 | 00:00:00 | 00:00:00 | |
| SP9KGR-15 | 2026-09-03 00:25:00 | 48.93345 | 21.02320 | 40° | 16km/h | 22489m | 5.1m/s | -52.6°C | 1.3% | 39.7hPa | 2.6V | 00:00:00 | 00:00:00 | 00:00:00 | |
| SQ9EZE-13 | 2026-09-03 00:24:55 | 48.93327 | 21.02300 | 38° | 16km/h | 22465m | 4.4m/s | -52.8°C | 1.3% | 39.9hPa | 2.6V | 00:00:00 | 00:00:00 | 00:00:00 | |
| SP9KGR-15 | 2026-09-03 00:24:44 | 48.93292 | 21.02255 | 37° | 20km/h | 22414m | 4.4m/s | -53.6°C | 1.4% | 40.2hPa | 2.6V | 00:00:00 | 00:00:00 | 00:00:00 | |
| SQ9EZE-13 | 2026-09-03 00:24:39 | 48.93271 | 21.02240 | 12° | 16km/h | 22391m | 4.3m/s | -53.8°C | 1.4% | 40.3hPa | 2.6V | 00:00:00 | 00:00:00 | 00:00:00 | |
| HA6NAB-11 | 2026-09-03 00:24:31 | 48.93246 | 21.02228 | 13° | 11km/h | 22352m | 4.8m/s | -53.7°C | 1.4% | 40.6hPa | 2.6V | 00:00:00 | 00:00:00 | 00:00:00 | |
| SP9KGR-15 | 2026-09-03 00:24:28 | 48.93238 | 21.02229 | 336° | 9km/h | 22337m | 5.6m/s | -53.6°C | 1.4% | 40.7hPa | 2.6V | 00:00:00 | 00:00:00 | 00:00:00 | |
| HA6NAB-11 | 2026-09-03 00:24:26 | 48.93233 | 21.02234 | 330° | 13km/h | 22328m | 5.0m/s | -53.6°C | 1.4% | 40.7hPa | 2.6V | 00:00:00 | 00:00:00 | 00:00:00 | |
| SQ9EZE-13 | 2026-09-03 00:24:23 | 48.93225 | 21.02240 | 342° | 11km/h | 22312m | 4.9m/s | -53.5°C | 1.4% | 40.9hPa | 2.6V | 00:00:00 | 00:00:00 | 00:00:00 | |
| HA6NAB-11 | 2026-09-03 00:24:21 | 48.93221 | 21.02241 | 24° | 4km/h | 22297m | 4.8m/s | -53.5°C | 1.4% | 40.9hPa | 2.6V | 00:00:00 | 00:00:00 | 00:00:00 | |
| SQ9EZE-14 | 2026-09-03 00:24:19 | 48.93220 | 21.02240 | 19° | 4km/h | 22292m | 5.7m/s | -53.4°C | 1.4% | 41.0hPa | 2.6V | 00:00:00 | 00:00:00 | 00:00:00 | |
| HA6NAB-11 | 2026-09-03 00:24:15 | 48.93217 | 21.02242 | 271° | 5km/h | 22272m | 4.2m/s | -53.3°C | 1.4% | 41.1hPa | 2.6V | 00:00:00 | 00:00:00 | 00:00:00 | |
| SP9KGR-15 | 2026-09-03 00:24:13 | 48.93216 | 21.02247 | 302° | 11km/h | 22264m | 5.7m/s | -53.2°C | 1.4% | 41.1hPa | 2.6V | 00:00:00 | 00:00:00 | 00:00:00 | |
| HA6NAB-11 | 2026-09-03 00:24:09 | 48.93207 | 21.02264 | 303° | 11km/h | 22243m | 5.4m/s | -53.1°C | 1.4% | 41.3hPa | 2.6V | 00:00:00 | 00:00:00 | 00:00:00 | |
| SQ9EZE-13 | 2026-09-03 00:24:07 | 48.93206 | 21.02269 | 262° | 4km/h | 22234m | 3.9m/s | -53.1°C | 1.4% | 41.3hPa | 2.6V | 00:00:00 | 00:00:00 | 00:00:00 | |
| SQ9EZE-14 | 2026-09-03 00:24:03 | 48.93208 | 21.02269 | 181° | 4km/h | 22215m | 4.5m/s | -52.9°C | 1.3% | 41.5hPa | 2.6V | 00:00:00 | 00:00:00 | 00:00:00 | |
| SP9KGR-15 | 2026-09-03 00:23:56 | 48.93213 | 21.02298 | 288° | 18km/h | 22181m | 4.1m/s | -52.9°C | 1.3% | 41.7hPa | 2.6V | 00:00:00 | 00:00:00 | 00:00:00 | |
| SQ9EZE-13 | 2026-09-03 00:23:52 | 48.93217 | 21.02324 | 211° | 13km/h | 22156m | 5.5m/s | -52.9°C | 1.4% | 41.9hPa | 2.6V | 00:00:00 | 00:00:00 | 00:00:00 | |
| SP9KGR-15 | 2026-09-03 00:23:41 | 48.93243 | 21.02347 | 253° | 18km/h | 22103m | 4.9m/s | -53.0°C | 1.3% | 42.2hPa | 2.6V | 00:00:00 | 00:00:00 | 00:00:00 | |
| SQ9EZE-13 | 2026-09-03 00:23:35 | 48.93259 | 21.02371 | 185° | 18km/h | 22078m | 4.7m/s | -53.1°C | 1.3% | 42.4hPa | 2.6V | 00:00:00 | 00:00:00 | 00:00:00 | |
| SP9KGR-15 | 2026-09-03 00:23:26 | 48.93301 | 21.02372 | 228° | 16km/h | 22029m | 4.5m/s | -53.2°C | 1.4% | 42.7hPa | 2.6V | 00:00:00 | 00:00:00 | 00:00:00 | |
| GYPAP8-17 | 2026-09-03 00:23:22 | 48.93308 | 21.02384 | 214° | 13km/h | 22014m | 4.8m/s | -53.1°C | 1.4% | 42.8hPa | 2.6V | 00:00:00 | 00:00:00 | 00:00:00 | |
| SQ9EZE-13 | 2026-09-03 00:23:19 | 48.93320 | 21.02387 | 179° | 20km/h | 22000m | 4.8m/s | -53.2°C | 1.3% | 42.9hPa | 2.6V | 00:00:00 | 00:00:00 | 00:00:00 | |
| SP9KGR-15 | 2026-09-03 00:23:09 | 48.93360 | 21.02386 | 209° | 13km/h | 21954m | 4.9m/s | -53.5°C | 1.4% | 43.2hPa | 2.6V | 00:00:00 | 00:00:00 | 00:00:00 | |
| SQ9EZE-13 | 2026-09-03 00:23:03 | 48.93375 | 21.02385 | 190° | 13km/h | 21925m | 4.4m/s | -53.5°C | 1.4% | 43.4hPa | 2.6V | 00:00:00 | 00:00:00 | 00:00:00 | |
| HA6NAB-11 | 2026-09-03 00:22:58 | 48.93386 | 21.02388 | 191° | 9km/h | 21901m | 4.8m/s | -53.5°C | 1.4% | 43.5hPa | 2.6V | 00:00:00 | 00:00:00 | 00:00:00 | |
| SP9KGR-15 | 2026-09-03 00:22:54 | 48.93397 | 21.02391 | 174° | 11km/h | 21882m | 4.9m/s | -53.5°C | 1.4% | 43.7hPa | 2.6V | 00:00:00 | 00:00:00 | 00:00:00 | |
| HA6NAB-11 | 2026-09-03 00:22:53 | 48.93403 | 21.02387 | 142° | 15km/h | 21872m | 4.3m/s | -53.5°C | 1.4% | 43.7hPa | 2.6V | 00:00:00 | 00:00:00 | 00:00:00 | |
| HA6NAB-11 | 2026-09-03 00:22:48 | 48.93425 | 21.02368 | 153° | 20km/h | 21848m | 5.0m/s | -53.7°C | 1.4% | 43.9hPa | 2.6V | 00:00:00 | 00:00:00 | 00:00:00 | |
| SQ9EZE-13 | 2026-09-03 00:22:47 | 48.93425 | 21.02368 | 153° | 20km/h | 21848m | 5.0m/s | -53.7°C | 1.4% | 43.9hPa | 2.6V | 00:00:00 | 00:00:00 | 00:00:00 | |
| HA6NAB-11 | 2026-09-03 00:22:42 | 48.93442 | 21.02345 | 140° | 16km/h | 21823m | 5.0m/s | -53.6°C | 1.4% | 44.1hPa | 2.6V | 00:00:00 | 00:00:00 | 00:00:00 | |
| SP9KGR-15 | 2026-09-03 00:22:38 | 48.93451 | 21.02329 | 119° | 13km/h | 21803m | 4.3m/s | -53.5°C | 1.4% | 44.2hPa | 2.6V | 00:00:00 | 00:00:00 | 00:00:00 | |
| HA6NAB-11 | 2026-09-03 00:22:36 | 48.93455 | 21.02320 | 130° | 15km/h | 21793m | 4.9m/s | -53.4°C | 1.4% | 44.3hPa | 2.6V | 00:00:00 | 00:00:00 | 00:00:00 | |
| HA6NAB-11 | 2026-09-03 00:22:31 | 48.93464 | 21.02281 | 103° | 18km/h | 21764m | 5.5m/s | -53.2°C | 1.4% | 44.5hPa | 2.6V | 00:00:00 | 00:00:00 | 00:00:00 | |
| GYPAP8-17 | 2026-09-03 00:22:28 | 48.93465 | 21.02269 | 100° | 15km/h | 21755m | 4.1m/s | -53.1°C | 1.4% | 44.5hPa | 2.6V | 00:00:00 | 00:00:00 | 00:00:00 | |
| SP9KGR-15 | 2026-09-03 00:22:24 | 48.93467 | 21.02241 | 115° | 15km/h | 21732m | 5.7m/s | -53.0°C | 1.4% | 44.7hPa | 2.6V | 00:00:00 | 00:00:00 | 00:00:00 | |
| SQ9EZE-13 | 2026-09-03 00:22:15 | 48.93475 | 21.02206 | 108° | 13km/h | 21694m | 4.6m/s | -52.8°C | 1.4% | 45.0hPa | 2.6V | 00:00:00 | 00:00:00 | 00:00:00 | |
| SP9KGR-15 | 2026-09-03 00:22:08 | 48.93476 | 21.02175 | 113° | 11km/h | 21662m | 4.3m/s | -52.7°C | 1.3% | 45.2hPa | 2.6V | 00:00:00 | 00:00:00 | 00:00:00 | |
| SQ9EZE-13 | 2026-09-03 00:21:59 | 48.93477 | 21.02139 | 73° | 11km/h | 21621m | 5.5m/s | -52.7°C | 1.3% | 45.5hPa | 2.6V | 00:00:00 | 00:00:00 | 00:00:00 | |
| SQ9EZE-14 | 2026-09-03 00:21:58 | 48.93476 | 21.02135 | 63° | 15km/h | 21616m | 5.2m/s | -52.8°C | 1.3% | 45.5hPa | 2.6V | 00:00:00 | 00:00:00 | 00:00:00 | |
| SP9KGR-15 | 2026-09-03 00:21:52 | 48.93467 | 21.02108 | 49° | 11km/h | 21587m | 5.6m/s | -53.1°C | 1.3% | 45.7hPa | 2.6V | 00:00:00 | 00:00:00 | 00:00:00 | |
| SQ9EZE-13 | 2026-09-03 00:21:45 | 48.93453 | 21.02074 | 56° | 24km/h | 21549m | 5.2m/s | -54.0°C | 1.4% | 46.0hPa | 2.6V | 00:00:00 | 00:00:00 | 00:00:00 | |
| SQ9EZE-14 | 2026-09-03 00:21:42 | 48.93444 | 21.02060 | 43° | 27km/h | 21540m | 4.0m/s | -54.0°C | 1.5% | 46.0hPa | 2.6V | 00:00:00 | 00:00:00 | 00:00:00 | |
| SP9KGR-15 | 2026-09-03 00:21:36 | 48.93414 | 21.02044 | 351° | 24km/h | 21512m | 4.6m/s | -54.1°C | 1.5% | 46.2hPa | 2.6V | 00:00:00 | 00:00:00 | 00:00:00 | |
| SQ9EZE-13 | 2026-09-03 00:21:28 | 48.93372 | 21.02034 | 20° | 24km/h | 21475m | 3.6m/s | -54.0°C | 1.5% | 46.5hPa | 2.6V | 00:00:00 | 00:00:00 | 00:00:00 | |
| SP9KGR-15 | 2026-09-03 00:21:21 | 48.93344 | 21.02022 | 9° | 13km/h | 21439m | 4.6m/s | -53.7°C | 1.4% | 46.8hPa | 2.6V | 00:00:00 | 00:00:00 | 00:00:00 | |
| GYPAP8-17 | 2026-09-03 00:21:19 | 48.93341 | 21.02021 | 13° | 13km/h | 21434m | 5.0m/s | -53.6°C | 1.5% | 46.8hPa | 2.6V | 00:00:00 | 00:00:00 | 00:00:00 | |
| HA6NAB-11 | 2026-09-03 00:21:14 | 48.93321 | 21.02020 | 357° | 20km/h | 21410m | 3.7m/s | -53.4°C | 1.4% | 47.0hPa | 2.6V | 00:00:00 | 00:00:00 | 00:00:00 | |
| SQ9EZE-13 | 2026-09-03 00:21:13 | 48.93312 | 21.02019 | 10° | 18km/h | 21401m | 4.9m/s | -53.4°C | 1.4% | 47.1hPa | 2.6V | 00:00:00 | 00:00:00 | 00:00:00 | |
| HA6NAB-11 | 2026-09-03 00:21:08 | 48.93296 | 21.02015 | 9° | 15km/h | 21383m | 4.2m/s | -53.2°C | 1.4% | 47.2hPa | 2.6V | 00:00:00 | 00:00:00 | 00:00:00 | |
| SP9KGR-15 | 2026-09-03 00:21:06 | 48.93288 | 21.02012 | 18° | 7km/h | 21368m | 4.1m/s | -53.2°C | 1.4% | 47.3hPa | 2.6V | 00:00:00 | 00:00:00 | 00:00:00 | |
| HA6NAB-11 | 2026-09-03 00:21:02 | 48.93280 | 21.02013 | 344° | 15km/h | 21355m | 3.5m/s | -53.1°C | 1.4% | 47.4hPa | 2.6V | 00:00:00 | 00:00:00 | 00:00:00 | |
| HA6NAB-11 | 2026-09-03 00:20:56 | 48.93257 | 21.02010 | 8° | 16km/h | 21327m | 5.2m/s | -52.9°C | 1.4% | 47.6hPa | 2.6V | 00:00:00 | 00:00:00 | 00:00:00 | |
| HA6NAB-11 | 2026-09-03 00:20:51 | 48.93236 | 21.02014 | 360° | 11km/h | 21303m | 5.0m/s | -52.7°C | 1.4% | 47.8hPa | 2.6V | 00:00:00 | 00:00:00 | 00:00:00 | |
| SP9KGR-15 | 2026-09-03 00:20:49 | 48.93232 | 21.02012 | 30° | 9km/h | 21293m | 4.4m/s | -52.6°C | 1.4% | 47.9hPa | 2.6V | 00:00:00 | 00:00:00 | 00:00:00 | |
| HA6NAB-11 | 2026-09-03 00:20:46 | 48.93224 | 21.02012 | 326° | 9km/h | 21274m | 4.6m/s | -52.5°C | 1.4% | 48.0hPa | 2.6V | 00:00:00 | 00:00:00 | 00:00:00 | |
| SQ9EZE-13 | 2026-09-03 00:20:41 | 48.93218 | 21.02015 | 33° | 4km/h | 21255m | 3.7m/s | -52.4°C | 1.4% | 48.2hPa | 2.6V | 00:00:00 | 00:00:00 | 00:00:00 | |
| SP9KGR-15 | 2026-09-03 00:20:33 | 48.93212 | 21.02009 | 19° | 5km/h | 21217m | 5.6m/s | -52.6°C | 1.4% | 48.4hPa | 2.6V | 00:00:00 | 00:00:00 | 00:00:00 | |
| SQ9EZE-13 | 2026-09-03 00:20:25 | 48.93216 | 21.02017 | 210° | 13km/h | 21179m | 4.6m/s | -52.6°C | 1.4% | 48.7hPa | 2.6V | 00:00:00 | 00:00:00 | 00:00:00 | |
| SP9KGR-15 | 2026-09-03 00:20:19 | 48.93226 | 21.02017 | 200° | 7km/h | 21148m | 5.0m/s | -52.6°C | 1.3% | 49.0hPa | 2.6V | 00:00:00 | 00:00:00 | 00:00:00 | |
| GYPAP8-17 | 2026-09-03 00:20:16 | 48.93231 | 21.02021 | 204° | 15km/h | 21138m | 4.7m/s | -52.6°C | 1.4% | 49.0hPa | 2.6V | 00:00:00 | 00:00:00 | 00:00:00 | |
| SQ9EZE-13 | 2026-09-03 00:20:10 | 48.93256 | 21.02027 | 185° | 16km/h | 21110m | 3.7m/s | -52.8°C | 1.4% | 49.2hPa | 2.6V | 00:00:00 | 00:00:00 | 00:00:00 | |
| SP9KGR-15 | 2026-09-03 00:20:02 | 48.93277 | 21.02014 | 177° | 11km/h | 21073m | 5.0m/s | -53.0°C | 1.4% | 49.5hPa | 2.6V | 00:00:00 | 00:00:00 | 00:00:00 | |
| SQ9EZE-13 | 2026-09-03 00:19:55 | 48.93317 | 21.02018 | 176° | 27km/h | 21040m | 5.4m/s | -52.9°C | 1.4% | 49.8hPa | 2.6V | 00:00:00 | 00:00:00 | 00:00:00 | |
| SP9KGR-15 | 2026-09-03 00:19:48 | 48.93350 | 21.01999 | 170° | 13km/h | 21002m | 4.9m/s | -53.0°C | 1.4% | 50.1hPa | 2.6V | 00:00:00 | 00:00:00 | 00:00:00 | |
| SQ9EZE-13 | 2026-09-03 00:19:39 | 48.93401 | 21.01985 | 150° | 27km/h | 20965m | 4.5m/s | -52.9°C | 1.4% | 50.4hPa | 2.6V | 00:00:00 | 00:00:00 | 00:00:00 | |
| SQ9EZE-14 | 2026-09-03 00:19:38 | 48.93407 | 21.01980 | 149° | 26km/h | 20961m | 4.6m/s | -52.9°C | 1.4% | 50.4hPa | 2.6V | 00:00:00 | 00:00:00 | 00:00:00 | |
| HA6NAB-11 | 2026-09-03 00:19:34 | 48.93427 | 21.01964 | 156° | 24km/h | 20943m | 4.9m/s | -52.8°C | 1.4% | 50.5hPa | 2.6V | 00:00:00 | 00:00:00 | 00:00:00 | |
| SP9KGR-15 | 2026-09-03 00:19:31 | 48.93442 | 21.01954 | 159° | 18km/h | 20929m | 5.8m/s | -52.8°C | 1.4% | 50.6hPa | 2.6V | 00:00:00 | 00:00:00 | 00:00:00 | |
| SQ9EZE-13 | 2026-09-03 00:19:24 | 48.93483 | 21.01926 | 161° | 24km/h | 20889m | 4.4m/s | -52.9°C | 1.3% | 50.9hPa | 2.6V | 00:00:00 | 00:00:00 | 00:00:00 | |
| HA6NAB-11 | 2026-09-03 00:19:23 | 48.93483 | 21.01926 | 161° | 24km/h | 20889m | 4.4m/s | -52.9°C | 1.3% | 50.9hPa | 2.6V | 00:00:00 | 00:00:00 | 00:00:00 | |
| SQ9EZE-14 | 2026-09-03 00:19:22 | 48.93489 | 21.01923 | 164° | 24km/h | 20885m | 4.8m/s | -53.0°C | 1.4% | 51.0hPa | 2.6V | 00:00:00 | 00:00:00 | 00:00:00 | |
| HA6NAB-11 | 2026-09-03 00:19:17 | 48.93514 | 21.01908 | 147° | 16km/h | 20861m | 4.0m/s | -53.0°C | 1.4% | 51.2hPa | 2.6V | 00:00:00 | 00:00:00 | 00:00:00 | |
| HA6NAB-11 | 2026-09-03 00:19:13 | 48.93533 | 21.01882 | 134° | 26km/h | 20839m | 4.5m/s | -53.0°C | 1.4% | 51.4hPa | 2.6V | 00:00:00 | 00:00:00 | 00:00:00 | |
| SQ9EZE-13 | 2026-09-03 00:19:07 | 48.93550 | 21.01858 | 158° | 16km/h | 20814m | 5.3m/s | -53.2°C | 1.4% | 51.5hPa | 2.6V | 00:00:00 | 00:00:00 | 00:00:00 | |
| PETON7-10 | 2026-09-03 00:19:06 | 48.93558 | 21.01852 | 157° | 24km/h | 20805m | 4.0m/s | -53.3°C | 4.2% | 51.6hPa | 2.6V | 00:00:00 | 01:29:15 | 00:00:00 | |
| SP9KGR-15 | 2026-09-03 00:19:01 | 48.93571 | 21.01836 | 128° | 15km/h | 20787m | 3.9m/s | -53.5°C | 1.4% | 51.8hPa | 2.6V | 00:00:00 | 00:00:00 | 00:00:00 | |
| SQ9EZE-13 | 2026-09-03 00:18:52 | 48.93603 | 21.01799 | 161° | 13km/h | 20739m | 5.6m/s | -53.3°C | 1.4% | 52.1hPa | 2.6V | 00:00:00 | 00:00:00 | 00:00:00 | |
| SP9KGR-15 | 2026-09-03 00:18:45 | 48.93617 | 21.01777 | 111° | 20km/h | 20710m | 5.2m/s | -53.5°C | 1.4% | 52.4hPa | 2.6V | 00:00:00 | 00:00:00 | 00:00:00 | |
| SQ9EZE-13 | 2026-09-03 00:18:36 | 48.93652 | 21.01723 | 156° | 18km/h | 20660m | 4.5m/s | -53.7°C | 1.4% | 52.8hPa | 2.6V | 00:00:00 | 00:00:00 | 00:00:00 | |
| SP9KGR-15 | 2026-09-03 00:18:30 | 48.93672 | 21.01696 | 126° | 22km/h | 20631m | 4.0m/s | -53.7°C | 1.5% | 53.0hPa | 2.6V | 00:00:00 | 00:00:00 | 00:00:00 | |
| SQ9EZE-13 | 2026-09-03 00:18:20 | 48.93703 | 21.01642 | 135° | 16km/h | 20584m | 4.7m/s | -53.4°C | 1.4% | 53.4hPa | 2.6V | 00:00:00 | 00:00:00 | 00:00:00 | |
| SP9KGR-15 | 2026-09-03 00:18:14 | 48.93719 | 21.01612 | 128° | 22km/h | 20562m | 4.6m/s | -53.3°C | 1.4% | 53.6hPa | 2.6V | 00:00:00 | 00:00:00 | 00:00:00 | |
| GYPAP8-17 | 2026-09-03 00:18:11 | 48.93727 | 21.01592 | 119° | 20km/h | 20548m | 3.7m/s | -53.3°C | 1.4% | 53.7hPa | 2.6V | 00:00:00 | 00:00:00 | 00:00:00 | |
| SQ9EZE-13 | 2026-09-03 00:18:03 | 48.93754 | 21.01536 | 134° | 24km/h | 20509m | 5.5m/s | -53.4°C | 1.4% | 54.1hPa | 2.6V | 00:00:00 | 00:00:00 | 00:00:00 | |
| SP9KGR-15 | 2026-09-03 00:17:58 | 48.93775 | 21.01501 | 128° | 26km/h | 20486m | 4.7m/s | -53.8°C | 1.4% | 54.3hPa | 2.6V | 00:00:00 | 00:00:00 | 00:00:00 | |
| HA6NAB-11 | 2026-09-03 00:17:47 | 48.93822 | 21.01410 | 146° | 22km/h | 20431m | 5.3m/s | -54.0°C | 1.5% | 54.7hPa | 2.6V | 00:00:00 | 00:00:00 | 00:00:00 | |
| SP9KGR-15 | 2026-09-03 00:17:43 | 48.93841 | 21.01386 | 131° | 29km/h | 20413m | 4.7m/s | -54.1°C | 1.5% | 54.9hPa | 2.6V | 00:00:00 | 00:00:00 | 00:00:00 | |
| HA6NAB-11 | 2026-09-03 00:17:42 | 48.93850 | 21.01367 | 124° | 29km/h | 20404m | 5.5m/s | -54.2°C | 1.5% | 54.9hPa | 2.6V | 00:00:00 | 00:00:00 | 00:00:00 | |
| HA6NAB-11 | 2026-09-03 00:17:36 | 48.93871 | 21.01320 | 130° | 31km/h | 20380m | 4.3m/s | -54.2°C | 1.5% | 55.2hPa | 2.6V | 00:00:00 | 00:00:00 | 00:00:00 | |
| PETON7-10 | 2026-09-03 00:17:34 | 48.93885 | 21.01298 | 136° | 26km/h | 20366m | 4.2m/s | -54.1°C | 4.4% | 55.2hPa | 2.6V | 00:00:00 | 00:00:00 | 08:30:00 | |
| HA6NAB-11 | 2026-09-03 00:17:31 | 48.93897 | 21.01275 | 126° | 27km/h | 20352m | 4.0m/s | -54.1°C | 1.5% | 55.4hPa | 2.7V | 00:00:00 | 00:00:00 | 00:00:00 | |
| SP9KGR-15 | 2026-09-03 00:17:29 | 48.93904 | 21.01258 | 117° | 26km/h | 20343m | 5.6m/s | -54.1°C | 1.4% | 55.5hPa | 2.7V | 00:00:00 | 00:00:00 | 00:00:00 | |
| HA6NAB-11 | 2026-09-03 00:17:26 | 48.93911 | 21.01230 | 111° | 27km/h | 20329m | 4.6m/s | -54.0°C | 1.5% | 55.6hPa | 2.7V | 00:00:00 | 00:00:00 | 00:00:00 | |
| HA6NAB-11 | 2026-09-03 00:17:19 | 48.93933 | 21.01174 | 129° | 27km/h | 20301m | 4.6m/s | -54.0°C | 1.4% | 55.8hPa | 2.7V | 00:00:00 | 00:00:00 | 00:00:00 | |
| SQ9EZE-13 | 2026-09-03 00:17:15 | 48.93946 | 21.01135 | 101° | 29km/h | 20282m | 5.2m/s | -54.1°C | 1.5% | 56.0hPa | 2.7V | 00:00:00 | 00:00:00 | 00:00:00 | |
| SP9KGR-15 | 2026-09-03 00:17:12 | 48.93947 | 21.01099 | 95° | 35km/h | 20268m | 5.2m/s | -54.1°C | 1.5% | 56.1hPa | 2.7V | 00:00:00 | 00:00:00 | 00:00:00 | |
| GYPAP8-17 | 2026-09-03 00:17:09 | 48.93952 | 21.01060 | 108° | 31km/h | 20255m | 5.3m/s | -54.1°C | 1.4% | 56.2hPa | 2.7V | 00:00:00 | 00:00:00 | 00:00:00 | |
| PETON7-10 | 2026-09-03 00:17:05 | 48.93969 | 21.01015 | 119° | 27km/h | 20232m | 4.1m/s | -53.9°C | 4.3% | 56.4hPa | 2.7V | 00:00:00 | 00:00:00 | 00:00:00 | |
| SQ9EZE-13 | 2026-09-03 00:16:58 | 48.93972 | 21.00952 | 87° | 31km/h | 20205m | 4.8m/s | -54.3°C | 1.5% | 56.7hPa | 2.7V | 00:00:00 | 00:00:00 | 00:00:00 | |
| SP9KGR-15 | 2026-09-03 00:16:57 | 48.93972 | 21.00940 | 92° | 29km/h | 20201m | 3.9m/s | -54.3°C | 1.5% | 56.7hPa | 2.7V | 00:00:00 | 00:00:00 | 00:00:00 | |
| PETON7-10 | 2026-09-03 00:16:50 | 48.93986 | 21.00863 | 108° | 22km/h | 20166m | 5.0m/s | -54.0°C | 4.4% | 57.0hPa | 2.7V | 00:00:00 | 01:26:59 | 00:00:00 | |
| SQ9EZE-14 | 2026-09-03 00:16:49 | 48.93986 | 21.00863 | 108° | 24km/h | 20166m | 5.1m/s | -54.1°C | 1.5% | 57.0hPa | 2.7V | 00:00:00 | 00:00:00 | 00:00:00 | |
| SQ9EZE-13 | 2026-09-03 00:16:43 | 48.93984 | 21.00808 | 80° | 27km/h | 20139m | 4.1m/s | -54.0°C | 1.5% | 57.3hPa | 2.7V | 00:00:00 | 00:00:00 | 00:00:00 | |
| SP9KGR-15 | 2026-09-03 00:16:42 | 48.93983 | 21.00798 | 79° | 26km/h | 20135m | 5.0m/s | -54.0°C | 1.5% | 57.3hPa | 2.7V | 00:00:00 | 00:00:00 | 00:00:00 | |
| SQ9EZE-14 | 2026-09-03 00:16:33 | 48.93990 | 21.00719 | 122° | 18km/h | 20095m | 3.9m/s | -53.7°C | 1.5% | 57.7hPa | 2.7V | 00:00:00 | 00:00:00 | 00:00:00 | |
| SP9KGR-15 | 2026-09-03 00:16:27 | 48.94000 | 21.00669 | 99° | 22km/h | 20069m | 5.0m/s | -53.6°C | 1.5% | 57.9hPa | 2.7V | 00:00:00 | 00:00:00 | 00:00:00 | |
| PETON7-10 | 2026-09-03 00:16:21 | 48.94011 | 21.00612 | 124° | 20km/h | 20037m | 4.6m/s | -53.4°C | 4.4% | 58.1hPa | 2.7V | 00:00:00 | 00:00:00 | 00:00:00 | |
| SQ9EZE-13 | 2026-09-03 00:16:11 | 48.94029 | 21.00551 | 93° | 20km/h | 19997m | 5.1m/s | -53.1°C | 1.4% | 58.5hPa | 2.6V | 00:00:00 | 00:00:00 | 00:00:00 | |
| SP9KGR-15 | 2026-09-03 00:16:10 | 48.94029 | 21.00544 | 94° | 22km/h | 19993m | 4.1m/s | -53.1°C | 1.4% | 58.6hPa | 2.6V | 00:00:00 | 00:00:00 | 00:00:00 | |
| HA6NAB-11 | 2026-09-03 00:16:07 | 48.94032 | 21.00522 | 115° | 16km/h | 19980m | 4.4m/s | -53.0°C | 1.4% | 58.7hPa | 2.6V | 00:00:00 | 00:00:00 | 00:00:00 | |
| PETON7-10 | 2026-09-03 00:16:06 | 48.94036 | 21.00511 | 131° | 20km/h | 19971m | 5.2m/s | -52.9°C | 4.2% | 58.7hPa | 2.6V | 00:00:00 | 00:00:00 | 00:00:00 | |
| HA6NAB-11 | 2026-09-03 00:16:01 | 48.94050 | 21.00493 | 141° | 13km/h | 19953m | 3.9m/s | -52.8°C | 1.4% | 58.9hPa | 2.6V | 00:00:00 | 00:00:00 | 00:00:00 | |
| GYPAP8-17 | 2026-09-03 00:15:59 | 48.94053 | 21.00484 | 106° | 15km/h | 19945m | 5.3m/s | -52.8°C | 1.4% | 59.0hPa | 2.6V | 00:00:00 | 00:00:00 | 00:00:00 | |
| SQ9EZE-13 | 2026-09-03 00:15:56 | 48.94053 | 21.00460 | 90° | 15km/h | 19927m | 4.1m/s | -52.9°C | 1.4% | 59.2hPa | 2.6V | 00:00:00 | 00:00:00 | 00:00:00 | |
| HA6NAB-11 | 2026-09-03 00:15:49 | 48.94069 | 21.00428 | 148° | 18km/h | 19901m | 4.9m/s | -52.9°C | 1.4% | 59.4hPa | 2.6V | 00:00:00 | 00:00:00 | 00:00:00 | |
| HA6NAB-11 | 2026-09-03 00:15:43 | 48.94081 | 21.00399 | 101° | 16km/h | 19875m | 5.1m/s | -52.8°C | 1.4% | 59.6hPa | 2.6V | 00:00:00 | 00:00:00 | 00:00:00 | |
| HA6NAB-11 | 2026-09-03 00:15:32 | 48.94107 | 21.00324 | 130° | 22km/h | 19827m | 4.7m/s | -52.8°C | 1.4% | 60.1hPa | 2.6V | 00:00:00 | 00:00:00 | 00:00:00 | |
| HA6NAB-11 | 2026-09-03 00:15:26 | 48.94118 | 21.00287 | 112° | 20km/h | 19799m | 4.0m/s | -53.1°C | 1.4% | 60.4hPa | 2.6V | 00:00:00 | 00:00:00 | 00:00:00 | |
| PETON7-10 | 2026-09-03 00:15:23 | 48.94130 | 21.00261 | 137° | 27km/h | 19781m | 4.5m/s | -53.1°C | 4.2% | 60.5hPa | 2.6V | 00:00:00 | 01:25:32 | 00:00:00 | |
| HA6NAB-11 | 2026-09-03 00:15:20 | 48.94140 | 21.00247 | 140° | 29km/h | 19771m | 4.0m/s | -53.1°C | 1.4% | 60.6hPa | 2.6V | 00:00:00 | 00:00:00 | 00:00:00 | |
| SQ9EZE-13 | 2026-09-03 00:15:07 | 48.94190 | 21.00128 | 122° | 33km/h | 19713m | 4.5m/s | -53.0°C | 1.4% | 61.2hPa | 2.6V | 00:00:00 | 00:00:00 | 00:00:00 | |
| GYPAP8-17 | 2026-09-03 00:14:57 | 48.94220 | 21.00021 | 98° | 31km/h | 19668m | 4.1m/s | -53.1°C | 1.4% | 61.6hPa | 2.6V | 00:00:00 | 00:00:00 | 00:00:00 | |
| PETON7-10 | 2026-09-03 00:14:53 | 48.94229 | 20.99962 | 108° | 29km/h | 19646m | 4.5m/s | -53.1°C | 4.1% | 61.8hPa | 2.6V | 00:00:00 | 00:00:00 | 00:00:00 | |
| SP9KGR-15 | 2026-09-03 00:14:52 | 48.94229 | 20.99962 | 108° | 29km/h | 19646m | 4.6m/s | -53.1°C | 1.4% | 61.8hPa | 2.6V | 00:00:00 | 00:00:00 | 00:00:00 | |
| SQ9EZE-13 | 2026-09-03 00:14:51 | 48.94231 | 20.99952 | 111° | 27km/h | 19642m | 3.8m/s | -53.1°C | 1.4% | 61.9hPa | 2.6V | 00:00:00 | 00:00:00 | 00:00:00 | |
| SP9KGR-15 | 2026-09-03 00:14:38 | 48.94248 | 20.99800 | 103° | 31km/h | 19579m | 5.0m/s | -53.2°C | 1.4% | 62.5hPa | 2.6V | 00:00:00 | 00:00:00 | 00:00:00 | |
| SQ9EZE-13 | 2026-09-03 00:14:36 | 48.94250 | 20.99788 | 105° | 33km/h | 19574m | 3.8m/s | -53.2°C | 1.4% | 62.5hPa | 2.6V | 00:00:00 | 00:00:00 | 00:00:00 | |
| SQ9EZE-14 | 2026-09-03 00:14:32 | 48.94255 | 20.99738 | 92° | 35km/h | 19557m | 4.5m/s | -53.3°C | 1.4% | 62.7hPa | 2.6V | 00:00:00 | 00:00:00 | 00:00:00 | |
| SP9KGR-15 | 2026-09-03 00:14:21 | 48.94264 | 20.99624 | 98° | 22km/h | 19511m | 4.1m/s | -53.4°C | 1.4% | 63.1hPa | 2.6V | 00:00:00 | 00:00:00 | 00:00:00 | |
| SQ9EZE-14 | 2026-09-03 00:14:16 | 48.94262 | 20.99581 | 92° | 22km/h | 19489m | 4.0m/s | -53.3°C | 1.4% | 63.3hPa | 2.6V | 00:00:00 | 00:00:00 | 00:00:00 | |
| PETON7-10 | 2026-09-03 00:14:09 | 48.94282 | 20.99506 | 121° | 31km/h | 19455m | 4.3m/s | -53.2°C | 4.2% | 63.6hPa | 2.6V | 00:00:00 | 01:24:18 | 00:00:00 | |
| SQ9EZE-13 | 2026-09-03 00:14:07 | 48.94288 | 20.99485 | 106° | 29km/h | 19446m | 3.8m/s | -53.5°C | 1.4% | 63.8hPa | 2.6V | 00:00:00 | 00:00:00 | 00:00:00 | |
| PETON7-10 | 2026-09-03 00:13:54 | 48.94322 | 20.99340 | 108° | 40km/h | 19389m | 5.5m/s | -53.3°C | 4.2% | 64.3hPa | 2.6V | 00:00:00 | 00:00:00 | 08:30:00 | |
| GYPAP8-17 | 2026-09-03 00:13:53 | 48.94322 | 20.99340 | 108° | 40km/h | 19389m | 5.6m/s | -53.4°C | 1.4% | 64.3hPa | 2.7V | 00:00:00 | 00:00:00 | 00:00:00 | |
| SP9KGR-15 | 2026-09-03 00:13:51 | 48.94328 | 20.99295 | 102° | 38km/h | 19375m | 5.1m/s | -53.3°C | 1.4% | 64.5hPa | 2.7V | 00:00:00 | 00:00:00 | 00:00:00 | |
| SQ9EZE-13 | 2026-09-03 00:13:50 | 48.94328 | 20.99295 | 102° | 38km/h | 19375m | 5.1m/s | -53.3°C | 1.4% | 64.5hPa | 2.7V | 00:00:00 | 00:00:00 | 00:00:00 | |
| SQ9EZE-13 | 2026-09-03 00:13:35 | 48.94379 | 20.99077 | 105° | 46km/h | 19308m | 3.9m/s | -53.3°C | 1.5% | 65.1hPa | 2.7V | 00:00:00 | 00:00:00 | 00:00:00 | |
| SP9KGR-15 | 2026-09-03 00:13:34 | 48.94381 | 20.99060 | 102° | 46km/h | 19305m | 3.9m/s | -53.3°C | 1.5% | 65.2hPa | 2.7V | 00:00:00 | 00:00:00 | 00:00:00 | |
| PETON7-10 | 2026-09-03 00:13:25 | 48.94412 | 20.98900 | 105° | 47km/h | 19262m | 4.5m/s | -53.1°C | 4.2% | 65.6hPa | 2.7V | 00:00:00 | 00:00:00 | 00:00:00 | |
| SP9KGR-15 | 2026-09-03 00:13:20 | 48.94423 | 20.98799 | 97° | 49km/h | 19241m | 4.5m/s | -53.0°C | 1.4% | 65.8hPa | 2.7V | 00:00:00 | 00:00:00 | 00:00:00 | |
| HA6NAB-11 | 2026-09-03 00:13:19 | 48.94423 | 20.98799 | 97° | 49km/h | 19241m | 4.5m/s | -53.0°C | 1.4% | 65.8hPa | 2.7V | 00:00:00 | 00:00:00 | 00:00:00 | |
| HA6NAB-11 | 2026-09-03 00:13:14 | 48.94436 | 20.98697 | 103° | 38km/h | 19213m | 4.5m/s | -52.8°C | 1.4% | 66.1hPa | 2.7V | 00:00:00 | 00:00:00 | 00:00:00 | |
| PETON7-10 | 2026-09-03 00:13:10 | 48.94444 | 20.98632 | 103° | 49km/h | 19195m | 3.9m/s | 0°C | 0% | 0hPa | 2.7V | 00:00:00 | 01:23:19 | 00:00:00 | |
| HA6NAB-11 | 2026-09-03 00:13:07 | 48.94449 | 20.98593 | 99° | 51km/h | 19187m | 4.7m/s | -52.7°C | 1.4% | 66.3hPa | 2.7V | 00:00:00 | 00:00:00 | 00:00:00 | |
| SP9KGR-15 | 2026-09-03 00:13:03 | 48.94452 | 20.98526 | 94° | 40km/h | 19169m | 4.6m/s | -52.8°C | 1.4% | 66.6hPa | 2.7V | 00:00:00 | 00:00:00 | 00:00:00 | |
| HA6NAB-11 | 2026-09-03 00:13:01 | 48.94454 | 20.98495 | 98° | 40km/h | 19160m | 4.2m/s | -52.9°C | 1.4% | 66.6hPa | 2.7V | 00:00:00 | 00:00:00 | 00:00:00 | |
| HA6NAB-11 | 2026-09-03 00:12:55 | 48.94464 | 20.98403 | 106° | 44km/h | 19133m | 4.9m/s | -53.1°C | 1.4% | 66.9hPa | 2.7V | 00:00:00 | 00:00:00 | 00:00:00 | |
| SP9KGR-15 | 2026-09-03 00:12:48 | 48.94481 | 20.98287 | 98° | 33km/h | 19097m | 3.8m/s | -52.9°C | 1.5% | 67.3hPa | 2.7V | 00:00:00 | 00:00:00 | 00:00:00 | |
| PETON7-10 | 2026-09-03 00:12:41 | 48.94487 | 20.98188 | 98° | 35km/h | 19066m | 4.7m/s | 0°C | 0% | 0hPa | 2.7V | 00:00:00 | 00:00:00 | 00:00:00 | |
| SQ9EZE-13 | 2026-09-03 00:12:31 | 48.94491 | 20.98069 | 88° | 33km/h | 19027m | 3.9m/s | -52.6°C | 1.4% | 68.0hPa | 2.7V | 00:00:00 | 00:00:00 | 00:00:00 | |
| PETON7-10 | 2026-09-03 00:12:26 | 48.94496 | 20.97990 | 100° | 40km/h | 19001m | 4.1m/s | 0°C | 0% | 0hPa | 2.7V | 00:00:00 | 00:00:00 | 00:00:00 | |
| SQ9EZE-13 | 2026-09-03 00:12:14 | 48.94521 | 20.97852 | 116° | 29km/h | 18952m | 4.3m/s | -52.6°C | 1.4% | 68.8hPa | 2.7V | 00:00:00 | 00:00:00 | 00:00:00 | |
| SQ9EZE-14 | 2026-09-03 00:12:13 | 48.94523 | 20.97841 | 112° | 31km/h | 18947m | 5.1m/s | -52.6°C | 1.4% | 68.9hPa | 2.7V | 00:00:00 | 00:00:00 | 00:00:00 | |
| SP9KGR-15 | 2026-09-03 00:12:00 | 48.94555 | 20.97679 | 109° | 38km/h | 18892m | 4.9m/s | -52.9°C | 1.4% | 69.5hPa | 2.7V | 00:00:00 | 00:00:00 | 00:00:00 | |
| SQ9EZE-13 | 2026-09-03 00:11:59 | 48.94558 | 20.97664 | 107° | 42km/h | 18887m | 4.9m/s | -52.9°C | 1.5% | 69.5hPa | 2.7V | 00:00:00 | 00:00:00 | 00:00:00 | |
| SQ9EZE-14 | 2026-09-03 00:11:58 | 48.94560 | 20.97648 | 107° | 46km/h | 18882m | 3.6m/s | -52.9°C | 1.4% | 69.6hPa | 2.7V | 00:00:00 | 00:00:00 | 00:00:00 | |
| PETON7-10 | 2026-09-03 00:11:57 | 48.94568 | 20.97615 | 112° | 44km/h | 18874m | 5.0m/s | 0°C | 0% | 0hPa | 2.7V | 00:00:00 | 01:22:06 | 00:00:00 | |
| SP9KGR-15 | 2026-09-03 00:11:45 | 48.94600 | 20.97455 | 112° | 53km/h | 18825m | 4.4m/s | -52.9°C | 1.4% | 70.2hPa | 2.7V | 00:00:00 | 00:00:00 | 00:00:00 | |
| PETON7-10 | 2026-09-03 00:11:42 | 48.94625 | 20.97379 | 117° | 47km/h | 18807m | 4.5m/s | 0°C | 0% | 0hPa | 2.7V | 00:00:00 | 00:00:00 | 00:00:00 | |
| SP9KGR-15 | 2026-09-03 00:11:30 | 48.94658 | 20.97197 | 111° | 46km/h | 18759m | 3.9m/s | -53.2°C | 1.5% | 70.9hPa | 2.7V | 00:00:00 | 00:00:00 | 00:00:00 | |
| SQ9EZE-13 | 2026-09-03 00:11:27 | 48.94670 | 20.97143 | 108° | 53km/h | 18745m | 4.0m/s | -53.2°C | 1.5% | 71.1hPa | 2.7V | 00:00:00 | 00:00:00 | 00:00:00 | |
| SP9KGR-15 | 2026-09-03 00:11:14 | 48.94708 | 20.96908 | 106° | 47km/h | 18687m | 4.0m/s | -53.2°C | 1.4% | 71.7hPa | 2.7V | 00:00:00 | 00:00:00 | 00:00:00 | |
| PETON7-10 | 2026-09-03 00:11:13 | 48.94713 | 20.96875 | 104° | 46km/h | 18678m | 4.2m/s | 0°C | 0% | 0hPa | 2.7V | 00:00:00 | 00:00:00 | 00:00:00 | |
| SQ9EZE-13 | 2026-09-03 00:11:12 | 48.94714 | 20.96875 | 104° | 44km/h | 18678m | 4.2m/s | -53.3°C | 1.4% | 71.8hPa | 2.7V | 00:00:00 | 00:00:00 | 00:00:00 | |
| GYPAP8-17 | 2026-09-03 00:11:11 | 48.94716 | 20.96859 | 101° | 42km/h | 18674m | 3.9m/s | -53.3°C | 1.5% | 71.9hPa | 2.7V | 00:00:00 | 00:00:00 | 00:00:00 | |
| SP9KGR-15 | 2026-09-03 00:10:59 | 48.94732 | 20.96653 | 101° | 44km/h | 18618m | 4.1m/s | -53.1°C | 1.5% | 72.5hPa | 2.7V | 00:00:00 | 00:00:00 | 00:00:00 | |
| PETON7-10 | 2026-09-03 00:10:58 | 48.94735 | 20.96618 | 96° | 40km/h | 18609m | 4.7m/s | 0°C | 0% | 0hPa | 2.7V | 00:00:00 | 01:21:07 | 00:00:00 | |
| SQ9EZE-13 | 2026-09-03 00:10:56 | 48.94736 | 20.96600 | 94° | 47km/h | 18604m | 4.2m/s | -53.1°C | 1.4% | 72.6hPa | 2.7V | 00:00:00 | 00:00:00 | 00:00:00 | |
| SP9KGR-15 | 2026-09-03 00:10:43 | 48.94744 | 20.96375 | 91° | 40km/h | 18546m | 4.4m/s | -53.3°C | 1.4% | 73.3hPa | 2.7V | 00:00:00 | 00:00:00 | 00:00:00 | |
| SQ9EZE-13 | 2026-09-03 00:10:39 | 48.94744 | 20.96315 | 93° | 42km/h | 18527m | 5.1m/s | -53.4°C | 1.5% | 73.5hPa | 2.7V | 00:00:00 | 00:00:00 | 00:00:00 | |
| SP9KGR-15 | 2026-09-03 00:10:28 | 48.94755 | 20.96146 | 101° | 38km/h | 18475m | 5.6m/s | -53.6°C | 1.5% | 74.1hPa | 2.7V | 00:00:00 | 00:00:00 | 00:00:00 | |
| SQ9EZE-13 | 2026-09-03 00:10:23 | 48.94764 | 20.96073 | 102° | 37km/h | 18450m | 4.3m/s | -53.8°C | 1.5% | 74.4hPa | 2.7V | 00:00:00 | 00:00:00 | 00:00:00 | |
| PETON7-10 | 2026-09-03 00:10:18 | 48.94770 | 20.95982 | 90° | 42km/h | 18422m | 4.8m/s | 0°C | 0% | 0hPa | 2.7V | 00:00:00 | 00:00:00 | 08:30:00 | |
| SP9KGR-15 | 2026-09-03 00:10:12 | 48.94769 | 20.95901 | 87° | 40km/h | 18398m | 5.4m/s | -53.7°C | 1.5% | 75.0hPa | 2.7V | 00:00:00 | 00:00:00 | 00:00:00 | |
| SQ9EZE-13 | 2026-09-03 00:10:07 | 48.94767 | 20.95826 | 89° | 42km/h | 18375m | 4.6m/s | -53.6°C | 1.5% | 75.3hPa | 2.7V | 00:00:00 | 00:00:00 | 00:00:00 | |
| SP9KGR-15 | 2026-09-03 00:09:56 | 48.94744 | 20.95655 | 84° | 40km/h | 18325m | 3.9m/s | -53.6°C | 1.5% | 75.9hPa | 2.7V | 00:00:00 | 00:00:00 | 00:00:00 | |
| GYPAP8-17 | 2026-09-03 00:09:55 | 48.94742 | 20.95626 | 86° | 37km/h | 18316m | 5.0m/s | -53.7°C | 1.5% | 76.0hPa | 2.7V | 00:00:00 | 00:00:00 | 00:00:00 | |
| SQ9EZE-14 | 2026-09-03 00:09:53 | 48.94742 | 20.95612 | 86° | 37km/h | 18311m | 4.3m/s | -53.8°C | 1.5% | 76.0hPa | 2.7V | 00:00:00 | 00:00:00 | 00:00:00 | |
| SQ9EZE-13 | 2026-09-03 00:09:51 | 48.94740 | 20.95584 | 87° | 38km/h | 18302m | 5.1m/s | -53.9°C | 1.5% | 76.1hPa | 2.7V | 00:00:00 | 00:00:00 | 00:00:00 | |
| SP9KGR-15 | 2026-09-03 00:09:40 | 48.94710 | 20.95419 | 70° | 38km/h | 18251m | 4.3m/s | -54.0°C | 1.5% | 76.7hPa | 2.7V | 00:00:00 | 00:00:00 | 00:00:00 | |
| SQ9EZE-14 | 2026-09-03 00:09:38 | 48.94703 | 20.95390 | 74° | 42km/h | 18242m | 5.1m/s | -54.0°C | 1.5% | 76.8hPa | 2.7V | 00:00:00 | 00:00:00 | 00:00:00 | |
| PETON7-10 | 2026-09-03 00:09:35 | 48.94687 | 20.95325 | 65° | 37km/h | 18225m | 3.8m/s | 0°C | 0% | 0hPa | 2.7V | 00:00:00 | 00:00:00 | 00:00:00 | |
| SP9KGR-15 | 2026-09-03 00:09:25 | 48.94654 | 20.95212 | 70° | 27km/h | 18186m | 4.1m/s | -53.9°C | 1.5% | 77.5hPa | 2.7V | 00:00:00 | 00:00:00 | 00:00:00 | |
| SQ9EZE-13 | 2026-09-03 00:09:19 | 48.94625 | 20.95143 | 60° | 46km/h | 18160m | 4.3m/s | -53.8°C | 1.5% | 77.8hPa | 2.7V | 00:00:00 | 00:00:00 | 00:00:00 | |
| SP9KGR-15 | 2026-09-03 00:09:10 | 48.94583 | 20.95038 | 56° | 29km/h | 18120m | 4.3m/s | -53.6°C | 1.5% | 78.3hPa | 2.7V | 00:00:00 | 00:00:00 | 00:00:00 | |
| SQ9EZE-13 | 2026-09-03 00:09:03 | 48.94548 | 20.94959 | 60° | 38km/h | 18089m | 4.4m/s | -53.6°C | 1.5% | 78.7hPa | 2.7V | 00:00:00 | 00:00:00 | 00:00:00 | |
| PETON7-10 | 2026-09-03 00:09:00 | 48.94527 | 20.94916 | 53° | 27km/h | 18072m | 4.9m/s | 0°C | 0% | 0hPa | 2.7V | 00:00:00 | 01:19:09 | 00:00:00 | |
| SP9KGR-15 | 2026-09-03 00:08:55 | 48.94513 | 20.94878 | 63° | 29km/h | 18054m | 5.1m/s | -53.4°C | 1.5% | 79.1hPa | 2.7V | 00:00:00 | 00:00:00 | 00:00:00 | |
| GYPAP8-17 | 2026-09-03 00:08:50 | 48.94493 | 20.94831 | 62° | 24km/h | 18032m | 4.6m/s | -53.2°C | 1.5% | 79.4hPa | 2.7V | 00:00:00 | 00:00:00 | 00:00:00 | |
| SQ9EZE-13 | 2026-09-03 00:08:47 | 48.94485 | 20.94807 | 61° | 24km/h | 18018m | 4.2m/s | -53.1°C | 1.5% | 79.6hPa | 2.7V | 00:00:00 | 00:00:00 | 00:00:00 | |
| SP9KGR-15 | 2026-09-03 00:08:39 | 48.94464 | 20.94749 | 59° | 24km/h | 17981m | 5.3m/s | -52.8°C | 1.5% | 80.0hPa | 2.7V | 00:00:00 | 00:00:00 | 00:00:00 | |
| SQ9EZE-13 | 2026-09-03 00:08:31 | 48.94438 | 20.94689 | 73° | 20km/h | 17945m | 3.7m/s | -52.4°C | 1.4% | 80.5hPa | 2.7V | 00:00:00 | 00:00:00 | 00:00:00 | |
| SP9KGR-15 | 2026-09-03 00:08:23 | 48.94414 | 20.94632 | 56° | 27km/h | 17907m | 4.2m/s | -52.1°C | 1.4% | 81.0hPa | 2.7V | 00:00:00 | 00:00:00 | 00:00:00 | |
| SQ9EZE-13 | 2026-09-03 00:08:15 | 48.94399 | 20.94562 | 65° | 20km/h | 17870m | 5.2m/s | -51.9°C | 1.4% | 81.4hPa | 2.7V | 00:00:00 | 00:00:00 | 00:00:00 | |
| PETON7-10 | 2026-09-03 00:08:13 | 48.94392 | 20.94542 | 59° | 31km/h | 17857m | 5.2m/s | 0°C | 0% | 0hPa | 2.7V | 00:00:00 | 00:00:00 | 00:00:00 | |
| SP9KGR-15 | 2026-09-03 00:08:08 | 48.94381 | 20.94510 | 67° | 20km/h | 17838m | 5.7m/s | -51.9°C | 1.4% | 81.8hPa | 2.7V | 00:00:00 | 00:00:00 | 00:00:00 | |
| SQ9EZE-13 | 2026-09-03 00:07:59 | 48.94369 | 20.94438 | 86° | 20km/h | 17795m | 4.6m/s | -52.0°C | 1.4% | 82.4hPa | 2.7V | 00:00:00 | 00:00:00 | 00:00:00 | |
| SP9KGR-15 | 2026-09-03 00:07:52 | 48.94369 | 20.94378 | 102° | 24km/h | 17763m | 4.6m/s | -52.0°C | 1.4% | 82.8hPa | 2.7V | 00:00:00 | 00:00:00 | 00:00:00 | |
| GYPAP8-17 | 2026-09-03 00:07:46 | 48.94378 | 20.94321 | 105° | 26km/h | 17734m | 3.7m/s | -52.1°C | 1.4% | 83.1hPa | 2.7V | 00:00:00 | 00:00:00 | 00:00:00 | |
| SQ9EZE-13 | 2026-09-03 00:07:43 | 48.94382 | 20.94287 | 98° | 33km/h | 17721m | 4.4m/s | -52.1°C | 1.4% | 83.3hPa | 2.7V | 00:00:00 | 00:00:00 | 00:00:00 | |
| SP9KGR-15 | 2026-09-03 00:07:36 | 48.94390 | 20.94200 | 102° | 31km/h | 17689m | 4.7m/s | -52.0°C | 1.4% | 83.7hPa | 2.7V | 00:00:00 | 00:00:00 | 00:00:00 | |
| SQ9EZE-13 | 2026-09-03 00:07:27 | 48.94401 | 20.94098 | 97° | 37km/h | 17649m | 4.5m/s | -52.4°C | 1.5% | 84.2hPa | 2.7V | 00:00:00 | 00:00:00 | 00:00:00 | |
| PETON7-10 | 2026-09-03 00:07:22 | 48.94408 | 20.94011 | 97° | 35km/h | 17622m | 4.3m/s | 0°C | 0% | 0hPa | 2.7V | 00:00:00 | 00:00:00 | 00:00:00 | |
| SQ9EZE-14 | 2026-09-03 00:07:20 | 48.94410 | 20.93998 | 99° | 35km/h | 17618m | 5.0m/s | -52.3°C | 1.5% | 84.6hPa | 2.7V | 00:00:00 | 00:00:00 | 00:00:00 | |
| SQ9EZE-13 | 2026-09-03 00:07:11 | 48.94410 | 20.93869 | 91° | 40km/h | 17578m | 3.7m/s | -52.0°C | 1.4% | 85.2hPa | 2.7V | 00:00:00 | 00:00:00 | 00:00:00 | |
| SQ9EZE-14 | 2026-09-03 00:07:05 | 48.94425 | 20.93777 | 105° | 31km/h | 17550m | 3.8m/s | -51.8°C | 1.4% | 85.5hPa | 2.7V | 00:00:00 | 00:00:00 | 00:00:00 | |
| SQ9EZE-13 | 2026-09-03 00:06:55 | 48.94437 | 20.93655 | 116° | 38km/h | 17511m | 3.8m/s | -51.6°C | 1.4% | 86.1hPa | 2.7V | 00:00:00 | 00:00:00 | 00:00:00 | |
| PETON7-10 | 2026-09-03 00:06:49 | 48.94463 | 20.93560 | 108° | 42km/h | 17481m | 4.3m/s | 0°C | 0% | 0hPa | 2.7V | 00:00:00 | 01:16:58 | 00:00:00 | |
| GYPAP8-17 | 2026-09-03 00:06:44 | 48.94475 | 20.93499 | 112° | 38km/h | 17464m | 4.6m/s | -51.5°C | 1.4% | 86.6hPa | 2.7V | 00:00:00 | 00:00:00 | 00:00:00 | |
| SQ9EZE-13 | 2026-09-03 00:06:39 | 48.94498 | 20.93438 | 123° | 37km/h | 17441m | 3.3m/s | -51.8°C | 1.4% | 87.0hPa | 2.7V | 00:00:00 | 00:00:00 | 00:00:00 | |
| PETON7-10 | 2026-09-03 00:06:34 | 48.94532 | 20.93351 | 117° | 46km/h | 17417m | 4.1m/s | 0°C | 0% | 0hPa | 2.7V | 00:00:00 | 00:00:00 | 00:00:00 | |
| SP9KGR-15 | 2026-09-03 00:06:33 | 48.94532 | 20.93351 | 118° | 46km/h | 17417m | 4.1m/s | -51.9°C | 1.4% | 87.3hPa | 2.7V | 00:00:00 | 00:00:00 | 00:00:00 | |
| SQ9EZE-13 | 2026-09-03 00:06:23 | 48.94589 | 20.93195 | 114° | 49km/h | 17375m | 4.0m/s | -52.2°C | 1.4% | 87.9hPa | 2.7V | 00:00:00 | 00:00:00 | 00:00:00 | |
| SP9KGR-15 | 2026-09-03 00:06:18 | 48.94610 | 20.93113 | 113° | 44km/h | 17354m | 4.5m/s | -52.5°C | 1.4% | 88.1hPa | 2.7V | 00:00:00 | 00:00:00 | 00:00:00 | |
| SQ9EZE-13 | 2026-09-03 00:06:08 | 48.94646 | 20.92965 | 98° | 40km/h | 17313m | 4.4m/s | -52.9°C | 1.5% | 88.7hPa | 2.7V | 00:00:00 | 00:00:00 | 00:00:00 | |
| SP9KGR-15 | 2026-09-03 00:06:02 | 48.94657 | 20.92875 | 108° | 38km/h | 17288m | 4.1m/s | -52.8°C | 1.5% | 89.0hPa | 2.7V | 00:00:00 | 00:00:00 | 00:00:00 | |
| SQ9EZE-13 | 2026-09-03 00:05:53 | 48.94681 | 20.92729 | 103° | 47km/h | 17250m | 4.6m/s | -53.2°C | 1.5% | 89.6hPa | 2.7V | 00:00:00 | 00:00:00 | 00:00:00 | |
| SP9KGR-15 | 2026-09-03 00:05:46 | 48.94708 | 20.92612 | 118° | 51km/h | 17220m | 3.5m/s | -53.3°C | 1.5% | 90.0hPa | 2.7V | 00:00:00 | 00:00:00 | 00:00:00 | |
| GYPAP8-17 | 2026-09-03 00:05:45 | 48.94714 | 20.92594 | 117° | 51km/h | 17216m | 4.7m/s | -53.3°C | 1.5% | 90.1hPa | 2.7V | 00:00:00 | 00:00:00 | 00:00:00 | |
| SQ9EZE-13 | 2026-09-03 00:05:37 | 48.94745 | 20.92436 | 102° | 51km/h | 17183m | 4.0m/s | -53.3°C | 1.6% | 90.5hPa | 2.7V | 00:00:00 | 00:00:00 | 00:00:00 | |
| SP9KGR-15 | 2026-09-03 00:05:31 | 48.94764 | 20.92318 | 106° | 55km/h | 17157m | 4.1m/s | -53.3°C | 1.6% | 90.9hPa | 2.7V | 00:00:00 | 00:00:00 | 00:00:00 | |
| SQ9EZE-13 | 2026-09-03 00:05:21 | 48.94781 | 20.92121 | 97° | 46km/h | 17117m | 4.8m/s | -53.2°C | 1.6% | 91.4hPa | 2.7V | 00:00:00 | 00:00:00 | 00:00:00 | |
| SP9KGR-15 | 2026-09-03 00:05:15 | 48.94790 | 20.92015 | 95° | 49km/h | 17093m | 3.6m/s | -53.1°C | 1.5% | 91.8hPa | 2.7V | 00:00:00 | 00:00:00 | 00:00:00 | |
| SQ9EZE-13 | 2026-09-03 00:05:05 | 48.94794 | 20.91847 | 94° | 37km/h | 17052m | 4.3m/s | -53.0°C | 1.5% | 92.4hPa | 2.7V | 00:00:00 | 00:00:00 | 00:00:00 | |
| SQ9EZE-14 | 2026-09-03 00:04:59 | 48.94798 | 20.91757 | 93° | 44km/h | 17027m | 3.9m/s | -53.2°C | 1.5% | 92.7hPa | 2.7V | 00:00:00 | 00:00:00 | 00:00:00 | |
| SQ9EZE-13 | 2026-09-03 00:04:50 | 48.94793 | 20.91613 | 86° | 29km/h | 16990m | 4.3m/s | -53.7°C | 1.6% | 93.3hPa | 2.7V | 00:00:00 | 00:00:00 | 00:00:00 | |
| SP9KGR-15 | 2026-09-03 00:04:45 | 48.94793 | 20.91542 | 98° | 40km/h | 16965m | 3.9m/s | -53.8°C | 1.6% | 93.6hPa | 2.7V | 00:00:00 | 00:00:00 | 00:00:00 | |
| SQ9EZE-14 | 2026-09-03 00:04:44 | 48.94793 | 20.91542 | 98° | 40km/h | 16965m | 3.9m/s | -53.8°C | 1.6% | 93.6hPa | 2.7V | 00:00:00 | 00:00:00 | 00:00:00 | |
| GYPAP8-17 | 2026-09-03 00:04:41 | 48.94796 | 20.91458 | 93° | 44km/h | 16944m | 4.4m/s | -53.8°C | 1.6% | 93.9hPa | 2.7V | 00:00:00 | 00:00:00 | 00:00:00 | |
| SQ9EZE-13 | 2026-09-03 00:04:35 | 48.94793 | 20.91398 | 79° | 35km/h | 16927m | 3.6m/s | -53.9°C | 1.6% | 94.2hPa | 2.7V | 00:00:00 | 00:00:00 | 00:00:00 | |
| SP9KGR-15 | 2026-09-03 00:04:29 | 48.94795 | 20.91298 | 100° | 42km/h | 16898m | 4.0m/s | -53.9°C | 1.6% | 94.6hPa | 2.7V | 00:00:00 | 00:00:00 | 00:00:00 | |
| SQ9EZE-13 | 2026-09-03 00:04:19 | 48.94804 | 20.91160 | 91° | 38km/h | 16861m | 3.6m/s | -53.9°C | 1.7% | 95.2hPa | 2.7V | 00:00:00 | 00:00:00 | 00:00:00 | |
| SP9KGR-15 | 2026-09-03 00:04:14 | 48.94806 | 20.91069 | 99° | 40km/h | 16836m | 3.8m/s | -54.1°C | 1.7% | 95.5hPa | 2.7V | 00:00:00 | 00:00:00 | 00:00:00 | |
| SP9KGR-15 | 2026-09-03 00:03:58 | 48.94814 | 20.90849 | 96° | 35km/h | 16771m | 3.7m/s | -53.9°C | 1.7% | 96.5hPa | 2.7V | 00:00:00 | 00:00:00 | 00:00:00 | |
| SQ9EZE-13 | 2026-09-03 00:03:46 | 48.94831 | 20.90704 | 108° | 31km/h | 16720m | 4.2m/s | -53.7°C | 1.7% | 97.3hPa | 2.7V | 00:00:00 | 00:00:00 | 00:00:00 | |
| SP9KGR-15 | 2026-09-03 00:03:43 | 48.94837 | 20.90671 | 106° | 29km/h | 16708m | 3.7m/s | -53.7°C | 1.7% | 97.5hPa | 2.7V | 00:00:00 | 00:00:00 | 00:00:00 | |
| SQ9EZE-13 | 2026-09-03 00:03:31 | 48.94867 | 20.90533 | 112° | 35km/h | 16657m | 3.7m/s | -53.7°C | 1.7% | 98.2hPa | 2.7V | 00:00:00 | 00:00:00 | 00:00:00 | |
| SP9KGR-15 | 2026-09-03 00:03:28 | 48.94877 | 20.90493 | 113° | 38km/h | 16645m | 3.8m/s | -53.7°C | 1.7% | 98.4hPa | 2.7V | 00:00:00 | 00:00:00 | 00:00:00 | |
| HA6NAB-11 | 2026-09-03 00:03:22 | 48.94906 | 20.90405 | 118° | 44km/h | 16617m | 3.9m/s | -53.7°C | 1.7% | 98.9hPa | 2.7V | 00:00:00 | 00:00:00 | 00:00:00 | |
| GYPAP8-17 | 2026-09-03 00:03:20 | 48.94912 | 20.90390 | 118° | 44km/h | 16613m | 3.8m/s | -53.7°C | 1.7% | 98.9hPa | 2.7V | 00:00:00 | 00:00:00 | 00:00:00 | |
| HA6NAB-11 | 2026-09-03 00:03:17 | 48.94936 | 20.90315 | 118° | 44km/h | 16593m | 3.9m/s | -53.6°C | 1.7% | 99.2hPa | 2.7V | 00:00:00 | 00:00:00 | 00:00:00 | |
| SQ9EZE-13 | 2026-09-03 00:03:14 | 48.94941 | 20.90300 | 119° | 42km/h | 16588m | 4.7m/s | -53.6°C | 1.7% | 99.3hPa | 2.7V | 00:00:00 | 00:00:00 | 00:00:00 | |
| SP9KGR-15 | 2026-09-03 00:03:12 | 48.94950 | 20.90273 | 118° | 40km/h | 16580m | 3.3m/s | -53.5°C | 1.7% | 99.4hPa | 2.7V | 00:00:00 | 00:00:00 | 00:00:00 | |
| PETON7-10 | 2026-09-03 00:03:01 | 48.95052 | 20.89610 | 96° | 40km/h | 16417m | 4.0m/s | 0°C | 0% | 0hPa | 2.7V | 00:00:00 | 01:12:42 | 00:00:00 | |
| SQ9EZE-13 | 2026-09-03 00:02:57 | 48.95055 | 20.89526 | 94° | 46km/h | 16395m | 3.8m/s | -53.2°C | 1.7% | 102.3hPa | 2.7V | 00:00:00 | 00:00:00 | 00:00:00 | |
| SP9KGR-15 | 2026-09-03 00:02:54 | 48.95056 | 20.89493 | 94° | 40km/h | 16387m | 4.6m/s | -53.2°C | 1.7% | 102.5hPa | 2.7V | 00:00:00 | 00:00:00 | 00:00:00 | |
| SQ9EZE-14 | 2026-09-03 00:02:52 | 48.95057 | 20.89477 | 95° | 38km/h | 16383m | 3.2m/s | -53.2°C | 1.7% | 102.5hPa | 2.7V | 00:00:00 | 00:00:00 | 00:00:00 | |
| GYPAP8-17 | 2026-09-03 00:02:42 | 48.95067 | 20.89388 | 100° | 37km/h | 16360m | 4.4m/s | -53.2°C | 1.7% | 102.9hPa | 2.7V | 00:00:00 | 00:00:00 | 00:00:00 | |
| SQ9EZE-13 | 2026-09-03 00:02:34 | 48.95069 | 20.89297 | 90° | 38km/h | 16334m | 4.0m/s | -53.2°C | 1.7% | 103.3hPa | 2.7V | 00:00:00 | 00:00:00 | 00:00:00 | |
| SP9KGR-15 | 2026-09-03 00:02:32 | 48.95070 | 20.89268 | 97° | 37km/h | 16326m | 4.3m/s | -53.1°C | 1.7% | 103.4hPa | 2.7V | 00:00:00 | 00:00:00 | 00:00:00 | |
| SP9KGR-15 | 2026-09-03 00:02:11 | 48.95094 | 20.89048 | 106° | 29km/h | 16258m | 3.8m/s | -52.7°C | 1.7% | 104.5hPa | 2.7V | 00:00:00 | 00:00:00 | 00:00:00 | |
| SQ9EZE-13 | 2026-09-03 00:02:01 | 48.95105 | 20.88961 | 105° | 35km/h | 16230m | 4.3m/s | -52.7°C | 1.7% | 105.0hPa | 2.7V | 00:00:00 | 00:00:00 | 00:00:00 | |
| SP9KGR-15 | 2026-09-03 00:01:50 | 48.95124 | 20.88842 | 102° | 37km/h | 16191m | 4.4m/s | -52.5°C | 1.7% | 105.6hPa | 2.7V | 00:00:00 | 00:00:00 | 00:00:00 | |
| SQ9EZE-13 | 2026-09-03 00:01:45 | 48.95138 | 20.88741 | 105° | 38km/h | 16160m | 5.0m/s | -52.4°C | 1.7% | 106.1hPa | 2.7V | 00:00:00 | 00:00:00 | 00:00:00 | |
| SP9KGR-15 | 2026-09-03 00:01:34 | 48.95155 | 20.88638 | 103° | 37km/h | 16125m | 4.4m/s | -52.1°C | 1.6% | 106.7hPa | 2.7V | 00:00:00 | 00:00:00 | 00:00:00 | |
| SP9KGR-15 | 2026-09-03 00:01:14 | 48.95191 | 20.88409 | 108° | 38km/h | 16056m | 4.4m/s | -51.7°C | 1.6% | 107.8hPa | 2.7V | 00:00:00 | 00:00:00 | 00:00:00 | |
| GYPAP8-17 | 2026-09-03 00:01:09 | 48.95202 | 20.88350 | 103° | 42km/h | 16038m | 3.9m/s | -51.5°C | 1.6% | 108.1hPa | 2.7V | 00:00:00 | 00:00:00 | 00:00:00 | |
| SQ9EZE-13 | 2026-09-03 00:01:05 | 48.95207 | 20.88303 | 100° | 42km/h | 16025m | 3.8m/s | -51.5°C | 1.6% | 108.3hPa | 2.7V | 00:00:00 | 00:00:00 | 00:00:00 | |
| SP9KGR-15 | 2026-09-03 00:00:51 | 48.95230 | 20.88159 | 109° | 46km/h | 15987m | 4.5m/s | -51.3°C | 1.6% | 109.0hPa | 2.7V | 00:00:00 | 00:00:00 | 00:00:00 | |
| SQ9EZE-13 | 2026-09-03 00:00:48 | 48.95255 | 20.88042 | 107° | 44km/h | 15956m | 4.6m/s | -51.2°C | 1.5% | 109.5hPa | 2.7V | 00:00:00 | 00:00:00 | 00:00:00 | |
| SP9KGR-15 | 2026-09-03 00:00:43 | 48.95275 | 20.87902 | 105° | 46km/h | 15922m | 5.0m/s | -50.9°C | 1.5% | 110.1hPa | 2.7V | 00:00:00 | 00:00:00 | 00:00:00 | |
| SQ9EZE-13 | 2026-09-03 00:00:33 | 48.95298 | 20.87764 | 102° | 49km/h | 15887m | 3.5m/s | -50.8°C | 1.5% | 110.6hPa | 2.7V | 00:00:00 | 00:00:00 | 00:00:00 | |
| SQ9EZE-14 | 2026-09-03 00:00:23 | 48.95312 | 20.87636 | 104° | 38km/h | 15851m | 4.9m/s | -51.0°C | 1.5% | 111.3hPa | 2.7V | 00:00:00 | 00:00:00 | 00:00:00 | |
| SQ9EZE-13 | 2026-09-03 00:00:13 | 48.95323 | 20.87528 | 97° | 42km/h | 15820m | 4.2m/s | -50.9°C | 1.5% | 111.8hPa | 2.7V | 00:00:00 | 00:00:00 | 00:00:00 | |
| SQ9EZE-14 | 2026-09-03 00:00:05 | 48.95338 | 20.87377 | 98° | 46km/h | 15781m | 4.1m/s | -50.8°C | 1.5% | 112.5hPa | 2.7V | 00:00:00 | 00:00:00 | 00:00:00 | |
| SQ9EZE-13 | 2026-09-02 23:59:58 | 48.95352 | 20.87250 | 104° | 53km/h | 15751m | 4.8m/s | -50.9°C | 1.5% | 113.0hPa | 2.7V | 00:00:00 | 00:00:00 | 00:00:00 | |
| SP9KGR-15 | 2026-09-02 23:59:49 | 48.95378 | 20.87101 | 108° | 49km/h | 15717m | 3.4m/s | -50.9°C | 1.5% | 113.6hPa | 2.7V | 00:00:00 | 00:00:00 | 00:00:00 | |
| GYPAP8-17 | 2026-09-02 23:59:48 | 48.95382 | 20.87083 | 108° | 51km/h | 15713m | 4.5m/s | -50.9°C | 1.5% | 113.6hPa | 2.7V | 00:00:00 | 00:00:00 | 00:00:00 | |
| SQ9EZE-13 | 2026-09-02 23:59:42 | 48.95406 | 20.86957 | 109° | 58km/h | 15687m | 3.8m/s | -51.0°C | 1.5% | 114.1hPa | 2.7V | 00:00:00 | 00:00:00 | 00:00:00 | |
| HA6NAB-11 | 2026-09-02 23:59:38 | 48.95421 | 20.86869 | 103° | 60km/h | 15669m | 4.8m/s | -50.9°C | 1.5% | 114.4hPa | 2.7V | 00:00:00 | 00:00:00 | 00:00:00 | |
| HA6NAB-11 | 2026-09-02 23:59:33 | 48.95436 | 20.86751 | 104° | 66km/h | 15648m | 4.3m/s | -50.8°C | 1.5% | 114.8hPa | 2.7V | 00:00:00 | 00:00:00 | 00:00:00 | |
| HA6NAB-11 | 2026-09-02 23:59:27 | 48.95465 | 20.86605 | 107° | 66km/h | 15623m | 4.2m/s | -50.9°C | 1.5% | 115.2hPa | 2.7V | 00:00:00 | 00:00:00 | 00:00:00 | |
| SQ9EZE-13 | 2026-09-02 23:59:26 | 48.95473 | 20.86559 | 104° | 60km/h | 15614m | 3.8m/s | -50.9°C | 1.5% | 115.4hPa | 2.7V | 00:00:00 | 00:00:00 | 00:00:00 | |
| HA6NAB-11 | 2026-09-02 23:59:21 | 48.95482 | 20.86466 | 96° | 62km/h | 15598m | 3.7m/s | -50.9°C | 1.5% | 115.7hPa | 2.7V | 00:00:00 | 00:00:00 | 00:00:00 | |
| SP9KGR-15 | 2026-09-02 23:59:18 | 48.95488 | 20.86373 | 98° | 60km/h | 15581m | 3.8m/s | -50.8°C | 1.5% | 116.0hPa | 2.7V | 00:00:00 | 00:00:00 | 00:00:00 | |
| HA6NAB-11 | 2026-09-02 23:59:16 | 48.95490 | 20.86349 | 100° | 64km/h | 15577m | 5.0m/s | -50.8°C | 1.5% | 116.1hPa | 2.7V | 00:00:00 | 00:00:00 | 00:00:00 | |
| HA6NAB-11 | 2026-09-02 23:59:10 | 48.95512 | 20.86203 | 103° | 64km/h | 15552m | 4.7m/s | -50.8°C | 1.5% | 116.5hPa | 2.7V | 00:00:00 | 00:00:00 | 00:00:00 | |
| HA6NAB-11 | 2026-09-02 23:59:04 | 48.95523 | 20.86060 | 93° | 64km/h | 15525m | 4.8m/s | -51.1°C | 1.5% | 117.0hPa | 2.7V | 00:00:00 | 00:00:00 | 00:00:00 | |
| SP9KGR-15 | 2026-09-02 23:59:02 | 48.95525 | 20.86011 | 94° | 62km/h | 15517m | 3.7m/s | -51.1°C | 1.5% | 117.1hPa | 2.7V | 00:00:00 | 00:00:00 | 00:00:00 | |
| SQ9EZE-13 | 2026-09-02 23:59:00 | 48.95527 | 20.85964 | 99° | 60km/h | 15509m | 3.8m/s | -51.2°C | 1.5% | 117.3hPa | 2.7V | 00:00:00 | 00:00:00 | 00:00:00 | |
| HA6NAB-11 | 2026-09-02 23:58:59 | 48.95530 | 20.85942 | 100° | 60km/h | 15505m | 3.9m/s | -51.2°C | 1.5% | 117.3hPa | 2.7V | 00:00:00 | 00:00:00 | 00:00:00 | |
| HA6NAB-11 | 2026-09-02 23:58:53 | 48.95545 | 20.85802 | 99° | 64km/h | 15480m | 4.9m/s | -51.3°C | 1.5% | 117.8hPa | 2.7V | 00:00:00 | 00:00:00 | 00:00:00 | |
| HA6NAB-11 | 2026-09-02 23:58:48 | 48.95556 | 20.85676 | 101° | 64km/h | 15459m | 4.1m/s | -51.5°C | 1.5% | 118.2hPa | 2.7V | 00:00:00 | 00:00:00 | 00:00:00 | |
| SP9KGR-15 | 2026-09-02 23:58:47 | 48.95559 | 20.85652 | 102° | 66km/h | 15454m | 4.7m/s | -51.5°C | 1.5% | 118.3hPa | 2.7V | 00:00:00 | 00:00:00 | 00:00:00 | |
| GYPAP8-17 | 2026-09-02 23:58:44 | 48.95568 | 20.85579 | 102° | 62km/h | 15441m | 4.9m/s | -51.5°C | 1.5% | 118.5hPa | 2.7V | 00:00:00 | 00:00:00 | 00:00:00 | |
| SQ9EZE-13 | 2026-09-02 23:58:35 | 48.95588 | 20.85355 | 99° | 69km/h | 15402m | 4.2m/s | -51.6°C | 1.5% | 119.2hPa | 2.7V | 00:00:00 | 00:00:00 | 00:00:00 | |
| SP9KGR-15 | 2026-09-02 23:58:31 | 48.95598 | 20.85251 | 99° | 69km/h | 15385m | 4.8m/s | -51.5°C | 1.5% | 119.5hPa | 2.7V | 00:00:00 | 00:00:00 | 00:00:00 | |
| SQ9EZE-13 | 2026-09-02 23:58:20 | 48.95622 | 20.84972 | 94° | 64km/h | 15341m | 3.5m/s | -52.1°C | 1.7% | 120.4hPa | 2.7V | 00:00:00 | 00:00:00 | 00:00:00 | |
| SP9KGR-15 | 2026-09-02 23:58:16 | 48.95624 | 20.84869 | 93° | 68km/h | 15324m | 4.5m/s | -52.1°C | 1.6% | 120.6hPa | 2.7V | 00:00:00 | 00:00:00 | 00:00:00 | |
| SQ9EZE-13 | 2026-09-02 23:58:01 | 48.95643 | 20.84512 | 93° | 62km/h | 15264m | 3.6m/s | -51.7°C | 1.6% | 121.8hPa | 2.7V | 00:00:00 | 00:00:00 | 00:00:00 | |
| SQ9EZE-13 | 2026-09-02 23:57:45 | 48.95675 | 20.84148 | 99° | 58km/h | 15200m | 4.5m/s | -52.4°C | 1.7% | 123.0hPa | 2.7V | 00:00:00 | 00:00:00 | 00:00:00 | |
| SP9KGR-15 | 2026-09-02 23:57:44 | 48.95677 | 20.84126 | 100° | 60km/h | 15196m | 4.1m/s | -52.4°C | 1.7% | 123.1hPa | 2.7V | 00:00:00 | 00:00:00 | 00:00:00 | |
| SP9KGR-15 | 2026-09-02 23:57:29 | 48.95705 | 20.83817 | 98° | 51km/h | 15137m | 3.7m/s | -53.0°C | 1.8% | 124.2hPa | 2.7V | 00:00:00 | 00:00:00 | 00:00:00 | |
| HA6NAB-11 | 2026-09-02 23:57:28 | 48.95706 | 20.83798 | 100° | 51km/h | 15133m | 3.8m/s | -53.0°C | 1.7% | 124.3hPa | 2.7V | 00:00:00 | 00:00:00 | 00:00:00 | |
| HA6NAB-11 | 2026-09-02 23:57:23 | 48.95720 | 20.83702 | 107° | 49km/h | 15113m | 3.1m/s | -53.1°C | 1.7% | 124.7hPa | 2.7V | 00:00:00 | 00:00:00 | 00:00:00 | |
| SP9KGR-15 | 2026-09-02 23:57:13 | 48.95742 | 20.83492 | 99° | 64km/h | 15076m | 3.5m/s | -52.8°C | 1.8% | 125.4hPa | 2.7V | 00:00:00 | 00:00:00 | 00:00:00 | |
| SQ9EZE-13 | 2026-09-02 23:57:12 | 48.95747 | 20.83445 | 99° | 60km/h | 15067m | 4.7m/s | -52.8°C | 1.8% | 125.6hPa | 2.7V | 00:00:00 | 00:00:00 | 00:00:00 | |
| SP9KGR-15 | 2026-09-02 23:56:57 | 48.95783 | 20.83123 | 105° | 68km/h | 15008m | 5.0m/s | -53.0°C | 1.8% | 126.7hPa | 2.7V | 00:00:00 | 00:00:00 | 00:00:00 | |
| SQ9EZE-13 | 2026-09-02 23:56:56 | 48.95787 | 20.83097 | 106° | 69km/h | 15003m | 3.8m/s | -53.1°C | 1.8% | 126.8hPa | 2.7V | 00:00:00 | 00:00:00 | 00:00:00 | |
| SP9KGR-15 | 2026-09-02 23:56:42 | 48.95843 | 20.82756 | 100° | 64km/h | 14949m | 4.6m/s | -53.1°C | 1.9% | 127.9hPa | 2.7V | 00:00:00 | 00:00:00 | 00:00:00 | |
| SQ9EZE-13 | 2026-09-02 23:56:40 | 48.95848 | 20.82708 | 100° | 64km/h | 14941m | 4.2m/s | -53.1°C | 1.8% | 128.0hPa | 2.7V | 00:00:00 | 00:00:00 | 00:00:00 | |
| GYPAP8-17 | 2026-09-02 23:56:29 | 48.95878 | 20.82436 | 104° | 64km/h | 14899m | 4.0m/s | -53.2°C | 1.9% | 128.9hPa | 2.7V | 00:00:00 | 00:00:00 | 00:00:00 | |
| SP9KGR-15 | 2026-09-02 23:56:26 | 48.95888 | 20.82364 | 102° | 66km/h | 14888m | 4.3m/s | -53.2°C | 1.9% | 129.1hPa | 2.7V | 00:00:00 | 00:00:00 | 00:00:00 | |
| SQ9EZE-13 | 2026-09-02 23:56:15 | 48.95922 | 20.82101 | 110° | 66km/h | 14844m | 3.5m/s | -53.0°C | 1.9% | 130.0hPa | 2.7V | 00:00:00 | 00:00:00 | 00:00:00 | |
| SP9KGR-15 | 2026-09-02 23:56:10 | 48.95946 | 20.81982 | 104° | 66km/h | 14823m | 3.9m/s | -53.0°C | 1.9% | 130.4hPa | 2.7V | 00:00:00 | 00:00:00 | 00:00:00 | |
| SP9KGR-15 | 2026-09-02 23:55:55 | 48.96020 | 20.81614 | 107° | 73km/h | 14764m | 4.0m/s | -53.7°C | 2.0% | 131.6hPa | 2.7V | 00:00:00 | 00:00:00 | 00:00:00 | |
| SP9KGR-15 | 2026-09-02 23:55:39 | 48.96084 | 20.81165 | 104° | 77km/h | 14701m | 3.0m/s | -53.2°C | 1.9% | 132.9hPa | 2.7V | 00:00:00 | 00:00:00 | 00:00:00 | |
| SQ9EZE-13 | 2026-09-02 23:55:29 | 48.96119 | 20.80884 | 102° | 73km/h | 14661m | 4.9m/s | -53.0°C | 2.0% | 133.7hPa | 2.7V | 00:00:00 | 00:00:00 | 00:00:00 | |
| GYPAP8-17 | 2026-09-02 23:55:25 | 48.96132 | 20.80775 | 100° | 69km/h | 14645m | 3.3m/s | -52.9°C | 2.0% | 134.1hPa | 2.7V | 00:00:00 | 00:00:00 | 00:00:00 | |
| SP9KGR-15 | 2026-09-02 23:55:24 | 48.96135 | 20.80749 | 100° | 71km/h | 14641m | 4.4m/s | -52.8°C | 2.0% | 134.2hPa | 2.7V | 00:00:00 | 00:00:00 | 00:00:00 | |
| SP9KGR-15 | 2026-09-02 23:55:08 | 48.96180 | 20.80300 | 99° | 84km/h | 14572m | 4.4m/s | -52.6°C | 1.9% | 135.6hPa | 2.7V | 00:00:00 | 00:00:00 | 00:00:00 | |
| SQ9EZE-13 | 2026-09-02 23:55:07 | 48.96183 | 20.80268 | 99° | 86km/h | 14568m | 5.3m/s | -52.6°C | 2.0% | 135.7hPa | 2.7V | 00:00:00 | 00:00:00 | 00:00:00 | |
| SP9KGR-15 | 2026-09-02 23:54:53 | 48.96211 | 20.79843 | 95° | 77km/h | 14511m | 4.1m/s | -52.4°C | 1.9% | 136.9hPa | 2.7V | 00:00:00 | 00:00:00 | 00:00:00 | |
| SQ9EZE-13 | 2026-09-02 23:54:52 | 48.96213 | 20.79814 | 96° | 75km/h | 14506m | 4.9m/s | -52.5°C | 1.9% | 137.0hPa | 2.7V | 00:00:00 | 00:00:00 | 00:00:00 | |
| SP9KGR-15 | 2026-09-02 23:54:38 | 48.96223 | 20.79420 | 91° | 71km/h | 14446m | 4.5m/s | -52.6°C | 2.0% | 138.2hPa | 2.7V | 00:00:00 | 00:00:00 | 00:00:00 | |
| SQ9EZE-13 | 2026-09-02 23:54:29 | 48.96227 | 20.79184 | 89° | 64km/h | 14409m | 4.2m/s | -52.5°C | 2.0% | 139.1hPa | 2.7V | 00:00:00 | 00:00:00 | 00:00:00 | |
| SP9KGR-15 | 2026-09-02 23:54:23 | 48.96220 | 20.79042 | 90° | 60km/h | 14383m | 4.1m/s | -52.3°C | 2.0% | 139.7hPa | 2.7V | 00:00:00 | 00:00:00 | 00:00:00 | |
| GYPAP8-17 | 2026-09-02 23:54:22 | 48.96220 | 20.79019 | 91° | 60km/h | 14379m | 2.8m/s | -52.3°C | 1.9% | 139.7hPa | 2.7V | 00:00:00 | 00:00:00 | 00:00:00 | |
| SQ9EZE-13 | 2026-09-02 23:54:13 | 48.96210 | 20.78809 | 81° | 58km/h | 14340m | 5.0m/s | -52.0°C | 2.0% | 140.6hPa | 2.7V | 00:00:00 | 00:00:00 | 00:00:00 | |
| SP9KGR-15 | 2026-09-02 23:54:07 | 48.96199 | 20.78675 | 86° | 58km/h | 14315m | 4.8m/s | -51.9°C | 2.0% | 141.1hPa | 2.7V | 00:00:00 | 00:00:00 | 00:00:00 | |
| SQ9EZE-13 | 2026-09-02 23:53:53 | 48.96172 | 20.78378 | 78° | 51km/h | 14255m | 5.3m/s | -51.9°C | 2.0% | 142.4hPa | 2.7V | 00:00:00 | 00:00:00 | 00:00:00 | |
| SP9KGR-15 | 2026-09-02 23:53:52 | 48.96169 | 20.78358 | 77° | 53km/h | 14250m | 4.2m/s | -52.1°C | 2.0% | 142.5hPa | 2.7V | 00:00:00 | 00:00:00 | 00:00:00 | |
| SQ9EZE-14 | 2026-09-02 23:53:45 | 48.96153 | 20.78222 | 81° | 49km/h | 14219m | 4.1m/s | -51.8°C | 1.9% | 143.2hPa | 2.7V | 00:00:00 | 00:00:00 | 00:00:00 | |
| SQ9EZE-13 | 2026-09-02 23:53:36 | 48.96134 | 20.78068 | 77° | 44km/h | 14179m | 4.2m/s | -51.8°C | 2.0% | 144.1hPa | 2.7V | 00:00:00 | 00:00:00 | 00:00:00 | |
| SQ9EZE-14 | 2026-09-02 23:53:29 | 48.96119 | 20.77956 | 80° | 40km/h | 14149m | 4.1m/s | -51.7°C | 2.0% | 144.8hPa | 2.7V | 00:00:00 | 00:00:00 | 00:00:00 | |
| SP9KGR-15 | 2026-09-02 23:53:21 | 48.96098 | 20.77835 | 80° | 40km/h | 14117m | 3.9m/s | -51.4°C | 2.0% | 145.5hPa | 2.7V | 00:00:00 | 00:00:00 | 00:00:00 | |
| SQ9EZE-13 | 2026-09-02 23:53:20 | 48.96096 | 20.77820 | 82° | 40km/h | 14113m | 4.2m/s | -51.4°C | 2.0% | 145.6hPa | 2.7V | 00:00:00 | 00:00:00 | 00:00:00 | |
| GYPAP8-17 | 2026-09-02 23:53:17 | 48.96092 | 20.77773 | 84° | 40km/h | 14100m | 3.6m/s | -51.2°C | 1.9% | 145.9hPa | 2.7V | 00:00:00 | 00:00:00 | 00:00:00 | |
| SP9KGR-15 | 2026-09-02 23:53:06 | 48.96079 | 20.77595 | 81° | 42km/h | 14052m | 3.9m/s | -51.0°C | 1.9% | 146.9hPa | 2.7V | 00:00:00 | 00:00:00 | 00:00:00 | |
| SQ9EZE-13 | 2026-09-02 23:53:04 | 48.96076 | 20.77563 | 89° | 42km/h | 14044m | 3.9m/s | -50.9°C | 1.9% | 147.1hPa | 2.7V | 00:00:00 | 00:00:00 | 00:00:00 | |
| SP9KGR-15 | 2026-09-02 23:52:51 | 48.96070 | 20.77336 | 92° | 49km/h | 13992m | 3.6m/s | -50.4°C | 1.9% | 148.3hPa | 2.7V | 00:00:00 | 00:00:00 | 00:00:00 | |
| SQ9EZE-13 | 2026-09-02 23:52:49 | 48.96070 | 20.77299 | 91° | 47km/h | 13984m | 3.9m/s | -50.3°C | 1.8% | 148.5hPa | 2.7V | 00:00:00 | 00:00:00 | 00:00:00 | |
| SP9KGR-15 | 2026-09-02 23:52:35 | 48.96069 | 20.77035 | 92° | 46km/h | 13925m | 3.7m/s | -50.1°C | 1.8% | 149.9hPa | 2.7V | 00:00:00 | 00:00:00 | 00:00:00 | |
| SQ9EZE-13 | 2026-09-02 23:52:33 | 48.96069 | 20.76998 | 92° | 51km/h | 13916m | 4.0m/s | -50.0°C | 1.8% | 150.0hPa | 2.7V | 00:00:00 | 00:00:00 | 00:00:00 | |
| SP9KGR-15 | 2026-09-02 23:52:19 | 48.96078 | 20.76719 | 98° | 47km/h | 13857m | 3.3m/s | -49.6°C | 1.8% | 151.4hPa | 2.7V | 00:00:00 | 00:00:00 | 00:00:00 | |
| OE3JTB-15 | 2026-09-02 23:52:09 | 48.96097 | 20.76504 | 100° | 55km/h | 13813m | 4.6m/s | -49.4°C | 3.8% | 152.4hPa | 2.7V | 00:00:00 | 01:02:18 | 00:00:00 | |
| SP9KGR-15 | 2026-09-02 23:52:04 | 48.96106 | 20.76427 | 100° | 51km/h | 13797m | 3.7m/s | -49.5°C | 1.7% | 152.8hPa | 2.7V | 00:00:00 | 00:00:00 | 00:00:00 | |
| GYPAP8-17 | 2026-09-02 23:52:03 | 48.96108 | 20.76408 | 102° | 51km/h | 13793m | 4.6m/s | -49.5°C | 1.7% | 152.9hPa | 2.7V | 00:00:00 | 00:00:00 | 00:00:00 | |
| SP9KGR-15 | 2026-09-02 23:51:49 | 48.96151 | 20.76125 | 103° | 58km/h | 13738m | 4.8m/s | -49.6°C | 1.7% | 154.2hPa | 2.7V | 00:00:00 | 00:00:00 | 00:00:00 | |
| OE3JTB-15 | 2026-09-02 23:51:40 | 48.96185 | 20.75899 | 101° | 58km/h | 13699m | 3.7m/s | -49.3°C | 3.8% | 155.1hPa | 2.7V | 00:00:00 | 00:00:00 | 08:30:00 | |
| SP9KGR-15 | 2026-09-02 23:51:33 | 48.96196 | 20.75762 | 98° | 58km/h | 13676m | 3.2m/s | -49.5°C | 1.7% | 155.7hPa | 2.7V | 00:00:00 | 00:00:00 | 00:00:00 | |
| HA6NAB-11 | 2026-09-02 23:51:22 | 48.96231 | 20.75508 | 102° | 60km/h | 13632m | 4.0m/s | -49.4°C | 1.6% | 156.7hPa | 2.7V | 00:00:00 | 00:00:00 | 00:00:00 | |
| SP9KGR-15 | 2026-09-02 23:51:18 | 48.96240 | 20.75417 | 99° | 60km/h | 13617m | 3.8m/s | -49.3°C | 1.6% | 157.1hPa | 2.7V | 00:00:00 | 00:00:00 | 00:00:00 | |
| OE3JTB-15 | 2026-09-02 23:51:10 | 48.96258 | 20.75233 | 97° | 51km/h | 13580m | 5.1m/s | -49.7°C | 3.9% | 157.8hPa | 2.7V | 00:00:00 | 00:00:00 | 00:00:00 | |
| GYPAP8-17 | 2026-09-02 23:50:59 | 48.96280 | 20.75042 | 104° | 53km/h | 13539m | 3.4m/s | -49.5°C | 1.7% | 158.9hPa | 2.7V | 00:00:00 | 00:00:00 | 00:00:00 | |
| SQ9EZE-13 | 2026-09-02 23:50:48 | 48.96309 | 20.74836 | 107° | 49km/h | 13497m | 3.8m/s | -49.3°C | 1.7% | 159.9hPa | 2.7V | 00:00:00 | 00:00:00 | 00:00:00 | |
| SP9KGR-15 | 2026-09-02 23:50:47 | 48.96312 | 20.74817 | 106° | 49km/h | 13494m | 3.5m/s | -49.2°C | 1.7% | 160.0hPa | 2.7V | 00:00:00 | 00:00:00 | 00:00:00 | |
| OE3JTB-15 | 2026-09-02 23:50:41 | 48.96334 | 20.74685 | 107° | 47km/h | 13467m | 4.2m/s | -49.6°C | 3.9% | 160.6hPa | 2.7V | 00:00:00 | 01:00:50 | 00:00:00 | |
| GYPAP8-17 | 2026-09-02 23:50:39 | 48.96338 | 20.74666 | 109° | 53km/h | 13463m | 3.9m/s | -49.7°C | 1.8% | 160.8hPa | 2.7V | 00:00:00 | 00:00:00 | 00:00:00 | |
| SQ9EZE-13 | 2026-09-02 23:50:32 | 48.96364 | 20.74541 | 105° | 44km/h | 13435m | 4.2m/s | -49.6°C | 1.7% | 161.5hPa | 2.7V | 00:00:00 | 00:00:00 | 00:00:00 | |
| SP9KGR-15 | 2026-09-02 23:50:31 | 48.96367 | 20.74524 | 102° | 44km/h | 13431m | 2.7m/s | -49.6°C | 1.7% | 161.5hPa | 2.7V | 00:00:00 | 00:00:00 | 00:00:00 | |
| SQ9EZE-13 | 2026-09-02 23:50:16 | 48.96407 | 20.74265 | 106° | 47km/h | 13373m | 4.8m/s | -49.3°C | 1.7% | 163.0hPa | 2.7V | 00:00:00 | 00:00:00 | 00:00:00 | |
| SP9KGR-15 | 2026-09-02 23:50:15 | 48.96410 | 20.74247 | 108° | 47km/h | 13369m | 3.8m/s | -49.3°C | 1.7% | 163.1hPa | 2.7V | 00:00:00 | 00:00:00 | 00:00:00 | |
| OE3JTB-15 | 2026-09-02 23:50:11 | 48.96428 | 20.74154 | 106° | 51km/h | 13349m | 3.9m/s | -49.2°C | 3.8% | 163.5hPa | 2.7V | 00:00:00 | 00:00:00 | 00:00:00 | |
| SQ9EZE-13 | 2026-09-02 23:50:00 | 48.96458 | 20.73963 | 106° | 51km/h | 13309m | 3.9m/s | -49.5°C | 1.8% | 164.6hPa | 2.7V | 00:00:00 | 00:00:00 | 00:00:00 | |
| SP9KGR-15 | 2026-09-02 23:49:45 | 48.96497 | 20.73670 | 102° | 51km/h | 13251m | 3.4m/s | -49.6°C | 1.8% | 166.0hPa | 2.7V | 00:00:00 | 00:00:00 | 00:00:00 | |
| SQ9EZE-13 | 2026-09-02 23:49:44 | 48.96499 | 20.73651 | 103° | 51km/h | 13247m | 4.5m/s | -49.6°C | 1.8% | 166.2hPa | 2.7V | 00:00:00 | 00:00:00 | 00:00:00 | |
| OE3JTB-15 | 2026-09-02 23:49:42 | 48.96507 | 20.73593 | 99° | 51km/h | 13236m | 4.4m/s | -49.4°C | 3.9% | 166.4hPa | 2.7V | 00:00:00 | 00:00:00 | 00:00:00 | |
| SP9KGR-15 | 2026-09-02 23:49:31 | 48.96525 | 20.73392 | 102° | 49km/h | 13193m | 4.5m/s | -49.6°C | 1.8% | 167.6hPa | 2.7V | 00:00:00 | 00:00:00 | 00:00:00 | |
| GYPAP8-17 | 2026-09-02 23:49:27 | 48.96532 | 20.73334 | 102° | 53km/h | 13182m | 4.6m/s | -49.6°C | 1.8% | 167.8hPa | 2.7V | 00:00:00 | 00:00:00 | 00:00:00 | |
| SQ9EZE-14 | 2026-09-02 23:49:24 | 48.96539 | 20.73273 | 97° | 55km/h | 13170m | 4.7m/s | -49.5°C | 1.8% | 168.1hPa | 2.7V | 00:00:00 | 00:00:00 | 00:00:00 | |
| SP9KGR-15 | 2026-09-02 23:49:14 | 48.96551 | 20.73067 | 102° | 51km/h | 13132m | 3.7m/s | -49.4°C | 1.9% | 169.1hPa | 2.7V | 00:00:00 | 00:00:00 | 00:00:00 | |
| OE3JTB-15 | 2026-09-02 23:49:13 | 48.96556 | 20.73028 | 101° | 58km/h | 13124m | 4.3m/s | -49.4°C | 4.0% | 169.3hPa | 2.7V | 00:00:00 | 00:59:22 | 00:00:00 | |
| SQ9EZE-13 | 2026-09-02 23:49:09 | 48.96563 | 20.72969 | 101° | 55km/h | 13112m | 3.9m/s | -49.4°C | 1.9% | 169.6hPa | 2.7V | 00:00:00 | 00:00:00 | 00:00:00 | |
| SP9KGR-15 | 2026-09-02 23:48:58 | 48.96593 | 20.72741 | 110° | 53km/h | 13069m | 3.1m/s | -49.2°C | 1.9% | 170.8hPa | 2.7V | 00:00:00 | 00:00:00 | 00:00:00 | |
| SQ9EZE-14 | 2026-09-02 23:48:53 | 48.96610 | 20.72645 | 105° | 53km/h | 13050m | 4.6m/s | -49.2°C | 1.9% | 171.3hPa | 2.7V | 00:00:00 | 00:00:00 | 00:00:00 | |
| SP9KGR-15 | 2026-09-02 23:48:42 | 48.96650 | 20.72411 | 110° | 58km/h | 13004m | 4.4m/s | -49.3°C | 2.0% | 172.4hPa | 2.7V | 00:00:00 | 00:00:00 | 00:00:00 | |
| SP9KGR-15 | 2026-09-02 23:48:27 | 48.96729 | 20.72108 | 127° | 55km/h | 12940m | 4.6m/s | -49.5°C | 2.0% | 174.1hPa | 2.7V | 00:00:00 | 00:00:00 | 00:00:00 | |
| GYPAP8-17 | 2026-09-02 23:48:24 | 48.96752 | 20.72056 | 122° | 53km/h | 12926m | 2.7m/s | -49.6°C | 2.1% | 174.5hPa | 2.7V | 00:00:00 | 00:00:00 | 00:00:00 | |
| HA6NAB-11 | 2026-09-02 23:48:20 | 48.96775 | 20.71984 | 118° | 55km/h | 12906m | 9.7m/s | -49.5°C | 2.0% | 175.0hPa | 2.7V | 00:00:00 | 00:00:00 | 00:00:00 | |
| HA6NAB-11 | 2026-09-02 23:48:15 | 48.96802 | 20.71884 | 109° | 57km/h | 12879m | 7.3m/s | -49.4°C | 2.0% | 175.7hPa | 2.7V | 00:00:00 | 00:00:00 | 00:00:00 | |
| SQ9EZE-13 | 2026-09-02 23:48:12 | 48.96814 | 20.71820 | 106° | 58km/h | 12861m | 4.0m/s | -49.5°C | 2.1% | 176.2hPa | 2.7V | 00:00:00 | 00:00:00 | 00:00:00 | |
| SP9KGR-15 | 2026-09-02 23:48:11 | 48.96818 | 20.71798 | 108° | 60km/h | 12856m | 7.6m/s | -49.4°C | 2.1% | 176.3hPa | 2.7V | 00:00:00 | 00:00:00 | 00:00:00 | |
| HA6NAB-11 | 2026-09-02 23:48:08 | 48.96833 | 20.71730 | 110° | 64km/h | 12842m | 3.9m/s | -49.4°C | 2.1% | 176.7hPa | 2.7V | 00:00:00 | 00:00:00 | 00:00:00 | |
| HA6NAB-11 | 2026-09-02 23:48:02 | 48.96866 | 20.71592 | 107° | 62km/h | 12814m | 4.8m/s | -49.3°C | 2.1% | 177.4hPa | 2.7V | 00:00:00 | 00:00:00 | 00:00:00 | |
| SP9KGR-15 | 2026-09-02 23:47:55 | 48.96895 | 20.71432 | 109° | 62km/h | 12776m | 2.9m/s | -49.3°C | 2.1% | 178.5hPa | 2.7V | 00:00:00 | 00:00:00 | 00:00:00 | |
| SQ9EZE-13 | 2026-09-02 23:47:51 | 48.96914 | 20.71340 | 108° | 60km/h | 12756m | 3.3m/s | -49.2°C | 2.1% | 179.0hPa | 2.7V | 00:00:00 | 00:00:00 | 00:00:00 | |
| SP9KGR-15 | 2026-09-02 23:47:40 | 48.96945 | 20.71086 | 102° | 58km/h | 12703m | 5.2m/s | -49.0°C | 2.2% | 180.5hPa | 2.7V | 00:00:00 | 00:00:00 | 00:00:00 | |
| SQ9EZE-13 | 2026-09-02 23:47:32 | 48.96970 | 20.70914 | 104° | 55km/h | 12662m | 3.3m/s | -48.9°C | 2.2% | 181.5hPa | 2.7V | 00:00:00 | 00:00:00 | 00:00:00 | |
| HA6NAB-11 | 2026-09-02 23:47:24 | 48.96995 | 20.70736 | 102° | 62km/h | 12625m | 4.5m/s | -48.8°C | 2.2% | 182.6hPa | 2.7V | 00:00:00 | 00:00:00 | 00:00:00 | |
| GYPAP8-17 | 2026-09-02 23:47:21 | 48.97005 | 20.70664 | 105° | 64km/h | 12609m | 3.0m/s | -48.8°C | 2.2% | 183.0hPa | 2.7V | 00:00:00 | 00:00:00 | 00:00:00 | |
| HA6NAB-11 | 2026-09-02 23:47:18 | 48.97016 | 20.70595 | 105° | 60km/h | 12598m | 4.6m/s | -48.9°C | 2.1% | 183.3hPa | 2.7V | 00:00:00 | 00:00:00 | 00:00:00 | |
| SQ9EZE-13 | 2026-09-02 23:47:15 | 48.97027 | 20.70525 | 105° | 64km/h | 12582m | 5.5m/s | -48.8°C | 2.1% | 183.8hPa | 2.7V | 00:00:00 | 00:00:00 | 00:00:00 | |
| SP9KGR-15 | 2026-09-02 23:47:09 | 48.97051 | 20.70380 | 104° | 64km/h | 12557m | 4.8m/s | -49.1°C | 2.2% | 184.5hPa | 2.7V | 00:00:00 | 00:00:00 | 00:00:00 | |
| SP9KGR-15 | 2026-09-02 23:46:54 | 48.97099 | 20.69999 | 96° | 66km/h | 12485m | 5.5m/s | -49.1°C | 2.2% | 186.5hPa | 2.7V | 00:00:00 | 00:00:00 | 00:00:00 | |
| SQ9EZE-14 | 2026-09-02 23:46:47 | 48.97113 | 20.69827 | 102° | 71km/h | 12454m | 2.6m/s | -49.3°C | 2.2% | 187.5hPa | 2.7V | 00:00:00 | 00:00:00 | 00:00:00 | |
| SQ9EZE-13 | 2026-09-02 23:46:44 | 48.97123 | 20.69743 | 101° | 75km/h | 12440m | 5.7m/s | -49.2°C | 2.1% | 187.9hPa | 2.7V | 00:00:00 | 00:00:00 | 00:00:00 | |
| HA6NAB-11 | 2026-09-02 23:46:39 | 48.97135 | 20.69613 | 100° | 66km/h | 12418m | 6.4m/s | -49.2°C | 2.1% | 188.5hPa | 2.7V | 00:00:00 | 00:00:00 | 00:00:00 | |
| SP9KGR-15 | 2026-09-02 23:46:38 | 48.97137 | 20.69588 | 101° | 68km/h | 12413m | 3.7m/s | -49.2°C | 2.1% | 188.6hPa | 2.7V | 00:00:00 | 00:00:00 | 00:00:00 | |
| SQ9EZE-14 | 2026-09-02 23:46:32 | 48.97158 | 20.69431 | 105° | 66km/h | 12387m | 6.1m/s | -49.5°C | 2.2% | 189.4hPa | 2.7V | 00:00:00 | 00:00:00 | 00:00:00 | |
| SQ9EZE-13 | 2026-09-02 23:46:27 | 48.97175 | 20.69312 | 101° | 64km/h | 12363m | 6.8m/s | -49.9°C | 2.2% | 190.0hPa | 2.7V | 00:00:00 | 00:00:00 | 00:00:00 | |
| SP9KGR-15 | 2026-09-02 23:46:24 | 48.97186 | 20.69211 | 104° | 68km/h | 12342m | 4.1m/s | -50.3°C | 2.3% | 190.6hPa | 2.7V | 00:00:00 | 00:00:00 | 00:00:00 | |
| GYPAP8-17 | 2026-09-02 23:46:20 | 48.97198 | 20.69130 | 105° | 75km/h | 12325m | 6.2m/s | -50.3°C | 2.3% | 191.0hPa | 2.7V | 00:00:00 | 00:00:00 | 00:00:00 | |
| SQ9EZE-13 | 2026-09-02 23:46:12 | 48.97230 | 20.68906 | 99° | 71km/h | 12290m | 3.2m/s | -50.1°C | 2.3% | 192.2hPa | 2.7V | 00:00:00 | 00:00:00 | 00:00:00 | |
| SP9KGR-15 | 2026-09-02 23:46:07 | 48.97242 | 20.68766 | 99° | 75km/h | 12269m | 4.7m/s | -50.1°C | 2.4% | 192.8hPa | 2.7V | 00:00:00 | 00:00:00 | 00:00:00 | |
| SQ9EZE-13 | 2026-09-02 23:45:57 | 48.97292 | 20.68506 | 108° | 73km/h | 12225m | 2.4m/s | -50.8°C | 2.7% | 194.2hPa | 2.7V | 00:00:00 | 00:00:00 | 00:00:00 | |
| HA6NAB-11 | 2026-09-02 23:45:55 | 48.97302 | 20.68452 | 105° | 71km/h | 12215m | 7.7m/s | -50.8°C | 2.7% | 194.5hPa | 2.7V | 00:00:00 | 00:00:00 | 00:00:00 | |
| SP9KGR-15 | 2026-09-02 23:45:52 | 48.97310 | 20.68373 | 95° | 68km/h | 12200m | 3.6m/s | -50.8°C | 2.6% | 194.9hPa | 2.7V | 00:00:00 | 00:00:00 | 00:00:00 | |
| HA6NAB-11 | 2026-09-02 23:45:50 | 48.97312 | 20.68323 | 93° | 62km/h | 12190m | 2.4m/s | -50.7°C | 2.6% | 195.2hPa | 2.7V | 00:00:00 | 00:00:00 | 00:00:00 | |
| HA6NAB-11 | 2026-09-02 23:45:45 | 48.97320 | 20.68204 | 104° | 62km/h | 12168m | 7.7m/s | -50.5°C | 2.7% | 196.0hPa | 2.7V | 00:00:00 | 00:00:00 | 00:00:00 | |
| SQ9EZE-13 | 2026-09-02 23:45:42 | 48.97335 | 20.68132 | 109° | 68km/h | 12154m | 2.7m/s | -50.5°C | 2.9% | 196.4hPa | 2.7V | 00:00:00 | 00:00:00 | 00:00:00 | |
| HA6NAB-11 | 2026-09-02 23:45:39 | 48.97352 | 20.68057 | 110° | 71km/h | 12143m | 6.2m/s | -50.6°C | 2.8% | 196.8hPa | 2.7V | 00:00:00 | 00:00:00 | 00:00:00 | |
| SP9KGR-15 | 2026-09-02 23:45:36 | 48.97371 | 20.67977 | 114° | 73km/h | 12126m | 6.8m/s | -50.6°C | 2.8% | 197.3hPa | 2.7V | 00:00:00 | 00:00:00 | 00:00:00 | |
| SQ9EZE-13 | 2026-09-02 23:45:26 | 48.97415 | 20.67736 | 105° | 66km/h | 12073m | 4.7m/s | -50.4°C | 3.1% | 198.8hPa | 2.7V | 00:00:00 | 00:00:00 | 00:00:00 | |
| SP9KGR-15 | 2026-09-02 23:45:21 | 48.97440 | 20.67591 | 107° | 68km/h | 12047m | 5.0m/s | -50.6°C | 3.2% | 199.6hPa | 2.7V | 00:00:00 | 00:00:00 | 00:00:00 | |
| GYPAP8-17 | 2026-09-02 23:45:16 | 48.97460 | 20.67469 | 102° | 64km/h | 12022m | 6.2m/s | -51.1°C | 3.5% | 200.4hPa | 2.7V | 00:00:00 | 00:00:00 | 00:00:00 | |
| SQ9EZE-13 | 2026-09-02 23:45:11 | 48.97467 | 20.67375 | 97° | 60km/h | 12003m | 8.3m/s | -51.4°C | 3.8% | 200.9hPa | 2.7V | 00:00:00 | 00:00:00 | 00:00:00 | |
| SP9KGR-15 | 2026-09-02 23:45:05 | 48.97480 | 20.67221 | 100° | 57km/h | 11967m | 7.1m/s | -51.7°C | 4.2% | 202.0hPa | 2.7V | 00:00:00 | 00:00:00 | 00:00:00 | |
| SQ9EZE-13 | 2026-09-02 23:44:56 | 48.97499 | 20.67053 | 103° | 57km/h | 11929m | 4.8m/s | -51.6°C | 4.4% | 203.3hPa | 2.7V | 00:00:00 | 00:00:00 | 00:00:00 | |
| SP9KGR-15 | 2026-09-02 23:44:50 | 48.97524 | 20.66898 | 108° | 58km/h | 11888m | 7.2m/s | -51.6°C | 5.0% | 204.5hPa | 2.7V | 00:00:00 | 00:00:00 | 00:00:00 | |
| SQ9EZE-13 | 2026-09-02 23:44:40 | 48.97577 | 20.66698 | 111° | 69km/h | 11845m | 5.4m/s | -52.1°C | 5.5% | 205.9hPa | 2.7V | 00:00:00 | 00:00:00 | 00:00:00 | |
| HA6NAB-11 | 2026-09-02 23:44:33 | 48.97612 | 20.66525 | 110° | 60km/h | 11809m | 4.7m/s | -52.2°C | 0% | 207.0hPa | 2.7V | 00:00:00 | 00:00:00 | 00:00:00 | |
| HA6NAB-11 | 2026-09-02 23:44:28 | 48.97640 | 20.66421 | 115° | 58km/h | 11782m | 7.2m/s | -52.3°C | 0% | 207.9hPa | 2.7V | 00:00:00 | 00:00:00 | 00:00:00 | |
| SQ9EZE-13 | 2026-09-02 23:44:24 | 48.97664 | 20.66335 | 112° | 60km/h | 11761m | 4.5m/s | -52.3°C | 6.5% | 208.6hPa | 2.7V | 00:00:00 | 00:00:00 | 00:00:00 | |
| HA6NAB-11 | 2026-09-02 23:44:22 | 48.97675 | 20.66290 | 113° | 62km/h | 11750m | 3.4m/s | -52.4°C | 0% | 209.0hPa | 2.7V | 00:00:00 | 00:00:00 | 00:00:00 | |
| SP9KGR-15 | 2026-09-02 23:44:17 | 48.97703 | 20.66181 | 112° | 62km/h | 11725m | 5.4m/s | -52.5°C | 6.9% | 209.8hPa | 2.7V | 00:00:00 | 00:00:00 | 00:00:00 | |
| HA6NAB-11 | 2026-09-02 23:44:16 | 48.97708 | 20.66159 | 111° | 60km/h | 11720m | 5.9m/s | 0°C | 0% | 210.0hPa | 2.7V | 00:00:00 | 00:00:00 | 00:00:00 | |
| SQ9EZE-14 | 2026-09-02 23:44:12 | 48.97732 | 20.66071 | 114° | 62km/h | 11698m | 6.2m/s | -52.9°C | 7.6% | 210.8hPa | 2.7V | 00:00:00 | 00:00:00 | 00:00:00 | |
| HA6NAB-11 | 2026-09-02 23:44:10 | 48.97744 | 20.66027 | 116° | 62km/h | 11687m | 7.9m/s | 0°C | 0% | 211.1hPa | 2.7V | 00:00:00 | 00:00:00 | 00:00:00 | |
| SQ9EZE-13 | 2026-09-02 23:44:08 | 48.97757 | 20.65982 | 112° | 66km/h | 11676m | 7.4m/s | -53.0°C | 8.0% | 211.4hPa | 2.7V | 00:00:00 | 00:00:00 | 00:00:00 | |
| HA6NAB-11 | 2026-09-02 23:44:04 | 48.97777 | 20.65879 | 104° | 71km/h | 11658m | 5.2m/s | 0°C | 0% | 212.1hPa | 2.7V | 00:00:00 | 00:00:00 | 00:00:00 | |
| SP9KGR-15 | 2026-09-02 23:44:01 | 48.97788 | 20.65799 | 105° | 69km/h | 11640m | 8.4m/s | -52.9°C | 8.4% | 212.7hPa | 2.7V | 00:00:00 | 00:00:00 | 00:00:00 | |
| SQ9EZE-13 | 2026-09-02 23:43:53 | 48.97827 | 20.65612 | 109° | 60km/h | 11595m | 8.5m/s | -52.7°C | 8.5% | 214.0hPa | 2.7V | 00:00:00 | 00:00:00 | 00:00:00 | |
| GYPAP8-17 | 2026-09-02 23:43:48 | 48.97851 | 20.65493 | 107° | 64km/h | 11564m | 4.7m/s | -52.5°C | 8.7% | 215.0hPa | 2.7V | 00:00:00 | 00:00:00 | 00:00:00 | |
| SP9KGR-15 | 2026-09-02 23:43:46 | 48.97860 | 20.65447 | 109° | 57km/h | 11550m | 4.2m/s | -52.5°C | 9.1% | 215.5hPa | 2.7V | 00:00:00 | 00:00:00 | 00:00:00 | |
| SQ9EZE-13 | 2026-09-02 23:43:36 | 48.97897 | 20.65241 | 102° | 55km/h | 11495m | 6.8m/s | -52.9°C | 10.1% | 217.2hPa | 2.7V | 00:00:00 | 00:00:00 | 00:00:00 | |
| HA6NAB-11 | 2026-09-02 23:43:30 | 48.97919 | 20.65121 | 107° | 60km/h | 11463m | 6.0m/s | 0°C | 0% | 218.2hPa | 2.7V | 00:00:00 | 00:00:00 | 00:00:00 | |
| HA6NAB-11 | 2026-09-02 23:43:23 | 48.97933 | 20.64954 | 97° | 60km/h | 11425m | 6.3m/s | 0°C | 0% | 219.6hPa | 2.7V | 00:00:00 | 00:00:00 | 00:00:00 | |
| SQ9EZE-13 | 2026-09-02 23:43:20 | 48.97938 | 20.64884 | 98° | 60km/h | 11409m | 5.8m/s | -52.9°C | 11.3% | 220.1hPa | 2.7V | 00:00:00 | 00:00:00 | 00:00:00 | |
| HA6NAB-11 | 2026-09-02 23:43:18 | 48.97943 | 20.64816 | 99° | 60km/h | 11394m | 4.1m/s | 0°C | 0% | 220.7hPa | 2.7V | 00:00:00 | 00:00:00 | 00:00:00 | |
| SP9KGR-15 | 2026-09-02 23:43:15 | 48.97948 | 20.64770 | 101° | 60km/h | 11383m | 4.3m/s | -53.0°C | 11.9% | 221.1hPa | 2.7V | 00:00:00 | 00:00:00 | 00:00:00 | |
| SQ9EZE-13 | 2026-09-02 23:43:04 | 48.97963 | 20.64507 | 99° | 64km/h | 11329m | 4.8m/s | -52.9°C | 13.0% | 223.0hPa | 2.7V | 00:00:00 | 00:00:00 | 00:00:00 | |
| SP9KGR-15 | 2026-09-02 23:42:59 | 48.97978 | 20.64394 | 100° | 57km/h | 11301m | 7.1m/s | -52.9°C | 13.9% | 224.1hPa | 2.7V | 00:00:00 | 00:00:00 | 00:00:00 | |
| SQ9EZE-13 | 2026-09-02 23:42:48 | 48.97980 | 20.64130 | 93° | 68km/h | 11243m | 7.4m/s | -53.0°C | 15.7% | 226.0hPa | 2.7V | 00:00:00 | 00:00:00 | 00:00:00 | |
| SQ9EZE-13 | 2026-09-02 23:42:32 | 48.98011 | 20.63792 | 100° | 58km/h | 11148m | 6.6m/s | -53.1°C | 18.0% | 229.3hPa | 2.7V | 00:00:00 | 00:00:00 | 00:00:00 | |
| SQ9EZE-13 | 2026-09-02 23:42:15 | 48.98072 | 20.63406 | 105° | 58km/h | 11051m | 4.5m/s | -53.2°C | 20.6% | 232.8hPa | 2.7V | 00:00:00 | 00:00:00 | 00:00:00 | |
| SP9KGR-15 | 2026-09-02 23:42:13 | 48.98079 | 20.63364 | 108° | 55km/h | 11040m | 4.4m/s | -53.3°C | 20.9% | 233.3hPa | 2.7V | 00:00:00 | 00:00:00 | 00:00:00 | |
| SQ9EZE-14 | 2026-09-02 23:42:08 | 48.98104 | 20.63256 | 112° | 68km/h | 11013m | 4.0m/s | -53.4°C | 21.4% | 234.2hPa | 2.7V | 00:00:00 | 00:00:00 | 00:00:00 | |
| SQ9EZE-13 | 2026-09-02 23:41:59 | 48.98162 | 20.63038 | 119° | 60km/h | 10965m | 3.5m/s | -53.4°C | 23.0% | 235.9hPa | 2.7V | 00:00:00 | 00:00:00 | 00:00:00 | |
| SP9KGR-15 | 2026-09-02 23:41:57 | 48.98176 | 20.62999 | 121° | 57km/h | 10955m | 5.5m/s | -53.3°C | 22.6% | 236.3hPa | 2.7V | 00:00:00 | 00:00:00 | 00:00:00 | |
| SQ9EZE-14 | 2026-09-02 23:41:52 | 48.98207 | 20.62897 | 110° | 64km/h | 10928m | 3.7m/s | -53.2°C | 23.3% | 237.4hPa | 2.7V | 00:00:00 | 00:00:00 | 00:00:00 | |
| SQ9EZE-13 | 2026-09-02 23:41:44 | 48.98267 | 20.62717 | 124° | 64km/h | 10883m | 7.2m/s | -53.1°C | 23.6% | 239.1hPa | 2.7V | 00:00:00 | 00:00:00 | 00:00:00 | |
| SP9KGR-15 | 2026-09-02 23:41:42 | 48.98285 | 20.62676 | 126° | 62km/h | 10873m | 5.5m/s | -53.1°C | 23.6% | 239.4hPa | 2.7V | 00:00:00 | 00:00:00 | 00:00:00 | |
| GYPAP8-17 | 2026-09-02 23:41:30 | 48.98364 | 20.62403 | 113° | 68km/h | 10809m | 5.5m/s | -52.9°C | 25.7% | 241.9hPa | 2.7V | 00:00:00 | 00:00:00 | 00:00:00 | |
| SQ9EZE-13 | 2026-09-02 23:41:28 | 48.98378 | 20.62356 | 117° | 68km/h | 10798m | 7.7m/s | -52.9°C | 25.9% | 242.3hPa | 2.7V | 00:00:00 | 00:00:00 | 00:00:00 | |
| SP9KGR-15 | 2026-09-02 23:41:26 | 48.98392 | 20.62310 | 116° | 64km/h | 10787m | 8.3m/s | -52.9°C | 27.0% | 242.7hPa | 2.7V | 00:00:00 | 00:00:00 | 00:00:00 | |
| SQ9EZE-13 | 2026-09-02 23:41:13 | 48.98473 | 20.62024 | 114° | 60km/h | 10715m | 6.0m/s | -53.1°C | 30.1% | 245.3hPa | 2.7V | 00:00:00 | 00:00:00 | 00:00:00 | |
| SP9KGR-15 | 2026-09-02 23:41:10 | 48.98489 | 20.61957 | 111° | 62km/h | 10701m | 6.2m/s | -53.1°C | 31.1% | 245.9hPa | 2.7V | 00:00:00 | 00:00:00 | 00:00:00 | |
| SQ9EZE-13 | 2026-09-02 23:40:56 | 48.98570 | 20.61593 | 110° | 71km/h | 10622m | 5.6m/s | -52.8°C | 38.5% | 248.8hPa | 2.7V | 00:00:00 | 00:00:00 | 00:00:00 | |
| SP9KGR-15 | 2026-09-02 23:40:55 | 48.98576 | 20.61567 | 114° | 69km/h | 10616m | 6.9m/s | -52.8°C | 39.0% | 249.0hPa | 2.7V | 00:00:00 | 00:00:00 | 00:00:00 | |
| HA6NAB-11 | 2026-09-02 23:40:43 | 48.98639 | 20.61279 | 105° | 68km/h | 10550m | 4.3m/s | 0°C | 0% | 0hPa | 2.7V | 00:00:00 | 00:00:00 | 00:00:00 | |
| OE3JTB-15 | 2026-09-02 23:40:41 | 48.98655 | 20.61206 | 112° | 66km/h | 10536m | 3.2m/s | -53.4°C | 58.6% | 252.1hPa | 2.7V | 00:00:00 | 00:00:00 | 00:00:00 | |
| SP9KGR-15 | 2026-09-02 23:40:40 | 48.98655 | 20.61206 | 112° | 66km/h | 10536m | 3.3m/s | -53.5°C | 52.5% | 252.1hPa | 2.7V | 00:00:00 | 00:00:00 | 00:00:00 | |
| HA6NAB-11 | 2026-09-02 23:40:37 | 48.98672 | 20.61136 | 108° | 64km/h | 10521m | 5.3m/s | 0°C | 0% | 0hPa | 2.7V | 00:00:00 | 00:00:00 | 00:00:00 | |
| SQ9EZE-13 | 2026-09-02 23:40:24 | 48.98734 | 20.60796 | 102° | 64km/h | 10453m | 4.3m/s | -53.9°C | 62.2% | 255.4hPa | 2.7V | 00:00:00 | 00:00:00 | 00:00:00 | |
| GYPAP8-17 | 2026-09-02 23:40:19 | 48.98745 | 20.60686 | 97° | 58km/h | 10425m | 3.1m/s | -53.8°C | 65.0% | 256.5hPa | 2.7V | 00:00:00 | 00:00:00 | 00:00:00 | |
| OE3JTB-15 | 2026-09-02 23:40:12 | 48.98756 | 20.60494 | 101° | 60km/h | 10385m | 4.3m/s | -53.7°C | 74.1% | 258.0hPa | 2.7V | 00:00:00 | 00:00:00 | 00:00:00 | |
| SP9KGR-15 | 2026-09-02 23:40:09 | 48.98764 | 20.60445 | 104° | 62km/h | 10373m | 3.7m/s | -53.7°C | 68.8% | 258.6hPa | 2.7V | 00:00:00 | 00:00:00 | 00:00:00 | |
| SQ9EZE-13 | 2026-09-02 23:40:08 | 48.98767 | 20.60421 | 102° | 62km/h | 10368m | 6.9m/s | -53.7°C | 68.7% | 258.8hPa | 2.7V | 00:00:00 | 00:00:00 | 00:00:00 | |
| SP9KGR-15 | 2026-09-02 23:39:53 | 48.98796 | 20.60074 | 105° | 60km/h | 10287m | 3.7m/s | -53.2°C | 69.8% | 262.2hPa | 2.7V | 00:00:00 | 00:00:00 | 00:00:00 | |
| SQ9EZE-13 | 2026-09-02 23:39:52 | 48.98799 | 20.60052 | 104° | 58km/h | 10282m | 7.0m/s | -53.2°C | 68.4% | 262.4hPa | 2.7V | 00:00:00 | 00:00:00 | 00:00:00 | |
| SQ9EZE-14 | 2026-09-02 23:39:47 | 48.98816 | 20.59952 | 103° | 53km/h | 10252m | 7.2m/s | -52.9°C | 67.8% | 263.5hPa | 2.7V | 00:00:00 | 00:00:00 | 00:00:00 | |
| OE3JTB-15 | 2026-09-02 23:39:43 | 48.98823 | 20.59838 | 94° | 58km/h | 10225m | 7.0m/s | -52.7°C | 73.2% | 264.6hPa | 2.7V | 00:00:00 | 00:49:52 | 00:00:00 | |
| SP9KGR-15 | 2026-09-02 23:39:38 | 48.98832 | 20.59745 | 104° | 58km/h | 10205m | 3.9m/s | -52.6°C | 66.9% | 265.4hPa | 2.7V | 00:00:00 | 00:00:00 | 00:00:00 | |
| SQ9EZE-13 | 2026-09-02 23:39:35 | 48.98842 | 20.59677 | 102° | 62km/h | 10190m | 7.1m/s | -52.4°C | 66.6% | 266.0hPa | 2.7V | 00:00:00 | 00:00:00 | 00:00:00 | |
| SQ9EZE-14 | 2026-09-02 23:39:31 | 48.98853 | 20.59584 | 101° | 60km/h | 10166m | 4.7m/s | -52.3°C | 67.5% | 267.0hPa | 2.7V | 00:00:00 | 00:00:00 | 00:00:00 | |
| SP9KGR-15 | 2026-09-02 23:39:22 | 48.98875 | 20.59385 | 99° | 58km/h | 10117m | 7.3m/s | -51.9°C | 65.7% | 269.2hPa | 2.7V | 00:00:00 | 00:00:00 | 00:00:00 | |
| SQ9EZE-13 | 2026-09-02 23:39:20 | 48.98880 | 20.59338 | 99° | 66km/h | 10106m | 6.4m/s | -51.8°C | 65.4% | 269.7hPa | 2.7V | 00:00:00 | 00:00:00 | 00:00:00 | |
| SP9KGR-15 | 2026-09-02 23:39:06 | 48.98891 | 20.59014 | 98° | 57km/h | 10029m | 6.0m/s | -51.2°C | 65.7% | 272.9hPa | 2.7V | 00:00:00 | 00:00:00 | 00:00:00 | |
| HA6NAB-11 | 2026-09-02 23:39:05 | 48.98895 | 20.58968 | 99° | 64km/h | 10018m | 6.7m/s | 0°C | 0% | 0hPa | 2.7V | 00:00:00 | 00:00:00 | 00:00:00 | |
| SP9KGR-15 | 2026-09-02 23:38:51 | 48.98899 | 20.58677 | 98° | 49km/h | 9945m | 7.7m/s | -50.6°C | 59.2% | 276.4hPa | 2.7V | 00:00:00 | 00:00:00 | 00:00:00 | |
| OE3JTB-15 | 2026-09-02 23:38:49 | 48.98907 | 20.58616 | 103° | 55km/h | 9927m | 6.6m/s | -50.4°C | 64.7% | 277.0hPa | 2.7V | 00:00:00 | 00:00:00 | 08:30:00 | |
| SQ9EZE-13 | 2026-09-02 23:38:47 | 48.98910 | 20.58594 | 100° | 60km/h | 9922m | 3.2m/s | -50.4°C | 59.7% | 277.4hPa | 2.9V | 00:00:00 | 00:00:00 | 00:00:00 | |
| SP9KGR-15 | 2026-09-02 23:38:35 | 48.98917 | 20.58352 | 96° | 47km/h | 9856m | 7.1m/s | -49.8°C | 52.5% | 280.1hPa | 2.9V | 00:00:00 | 00:00:00 | 00:00:00 | |
| SQ9EZE-13 | 2026-09-02 23:38:32 | 48.98919 | 20.58290 | 92° | 57km/h | 9839m | 6.1m/s | -49.6°C | 50.9% | 280.9hPa | 2.9V | 00:00:00 | 00:00:00 | 00:00:00 | |
| OE3JTB-15 | 2026-09-02 23:38:20 | 48.98929 | 20.58008 | 96° | 53km/h | 9773m | 6.2m/s | -48.9°C | 47.0% | 283.6hPa | 2.9V | 00:00:00 | 00:00:00 | 00:00:00 | |
| SP9KGR-15 | 2026-09-02 23:38:19 | 48.98929 | 20.58008 | 96° | 62km/h | 9773m | 6.2m/s | -49.0°C | 42.3% | 283.7hPa | 2.9V | 00:00:00 | 00:00:00 | 00:00:00 | |
| SQ9EZE-13 | 2026-09-02 23:38:16 | 48.98932 | 20.57941 | 95° | 53km/h | 9755m | 6.9m/s | -48.8°C | 41.7% | 284.6hPa | 2.9V | 00:00:00 | 00:00:00 | 00:00:00 | |
| SP9KGR-15 | 2026-09-02 23:38:04 | 48.98939 | 20.57704 | 84° | 46km/h | 9689m | 6.6m/s | -48.3°C | 39.6% | 287.4hPa | 2.9V | 00:00:00 | 00:00:00 | 00:00:00 | |
| SQ9EZE-13 | 2026-09-02 23:37:57 | 48.98947 | 20.57583 | 108° | 51km/h | 9652m | 5.7m/s | -47.9°C | 39.1% | 289.0hPa | 2.9V | 00:00:00 | 00:00:00 | 00:00:00 | |
| OE3JTB-15 | 2026-09-02 23:37:51 | 48.98960 | 20.57433 | 89° | 55km/h | 9615m | 4.2m/s | -47.6°C | 44.3% | 290.5hPa | 2.9V | 00:00:00 | 00:48:00 | 00:00:00 | |
| SP9KGR-15 | 2026-09-02 23:37:48 | 48.98958 | 20.57392 | 89° | 53km/h | 9602m | 4.9m/s | -47.5°C | 40.3% | 291.1hPa | 2.9V | 00:00:00 | 00:00:00 | 00:00:00 | |
| SQ9EZE-13 | 2026-09-02 23:37:41 | 48.98962 | 20.57275 | 91° | 42km/h | 9563m | 3.8m/s | -47.2°C | 40.4% | 292.9hPa | 2.9V | 00:00:00 | 00:00:00 | 00:00:00 | |
| SP9KGR-15 | 2026-09-02 23:37:32 | 48.98983 | 20.57105 | 112° | 51km/h | 9510m | 4.9m/s | -46.7°C | 39.5% | 295.2hPa | 2.9V | 00:00:00 | 00:00:00 | 00:00:00 | |
| SQ9EZE-14 | 2026-09-02 23:37:26 | 48.98995 | 20.56997 | 98° | 51km/h | 9478m | 7.7m/s | -46.4°C | 39.6% | 296.6hPa | 2.9V | 00:00:00 | 00:00:00 | 00:00:00 | |
| SQ9EZE-13 | 2026-09-02 23:37:23 | 48.99005 | 20.56934 | 106° | 58km/h | 9459m | 7.6m/s | -46.3°C | 39.6% | 297.4hPa | 2.9V | 00:00:00 | 00:00:00 | 00:00:00 | |
| SP9KGR-15 | 2026-09-02 23:37:17 | 48.99018 | 20.56810 | 92° | 53km/h | 9426m | 4.4m/s | -46.0°C | 41.0% | 298.9hPa | 2.9V | 00:00:00 | 00:00:00 | 00:00:00 | |
| SQ9EZE-14 | 2026-09-02 23:37:11 | 48.99026 | 20.56684 | 109° | 53km/h | 9392m | 6.9m/s | -45.7°C | 40.4% | 300.4hPa | 2.9V | 00:00:00 | 00:00:00 | 00:00:00 | |
| SQ9EZE-13 | 2026-09-02 23:37:08 | 48.99039 | 20.56630 | 109° | 47km/h | 9374m | 6.4m/s | -45.5°C | 40.6% | 301.2hPa | 2.9V | 00:00:00 | 00:00:00 | 00:00:00 | |
| SP9KGR-15 | 2026-09-02 23:37:01 | 48.99053 | 20.56507 | 97° | 47km/h | 9335m | 8.0m/s | -45.1°C | 39.1% | 303.0hPa | 2.9V | 00:00:00 | 00:00:00 | 00:00:00 | |
| SQ9EZE-13 | 2026-09-02 23:36:52 | 48.99077 | 20.56316 | 111° | 55km/h | 9279m | 4.9m/s | -44.6°C | 37.7% | 305.5hPa | 2.9V | 00:00:00 | 00:00:00 | 00:00:00 | |
| SP9KGR-15 | 2026-09-02 23:36:45 | 48.99097 | 20.56193 | 91° | 49km/h | 9242m | 5.2m/s | -44.3°C | 37.5% | 307.2hPa | 2.9V | 00:00:00 | 00:00:00 | 00:00:00 | |
| SQ9EZE-13 | 2026-09-02 23:36:36 | 48.99119 | 20.55992 | 107° | 53km/h | 9189m | 6.4m/s | -43.8°C | 35.3% | 309.6hPa | 2.9V | 00:00:00 | 00:00:00 | 00:00:00 | |
| SP9KGR-15 | 2026-09-02 23:36:30 | 48.99134 | 20.55882 | 97° | 53km/h | 9158m | 7.3m/s | -43.5°C | 34.7% | 311.0hPa | 2.9V | 00:00:00 | 00:00:00 | 00:00:00 | |
| SQ9EZE-13 | 2026-09-02 23:36:20 | 48.99156 | 20.55664 | 97° | 51km/h | 9105m | 6.8m/s | -42.9°C | 33.6% | 313.7hPa | 2.9V | 00:00:00 | 00:00:00 | 00:00:00 | |
| SP9KGR-15 | 2026-09-02 23:36:14 | 48.99169 | 20.55557 | 106° | 53km/h | 9071m | 4.9m/s | -42.6°C | 33.4% | 315.2hPa | 2.9V | 00:00:00 | 00:00:00 | 00:00:00 | |
| SQ9EZE-13 | 2026-09-02 23:36:02 | 48.99212 | 20.55308 | 99° | 55km/h | 9001m | 5.1m/s | -42.0°C | 33.1% | 318.4hPa | 2.9V | 00:00:00 | 00:00:00 | 00:00:00 | |
| SP9KGR-15 | 2026-09-02 23:35:59 | 48.99214 | 20.55243 | 92° | 58km/h | 8984m | 6.0m/s | -41.9°C | 32.9% | 319.3hPa | 2.9V | 00:00:00 | 00:00:00 | 00:00:00 | |
| SQ9EZE-13 | 2026-09-02 23:35:47 | 48.99255 | 20.54996 | 99° | 62km/h | 8914m | 7.1m/s | -41.3°C | 33.0% | 322.4hPa | 2.9V | 00:00:00 | 00:00:00 | 00:00:00 | |
| GYPAP8-17 | 2026-09-02 23:35:45 | 48.99259 | 20.54951 | 96° | 57km/h | 8903m | 6.0m/s | -41.2°C | 33.4% | 322.9hPa | 2.9V | 00:00:00 | 00:00:00 | 00:00:00 | |
| SP9KGR-15 | 2026-09-02 23:35:43 | 48.99261 | 20.54909 | 96° | 53km/h | 8892m | 3.5m/s | -41.1°C | 34.0% | 323.5hPa | 2.9V | 00:00:00 | 00:00:00 | 00:00:00 | |
| SQ9EZE-13 | 2026-09-02 23:35:31 | 48.99316 | 20.54662 | 102° | 55km/h | 8825m | 3.8m/s | -40.5°C | 34.0% | 326.8hPa | 2.9V | 00:00:00 | 00:00:00 | 00:00:00 | |
| SP9KGR-15 | 2026-09-02 23:35:27 | 48.99328 | 20.54571 | 105° | 62km/h | 8805m | 3.1m/s | -40.3°C | 36.3% | 327.9hPa | 2.9V | 00:00:00 | 00:00:00 | 00:00:00 | |
| SQ9EZE-13 | 2026-09-02 23:35:16 | 48.99372 | 20.54329 | 113° | 60km/h | 8746m | 4.4m/s | -39.8°C | 36.0% | 330.8hPa | 2.9V | 00:00:00 | 00:00:00 | 00:00:00 | |
| SP9KGR-15 | 2026-09-02 23:35:11 | 48.99403 | 20.54222 | 116° | 58km/h | 8717m | 8.5m/s | -39.6°C | 33.4% | 332.2hPa | 2.9V | 00:00:00 | 00:00:00 | 00:00:00 | |
| SQ9EZE-14 | 2026-09-02 23:35:07 | 48.99430 | 20.54141 | 116° | 62km/h | 8692m | 5.5m/s | -39.3°C | 32.8% | 333.3hPa | 2.9V | 00:00:00 | 00:00:00 | 00:00:00 | |
| SQ9EZE-13 | 2026-09-02 23:35:00 | 48.99469 | 20.53973 | 110° | 66km/h | 8654m | 8.0m/s | -39.0°C | 31.3% | 335.2hPa | 2.9V | 00:00:00 | 00:00:00 | 00:00:00 | |
| GYPAP8-17 | 2026-09-02 23:34:56 | 48.99494 | 20.53867 | 109° | 57km/h | 8621m | 8.2m/s | -38.7°C | 30.3% | 336.7hPa | 2.9V | 00:00:00 | 00:00:00 | 00:00:00 | |
| SQ9EZE-14 | 2026-09-02 23:34:51 | 48.99509 | 20.53779 | 103° | 58km/h | 8595m | 4.5m/s | -38.5°C | 30.6% | 337.9hPa | 2.9V | 00:00:00 | 00:00:00 | 00:00:00 | |
| SQ9EZE-13 | 2026-09-02 23:34:44 | 48.99538 | 20.53629 | 115° | 58km/h | 8558m | 6.0m/s | -38.2°C | 30.7% | 339.7hPa | 2.9V | 00:00:00 | 00:00:00 | 00:00:00 | |
| SP9KGR-15 | 2026-09-02 23:34:40 | 48.99559 | 20.53547 | 112° | 57km/h | 8536m | 6.1m/s | -38.0°C | 30.7% | 340.9hPa | 2.9V | 00:00:00 | 00:00:00 | 00:00:00 | |
| OE3JTB-15 | 2026-09-02 23:34:32 | 48.99608 | 20.53353 | 115° | 62km/h | 8482m | 6.9m/s | -37.4°C | 32.3% | 343.6hPa | 2.9V | 00:00:00 | 00:00:00 | 00:00:00 | |
| SQ9EZE-13 | 2026-09-02 23:34:28 | 48.99627 | 20.53290 | 115° | 58km/h | 8464m | 4.4m/s | -37.3°C | 29.7% | 344.6hPa | 0V | 00:00:00 | 00:00:00 | 00:00:00 | |
| SP9KGR-15 | 2026-09-02 23:34:24 | 48.99643 | 20.53210 | 102° | 57km/h | 8443m | 5.2m/s | -37.1°C | 29.7% | 345.7hPa | 0V | 00:00:00 | 00:00:00 | 00:00:00 | |
| SQ9EZE-13 | 2026-09-02 23:34:11 | 48.99702 | 20.52905 | 106° | 66km/h | 8368m | 4.7m/s | -36.4°C | 28.9% | 349.4hPa | 0V | 00:00:00 | 00:00:00 | 00:00:00 | |
| SP9KGR-15 | 2026-09-02 23:34:09 | 48.99710 | 20.52856 | 106° | 64km/h | 8356m | 7.1m/s | -36.3°C | 28.9% | 350.0hPa | 0V | 00:00:00 | 00:00:00 | 00:00:00 | |
| GYPAP8-17 | 2026-09-02 23:34:05 | 48.99727 | 20.52760 | 108° | 68km/h | 8332m | 4.7m/s | -36.1°C | 28.8% | 351.3hPa | 0V | 00:00:00 | 00:00:00 | 00:00:00 | |
| SQ9EZE-13 | 2026-09-02 23:33:56 | 48.99774 | 20.52553 | 100° | 64km/h | 8279m | 7.9m/s | -35.6°C | 28.3% | 353.9hPa | 0V | 00:00:00 | 00:00:00 | 00:00:00 | |
| SP9KGR-15 | 2026-09-02 23:33:53 | 48.99782 | 20.52478 | 100° | 69km/h | 8262m | 5.6m/s | -35.4°C | 28.3% | 354.8hPa | 0V | 00:00:00 | 00:00:00 | 00:00:00 | |
| SQ9EZE-13 | 2026-09-02 23:33:39 | 48.99840 | 20.52155 | 112° | 64km/h | 8190m | 7.4m/s | -34.8°C | 28.6% | 358.5hPa | 0V | 00:00:00 | 00:00:00 | 00:00:00 | |
| SP9KGR-15 | 2026-09-02 23:33:37 | 48.99854 | 20.52111 | 117° | 64km/h | 8180m | 5.3m/s | -34.7°C | 28.5% | 358.9hPa | 0V | 00:00:00 | 00:00:00 | 00:00:00 | |
| SQ9EZE-13 | 2026-09-02 23:33:24 | 48.99906 | 20.51824 | 115° | 66km/h | 8109m | 4.5m/s | -34.1°C | 32.1% | 362.7hPa | 0V | 00:00:00 | 00:00:00 | 00:00:00 | |
| GYPAP8-17 | 2026-09-02 23:33:22 | 48.99925 | 20.51757 | 111° | 58km/h | 8091m | 6.2m/s | -33.9°C | 32.8% | 363.6hPa | 0V | 00:00:00 | 00:00:00 | 00:00:00 | |
| SP9KGR-15 | 2026-09-02 23:33:06 | 48.99977 | 20.51389 | 105° | 64km/h | 7995m | 6.9m/s | -33.0°C | 30.7% | 368.8hPa | 0V | 00:00:00 | 00:00:00 | 00:00:00 | |
| SQ9EZE-13 | 2026-09-02 23:32:52 | 49.00034 | 20.51048 | 113° | 69km/h | 7921m | 6.1m/s | -32.3°C | 28.8% | 372.6hPa | 0V | 00:00:00 | 00:00:00 | 00:00:00 | |
| SP9KGR-15 | 2026-09-02 23:32:51 | 49.00046 | 20.50997 | 110° | 73km/h | 7911m | 6.8m/s | -32.2°C | 28.5% | 373.1hPa | 0V | 00:00:00 | 00:00:00 | 00:00:00 | |
| SQ9EZE-14 | 2026-09-02 23:32:47 | 49.00060 | 20.50912 | 101° | 75km/h | 7893m | 4.9m/s | -32.0°C | 28.0% | 374.0hPa | 0V | 00:00:00 | 00:00:00 | 00:00:00 | |
| GYPAP8-17 | 2026-09-02 23:32:36 | 49.00102 | 20.50617 | 105° | 69km/h | 7828m | 7.2m/s | -31.4°C | 29.3% | 377.4hPa | 0V | 00:00:00 | 00:00:00 | 00:00:00 | |
| SP9KGR-15 | 2026-09-02 23:32:35 | 49.00106 | 20.50590 | 104° | 75km/h | 7821m | 6.1m/s | -31.4°C | 30.0% | 377.8hPa | 0V | 00:00:00 | 00:00:00 | 00:00:00 | |
| SQ9EZE-14 | 2026-09-02 23:32:31 | 49.00120 | 20.50475 | 100° | 73km/h | 7796m | 5.1m/s | -31.3°C | 30.7% | 379.1hPa | 0V | 00:00:00 | 00:00:00 | 00:00:00 | |
| OE3JTB-15 | 2026-09-02 23:32:27 | 49.00142 | 20.50353 | 109° | 75km/h | 7769m | 5.3m/s | -31.0°C | 31.2% | 380.6hPa | 0V | 00:00:00 | 00:00:00 | 00:00:00 | |
| SQ9EZE-13 | 2026-09-02 23:32:20 | 49.00179 | 20.50166 | 111° | 68km/h | 7733m | 3.5m/s | -30.7°C | 29.3% | 382.6hPa | 0V | 00:00:00 | 00:00:00 | 00:00:00 | |
| SQ9EZE-13 | 2026-09-02 23:32:03 | 49.00275 | 20.49739 | 112° | 68km/h | 7656m | 5.7m/s | -30.0°C | 28.0% | 386.7hPa | 0V | 00:00:00 | 00:00:00 | 00:00:00 | |
| OE3JTB-15 | 2026-09-02 23:31:58 | 49.00317 | 20.49577 | 108° | 64km/h | 7629m | 2.9m/s | -29.7°C | 29.8% | 388.1hPa | 0V | 00:00:00 | 00:42:07 | 00:00:00 | |
| GYPAP8-17 | 2026-09-02 23:31:51 | 49.00357 | 20.49433 | 118° | 62km/h | 7592m | 5.7m/s | -29.4°C | 26.6% | 390.1hPa | 0V | 00:00:00 | 00:00:00 | 00:00:00 | |
| SQ9EZE-13 | 2026-09-02 23:31:48 | 49.00377 | 20.49361 | 110° | 75km/h | 7577m | 4.1m/s | -29.2°C | 26.4% | 391.0hPa | 0V | 00:00:00 | 00:00:00 | 00:00:00 | |
| SP9KGR-15 | 2026-09-02 23:31:33 | 49.00464 | 20.49002 | 107° | 69km/h | 7501m | 7.7m/s | -28.5°C | 22.7% | 395.1hPa | 0V | 00:00:00 | 00:00:00 | 00:00:00 | |
| SQ9EZE-13 | 2026-09-02 23:31:32 | 49.00470 | 20.48975 | 108° | 75km/h | 7494m | 8.4m/s | -28.5°C | 22.4% | 395.6hPa | 0V | 00:00:00 | 00:00:00 | 00:00:00 | |
| SQ9EZE-13 | 2026-09-02 23:31:17 | 49.00617 | 20.48591 | 119° | 68km/h | 7389m | 5.3m/s | -28.0°C | 16.1% | 401.3hPa | 0V | 00:00:00 | 00:00:00 | 00:00:00 | |
| GYPAP8-17 | 2026-09-02 23:31:07 | 49.00684 | 20.48382 | 122° | 69km/h | 7344m | 5.5m/s | -27.9°C | 20.5% | 404.1hPa | 0V | 00:00:00 | 00:00:00 | 00:00:00 | |
| SP9KGR-15 | 2026-09-02 23:31:01 | 49.00727 | 20.48252 | 117° | 55km/h | 7312m | 4.7m/s | -27.7°C | 21.7% | 405.9hPa | 0V | 00:00:00 | 00:00:00 | 00:00:00 | |
| SQ9EZE-13 | 2026-09-02 23:31:00 | 49.00734 | 20.48234 | 120° | 53km/h | 7307m | 5.4m/s | -27.7°C | 21.8% | 406.1hPa | 0V | 00:00:00 | 00:00:00 | 00:00:00 | |
| OE3JTB-15 | 2026-09-02 23:30:50 | 49.00821 | 20.48016 | 114° | 60km/h | 7247m | 4.7m/s | 0°C | 0% | 0hPa | 0V | 00:00:00 | 00:00:00 | 00:00:00 | |
| SQ9EZE-13 | 2026-09-02 23:30:44 | 49.00854 | 20.47913 | 116° | 58km/h | 7219m | 6.0m/s | -27.2°C | 19.6% | 410.9hPa | 0V | 00:00:00 | 00:00:00 | 00:00:00 | |
| SP9KGR-15 | 2026-09-02 23:30:30 | 49.00954 | 20.47617 | 123° | 55km/h | 7139m | 3.6m/s | -26.6°C | 21.4% | 415.5hPa | 0V | 00:00:00 | 00:00:00 | 00:00:00 | |
| SQ9EZE-14 | 2026-09-02 23:30:28 | 49.00973 | 20.47559 | 112° | 57km/h | 7127m | 3.0m/s | -26.5°C | 21.5% | 416.3hPa | 0V | 00:00:00 | 00:00:00 | 00:00:00 | |
| GYPAP8-17 | 2026-09-02 23:30:22 | 49.01007 | 20.47461 | 126° | 60km/h | 7104m | 5.6m/s | -26.3°C | 21.5% | 417.4hPa | 0V | 00:00:00 | 00:00:00 | 00:00:00 | |
| OE3JTB-15 | 2026-09-02 23:30:21 | 49.01025 | 20.47422 | 125° | 62km/h | 7095m | 4.5m/s | 0°C | 0% | 0hPa | 0V | 00:00:00 | 00:00:00 | 00:00:00 | |
| SP9KGR-15 | 2026-09-02 23:30:16 | 49.01067 | 20.47311 | 118° | 62km/h | 7075m | 3.6m/s | -26.1°C | 21.4% | 419.1hPa | 0V | 00:00:00 | 00:00:00 | 00:00:00 | |
| SQ9EZE-13 | 2026-09-02 23:30:12 | 49.01088 | 20.47248 | 117° | 62km/h | 7063m | 4.4m/s | -26.0°C | 21.2% | 419.8hPa | 0V | 00:00:00 | 00:00:00 | 00:00:00 | |
| SQ9EZE-14 | 2026-09-02 23:30:11 | 49.01095 | 20.47227 | 119° | 62km/h | 7059m | 4.1m/s | -25.9°C | 21.1% | 420.1hPa | 0V | 00:00:00 | 00:00:00 | 00:00:00 | |
| SP9KGR-15 | 2026-09-02 23:29:59 | 49.01176 | 20.46978 | 121° | 60km/h | 7019m | 3.3m/s | -25.6°C | 20.8% | 422.5hPa | 0V | 00:00:00 | 00:00:00 | 00:00:00 | |
| SQ9EZE-13 | 2026-09-02 23:29:56 | 49.01198 | 20.46921 | 116° | 55km/h | 7009m | 3.3m/s | -25.5°C | 21.6% | 423.1hPa | 0V | 00:00:00 | 00:00:00 | 00:00:00 | |
| OE3JTB-15 | 2026-09-02 23:29:46 | 49.01266 | 20.46677 | 121° | 55km/h | 6967m | 5.8m/s | 0°C | 0% | 0hPa | 0V | 00:00:00 | 00:39:55 | 00:00:00 | |
| SP9KGR-15 | 2026-09-02 23:29:43 | 49.01276 | 20.46638 | 106° | 53km/h | 6956m | 3.9m/s | -25.0°C | 22.3% | 426.1hPa | 0V | 00:00:00 | 00:00:00 | 00:00:00 | |
| SQ9EZE-13 | 2026-09-02 23:29:40 | 49.01283 | 20.46575 | 97° | 60km/h | 6938m | 6.8m/s | -24.8°C | 21.9% | 427.2hPa | 0V | 00:00:00 | 00:00:00 | 00:00:00 | |
| GYPAP8-17 | 2026-09-02 23:29:38 | 49.01289 | 20.46526 | 105° | 69km/h | 6927m | 4.0m/s | -24.7°C | 23.1% | 427.8hPa | 0V | 00:00:00 | 00:00:00 | 00:00:00 | |
| SP9KGR-15 | 2026-09-02 23:29:28 | 49.01350 | 20.46316 | 115° | 57km/h | 6883m | 5.2m/s | -24.3°C | 25.5% | 430.4hPa | 0V | 00:00:00 | 00:00:00 | 00:00:00 | |
| SQ9EZE-13 | 2026-09-02 23:29:24 | 49.01382 | 20.46222 | 122° | 75km/h | 6861m | 6.6m/s | -24.3°C | 33.4% | 431.6hPa | 0V | 00:00:00 | 00:00:00 | 00:00:00 | |
| SP9KGR-15 | 2026-09-02 23:29:12 | 49.01440 | 20.45966 | 110° | 60km/h | 6798m | 4.0m/s | -24.3°C | 52.8% | 435.4hPa | 0V | 00:00:00 | 00:00:00 | 00:00:00 | |
| SQ9EZE-13 | 2026-09-02 23:29:08 | 49.01460 | 20.45865 | 105° | 75km/h | 6778m | 7.1m/s | -24.2°C | 53.1% | 436.8hPa | 0V | 00:00:00 | 00:00:00 | 00:00:00 | |
| SP9KGR-15 | 2026-09-02 23:28:56 | 49.01506 | 20.45533 | 101° | 71km/h | 6714m | 3.1m/s | -23.6°C | 54.5% | 440.5hPa | 0V | 00:00:00 | 00:00:00 | 00:00:00 | |
| GYPAP8-17 | 2026-09-02 23:28:54 | 49.01513 | 20.45480 | 103° | 69km/h | 6707m | 3.7m/s | -23.6°C | 55.6% | 440.9hPa | 0V | 00:00:00 | 00:00:00 | 00:00:00 | |
| SQ9EZE-13 | 2026-09-02 23:28:52 | 49.01521 | 20.45426 | 105° | 73km/h | 6699m | 3.2m/s | -23.6°C | 58.1% | 441.7hPa | 0V | 00:00:00 | 00:00:00 | 00:00:00 | |
| SP9KGR-15 | 2026-09-02 23:28:41 | 49.01562 | 20.45139 | 109° | 60km/h | 6642m | 4.1m/s | -23.9°C | 83.3% | 445.0hPa | 0V | 00:00:00 | 00:00:00 | 00:00:00 | |
| SQ9EZE-13 | 2026-09-02 23:28:36 | 49.01590 | 20.45024 | 111° | 73km/h | 6615m | 7.4m/s | -23.6°C | 81.9% | 446.5hPa | 0V | 00:00:00 | 00:00:00 | 00:00:00 | |
| SQ9EZE-13 | 2026-09-02 23:28:20 | 49.01670 | 20.44627 | 109° | 68km/h | 6529m | 6.1m/s | -22.8°C | 78.0% | 451.8hPa | 0V | 00:00:00 | 00:00:00 | 00:00:00 | |
| SP9KGR-15 | 2026-09-02 23:28:11 | 49.01727 | 20.44409 | 108° | 69km/h | 6476m | 7.6m/s | -22.3°C | 77.9% | 455.1hPa | 0V | 00:00:00 | 00:00:00 | 00:00:00 | |
| GYPAP8-17 | 2026-09-02 23:28:09 | 49.01736 | 20.44358 | 106° | 68km/h | 6465m | 4.0m/s | -22.2°C | 78.6% | 455.9hPa | 0V | 00:00:00 | 00:00:00 | 00:00:00 | |
| SQ9EZE-14 | 2026-09-02 23:28:07 | 49.01744 | 20.44310 | 105° | 58km/h | 6453m | 5.1m/s | -22.1°C | 77.2% | 456.5hPa | 0V | 00:00:00 | 00:00:00 | 00:00:00 | |
| SQ9EZE-13 | 2026-09-02 23:28:04 | 49.01753 | 20.44249 | 105° | 53km/h | 6437m | 4.7m/s | -22.0°C | 76.3% | 457.4hPa | 0V | 00:00:00 | 00:00:00 | 00:00:00 | |
| SP9KGR-15 | 2026-09-02 23:27:55 | 49.01813 | 20.44042 | 117° | 77km/h | 6393m | 5.7m/s | -21.6°C | 77.5% | 460.1hPa | 0V | 00:00:00 | 00:00:00 | 00:00:00 | |
| SQ9EZE-14 | 2026-09-02 23:27:51 | 49.01844 | 20.43934 | 110° | 77km/h | 6374m | 4.7m/s | -21.5°C | 78.2% | 461.5hPa | 0V | 00:00:00 | 00:00:00 | 00:00:00 | |
| SQ9EZE-13 | 2026-09-02 23:27:48 | 49.01860 | 20.43851 | 106° | 71km/h | 6357m | 5.2m/s | -21.3°C | 79.3% | 462.5hPa | 0V | 00:00:00 | 00:00:00 | 00:00:00 | |
| SP9KGR-15 | 2026-09-02 23:27:39 | 49.01903 | 20.43660 | 109° | 53km/h | 6303m | 4.3m/s | -21.0°C | 78.2% | 465.8hPa | 0V | 00:00:00 | 00:00:00 | 00:00:00 | |
| SQ9EZE-13 | 2026-09-02 23:27:32 | 49.01943 | 20.43506 | 112° | 66km/h | 6266m | 4.6m/s | -20.8°C | 79.5% | 468.2hPa | 0V | 00:00:00 | 00:00:00 | 00:00:00 | |
| GYPAP8-17 | 2026-09-02 23:27:25 | 49.01966 | 20.43340 | 108° | 66km/h | 6224m | 6.1m/s | -20.5°C | 76.9% | 470.8hPa | 0V | 00:00:00 | 00:00:00 | 00:00:00 | |
| SP9KGR-15 | 2026-09-02 23:27:24 | 49.01971 | 20.43317 | 112° | 62km/h | 6219m | 3.2m/s | -20.5°C | 77.3% | 471.1hPa | 0V | 00:00:00 | 00:00:00 | 00:00:00 | |
| SQ9EZE-13 | 2026-09-02 23:27:16 | 49.02019 | 20.43164 | 113° | 64km/h | 6182m | 4.2m/s | -20.2°C | 75.8% | 473.4hPa | 0V | 00:00:00 | 00:00:00 | 00:00:00 | |
| SP9KGR-15 | 2026-09-02 23:27:08 | 49.02057 | 20.42972 | 106° | 64km/h | 6144m | 4.3m/s | -19.9°C | 73.8% | 475.8hPa | 0V | 00:00:00 | 00:00:00 | 00:00:00 | |
| SQ9EZE-13 | 2026-09-02 23:27:00 | 49.02088 | 20.42790 | 101° | 58km/h | 6098m | 7.1m/s | -19.5°C | 72.2% | 478.8hPa | 0V | 00:00:00 | 00:00:00 | 00:00:00 | |
| SP9KGR-15 | 2026-09-02 23:26:52 | 49.02108 | 20.42617 | 105° | 51km/h | 6056m | 3.9m/s | -19.2°C | 72.4% | 481.7hPa | 0V | 00:00:00 | 00:00:00 | 00:00:00 | |
| SQ9EZE-13 | 2026-09-02 23:26:44 | 49.02127 | 20.42477 | 105° | 57km/h | 6007m | 6.0m/s | -18.8°C | 69.6% | 484.8hPa | 0V | 00:00:00 | 00:00:00 | 00:00:00 | |
| OE3JTB-15 | 2026-09-02 23:26:41 | 49.02139 | 20.42396 | 100° | 42km/h | 5987m | 4.1m/s | 0°C | 0% | 0hPa | 0V | 00:00:00 | 00:00:00 | 00:00:00 | |
| OM5KV | 2026-09-02 23:26:40 | 49.02139 | 20.42396 | 100° | 47km/h | 5987m | 4.1m/s | 0°C | 0% | 486.1hPa | 0V | 00:00:00 | 00:00:00 | 00:00:00 | |
| SP9KGR-15 | 2026-09-02 23:26:36 | 49.02146 | 20.42332 | 105° | 44km/h | 5969m | 4.8m/s | -18.5°C | 75.1% | 487.3hPa | 0V | 00:00:00 | 00:00:00 | 00:00:00 | |
| SQ9EZE-13 | 2026-09-02 23:26:28 | 49.02172 | 20.42177 | 104° | 47km/h | 5930m | 3.8m/s | -18.4°C | 82.8% | 490.0hPa | 0V | 00:00:00 | 00:00:00 | 00:00:00 | |
| OM5KV | 2026-09-02 23:26:21 | 49.02201 | 20.42057 | 108° | 53km/h | 5891m | 7.6m/s | 0°C | 0% | 492.3hPa | 0V | 00:00:00 | 00:00:00 | 00:00:00 | |
| SQ9EZE-13 | 2026-09-02 23:26:13 | 49.02224 | 20.41883 | 98° | 51km/h | 5846m | 4.6m/s | -18.1°C | 72.9% | 495.2hPa | 0V | 00:00:00 | 00:00:00 | 00:00:00 | |
| SP9KGR-15 | 2026-09-02 23:26:05 | 49.02233 | 20.41740 | 97° | 46km/h | 5798m | 4.7m/s | -17.8°C | 71.1% | 498.4hPa | 0V | 00:00:00 | 00:00:00 | 00:00:00 | |
| SQ9EZE-13 | 2026-09-02 23:25:57 | 49.02254 | 20.41591 | 113° | 47km/h | 5747m | 4.7m/s | -17.4°C | 69.7% | 501.7hPa | 0V | 00:00:00 | 00:00:00 | 00:00:00 | |
| OM5KV | 2026-09-02 23:25:52 | 49.02273 | 20.41501 | 104° | 55km/h | 5724m | 4.5m/s | 0°C | 0% | 0hPa | 0V | 00:00:00 | 00:00:00 | 00:00:00 | |
| SQ9EZE-14 | 2026-09-02 23:25:50 | 49.02280 | 20.41460 | 105° | 53km/h | 5715m | 4.5m/s | -17.2°C | 71.6% | 503.8hPa | 0V | 00:00:00 | 00:00:00 | 00:00:00 | |
| SP9KGR-15 | 2026-09-02 23:25:49 | 49.02283 | 20.41441 | 107° | 51km/h | 5709m | 8.1m/s | -17.1°C | 71.6% | 504.0hPa | 0V | 00:00:00 | 00:00:00 | 00:00:00 | |
| OM5KV | 2026-09-02 23:25:44 | 49.02304 | 20.41353 | 110° | 53km/h | 5683m | 3.5m/s | 0°C | 0% | 0hPa | 0V | 00:00:00 | 00:00:00 | 00:00:00 | |
| SQ9EZE-13 | 2026-09-02 23:25:40 | 49.02314 | 20.41274 | 96° | 49km/h | 5665m | 3.1m/s | -16.8°C | 73.6% | 507.3hPa | 0V | 00:00:00 | 00:00:00 | 00:00:00 | |
| SP9KGR-15 | 2026-09-02 23:25:34 | 49.02327 | 20.41160 | 104° | 49km/h | 5633m | 9.3m/s | -16.7°C | 79.5% | 509.5hPa | 0V | 00:00:00 | 00:00:00 | 00:00:00 | |
| OM5KV | 2026-09-02 23:25:33 | 49.02330 | 20.41142 | 105° | 49km/h | 5625m | 6.4m/s | 0°C | 0% | 0hPa | 0V | 00:00:00 | 00:00:00 | 00:00:00 | |
| OM5KV | 2026-09-02 23:25:28 | 49.02341 | 20.41031 | 97° | 51km/h | 5589m | 8.6m/s | 0°C | 0% | 0hPa | 0V | 00:00:00 | 00:00:00 | 00:00:00 | |
| SQ9EZE-13 | 2026-09-02 23:25:23 | 49.02346 | 20.40949 | 95° | 49km/h | 5565m | 4.3m/s | -16.3°C | 81.6% | 514.2hPa | 0V | 00:00:00 | 00:00:00 | 00:00:00 | |
| SP9KGR-15 | 2026-09-02 23:25:18 | 49.02353 | 20.40861 | 103° | 42km/h | 5535m | 4.3m/s | -16.2°C | 84.0% | 516.3hPa | 0V | 00:00:00 | 00:00:00 | 00:00:00 | |
| OM5KV | 2026-09-02 23:25:15 | 49.02361 | 20.40809 | 105° | 49km/h | 5517m | 8.1m/s | 0°C | 0% | 0hPa | 0V | 00:00:00 | 00:00:00 | 00:00:00 | |
| GYPAP8-17 | 2026-09-02 23:25:12 | 49.02367 | 20.40748 | 97° | 57km/h | 5497m | 6.8m/s | -16.0°C | 84.5% | 518.8hPa | 0V | 00:00:00 | 00:00:00 | 00:00:00 | |
| SQ9EZE-13 | 2026-09-02 23:25:08 | 49.02371 | 20.40668 | 93° | 47km/h | 5474m | 5.9m/s | -15.8°C | 85.7% | 520.5hPa | 0V | 00:00:00 | 00:00:00 | 00:00:00 | |
| SP9KGR-15 | 2026-09-02 23:25:03 | 49.02371 | 20.40579 | 93° | 46km/h | 5443m | 4.9m/s | -15.7°C | 84.4% | 522.7hPa | 0V | 00:00:00 | 00:00:00 | 00:00:00 | |
| SQ9EZE-13 | 2026-09-02 23:24:52 | 49.02393 | 20.40383 | 96° | 47km/h | 5379m | 4.7m/s | -15.3°C | 69.7% | 527.0hPa | 0V | 00:00:00 | 00:00:00 | 00:00:00 | |
| SP9KGR-15 | 2026-09-02 23:24:48 | 49.02402 | 20.40315 | 113° | 42km/h | 5359m | 4.3m/s | -15.1°C | 64.3% | 528.5hPa | 0V | 00:00:00 | 00:00:00 | 00:00:00 | |
| SQ9EZE-13 | 2026-09-02 23:24:36 | 49.02431 | 20.40120 | 108° | 51km/h | 5294m | 4.8m/s | -14.6°C | 58.0% | 532.9hPa | 0V | 00:00:00 | 00:00:00 | 00:00:00 | |
| SP9KGR-15 | 2026-09-02 23:24:33 | 49.02439 | 20.40062 | 95° | 51km/h | 5274m | 6.6m/s | -14.4°C | 62.2% | 534.3hPa | 0V | 00:00:00 | 00:00:00 | 00:00:00 | |
| GYPAP8-17 | 2026-09-02 23:24:27 | 49.02438 | 20.39949 | 95° | 44km/h | 5232m | 6.8m/s | -14.2°C | 64.4% | 537.2hPa | 0V | 00:00:00 | 00:00:00 | 00:00:00 | |
| SP9KGR-15 | 2026-09-02 23:24:17 | 49.02440 | 20.39779 | 99° | 58km/h | 5174m | 6.3m/s | -13.9°C | 48.9% | 541.4hPa | 0V | 00:00:00 | 00:00:00 | 00:00:00 | |
| SQ9EZE-13 | 2026-09-02 23:24:04 | 49.02482 | 20.39556 | 105° | 38km/h | 5099m | 5.4m/s | -13.5°C | 55.3% | 546.7hPa | 0V | 00:00:00 | 00:00:00 | 00:00:00 | |
| SP9KGR-15 | 2026-09-02 23:24:01 | 49.02487 | 20.39508 | 96° | 49km/h | 5082m | 5.1m/s | -13.3°C | 55.6% | 548.0hPa | 0V | 00:00:00 | 00:00:00 | 00:00:00 | |
| SQ9EZE-13 | 2026-09-02 23:23:48 | 49.02492 | 20.39281 | 86° | 42km/h | 5021m | 3.6m/s | -13.0°C | 47.0% | 552.5hPa | 0V | 00:00:00 | 00:00:00 | 00:00:00 | |
| SP9KGR-15 | 2026-09-02 23:23:45 | 49.02490 | 20.39228 | 92° | 53km/h | 5011m | 4.4m/s | -13.0°C | 51.0% | 553.2hPa | 0V | 00:00:00 | 00:00:00 | 00:00:00 | |
| GYPAP8-17 | 2026-09-02 23:23:42 | 49.02494 | 20.39166 | 102° | 51km/h | 4999m | 4.7m/s | -13.0°C | 60.8% | 554.1hPa | 0V | 00:00:00 | 00:00:00 | 00:00:00 | |
| SQ9EZE-14 | 2026-09-02 23:23:33 | 49.02525 | 20.39018 | 99° | 55km/h | 4955m | 4.9m/s | -12.8°C | 0% | 557.2hPa | 0V | 00:00:00 | 00:00:00 | 00:00:00 | |
| SQ9EZE-13 | 2026-09-02 23:23:32 | 49.02526 | 20.38997 | 95° | 55km/h | 4950m | 4.8m/s | -12.8°C | 69.4% | 557.5hPa | 0V | 00:00:00 | 00:00:00 | 00:00:00 | |
| SP9KGR-15 | 2026-09-02 23:23:30 | 49.02524 | 20.38956 | 80° | 51km/h | 4940m | 4.7m/s | -12.7°C | 70.3% | 558.3hPa | 0V | 00:00:00 | 00:00:00 | 00:00:00 | |
| SQ9EZE-14 | 2026-09-02 23:23:18 | 49.02504 | 20.38786 | 100° | 38km/h | 4866m | 7.0m/s | -12.3°C | 0% | 0hPa | 0V | 00:00:00 | 00:00:00 | 00:00:00 | |
| SQ9EZE-13 | 2026-09-02 23:23:16 | 49.02506 | 20.38756 | 92° | 38km/h | 4851m | 5.8m/s | -12.2°C | 76.1% | 564.8hPa | 0V | 00:00:00 | 00:00:00 | 00:00:00 | |
| SP9KGR-15 | 2026-09-02 23:23:14 | 49.02506 | 20.38726 | 89° | 37km/h | 4839m | 8.7m/s | -12.1°C | 76.2% | 565.8hPa | 0V | 00:00:00 | 00:00:00 | 00:00:00 | |
| SQ9EZE-13 | 2026-09-02 23:23:00 | 49.02538 | 20.38558 | 94° | 31km/h | 4765m | 6.4m/s | -11.5°C | 74.2% | 571.1hPa | 0V | 00:00:00 | 00:00:00 | 00:00:00 | |
| SP9KGR-15 | 2026-09-02 23:22:59 | 49.02538 | 20.38546 | 85° | 33km/h | 4759m | 5.5m/s | -11.5°C | 73.7% | 571.6hPa | 0V | 00:00:00 | 00:00:00 | 00:00:00 | |
| GYPAP8-17 | 2026-09-02 23:22:58 | 49.02536 | 20.38533 | 79° | 37km/h | 4754m | 4.8m/s | 0°C | 0% | 572.0hPa | 0V | 00:00:00 | 00:00:00 | 00:00:00 | |
| SQ9EZE-13 | 2026-09-02 23:22:44 | 49.02556 | 20.38313 | 105° | 37km/h | 4677m | 7.0m/s | -10.8°C | 72.6% | 577.7hPa | 0V | 00:00:00 | 00:00:00 | 00:00:00 | |
| SP9KGR-15 | 2026-09-02 23:22:43 | 49.02559 | 20.38300 | 106° | 35km/h | 4671m | 6.9m/s | -10.8°C | 72.2% | 578.4hPa | 0V | 00:00:00 | 00:00:00 | 00:00:00 | |
| SQ9EZE-13 | 2026-09-02 23:22:29 | 49.02575 | 20.38100 | 97° | 42km/h | 4591m | 5.9m/s | -10.2°C | 69.1% | 584.5hPa | 0V | 00:00:00 | 00:00:00 | 00:00:00 | |
| SP9KGR-15 | 2026-09-02 23:22:27 | 49.02576 | 20.38065 | 91° | 47km/h | 4581m | 4.1m/s | -10.1°C | 68.9% | 585.1hPa | 0V | 00:00:00 | 00:00:00 | 00:00:00 | |
| GYPAP8-17 | 2026-09-02 23:22:14 | 49.02582 | 20.37834 | 94° | 38km/h | 4529m | 3.2m/s | 0°C | 0% | 589.1hPa | 0V | 00:00:00 | 00:00:00 | 00:00:00 | |
| SQ9EZE-13 | 2026-09-02 23:22:12 | 49.02583 | 20.37805 | 99° | 38km/h | 4522m | 4.2m/s | -9.7°C | 67.6% | 589.6hPa | 0V | 00:00:00 | 00:00:00 | 00:00:00 | |
| SP9KGR-15 | 2026-09-02 23:22:11 | 49.02585 | 20.37790 | 102° | 40km/h | 4518m | 3.1m/s | -9.7°C | 67.9% | 589.9hPa | 0V | 00:00:00 | 00:00:00 | 00:00:00 | |
| SQ9EZE-13 | 2026-09-02 23:21:56 | 49.02604 | 20.37575 | 122° | 31km/h | 4464m | 4.7m/s | -9.4°C | 0% | 594.0hPa | 0V | 00:00:00 | 00:00:00 | 00:00:00 | |
| SP9KGR-15 | 2026-09-02 23:21:55 | 49.02608 | 20.37565 | 119° | 31km/h | 4460m | 4.3m/s | -9.3°C | 0% | 0hPa | 0V | 00:00:00 | 00:00:00 | 00:00:00 | |
| SQ9EZE-13 | 2026-09-02 23:21:40 | 49.02621 | 20.37324 | 95° | 55km/h | 4389m | 3.2m/s | -8.8°C | 0% | 599.9hPa | 0V | 00:00:00 | 00:00:00 | 00:00:00 | |
| GYPAP8-17 | 2026-09-02 23:21:30 | 49.02637 | 20.37161 | 94° | 40km/h | 4337m | 4.3m/s | 0°C | 0% | 604.0hPa | 0V | 00:00:00 | 00:00:00 | 00:00:00 | |
| SQ9EZE-13 | 2026-09-02 23:21:24 | 49.02642 | 20.37070 | 94° | 42km/h | 4314m | 2.7m/s | -8.1°C | 0% | 605.8hPa | 0V | 00:00:00 | 00:00:00 | 00:00:00 | |
| SQ9EZE-14 | 2026-09-02 23:21:18 | 49.02640 | 20.36974 | 86° | 44km/h | 4293m | 3.0m/s | 0°C | 0% | 0hPa | 0V | 00:00:00 | 00:00:00 | 00:00:00 | |
| SQ9EZE-13 | 2026-09-02 23:21:09 | 49.02638 | 20.36868 | 98° | 24km/h | 4263m | 3.4m/s | 0°C | 0% | 609.7hPa | 0V | 00:00:00 | 00:00:00 | 00:00:00 | |
| SQ9EZE-14 | 2026-09-02 23:21:02 | 49.02643 | 20.36764 | 84° | 44km/h | 4225m | 5.7m/s | 0°C | 0% | 0hPa | 0V | 00:00:00 | 00:00:00 | 00:00:00 | |
| SQ9EZE-13 | 2026-09-02 23:20:53 | 49.02640 | 20.36648 | 100° | 33km/h | 4177m | 5.2m/s | 0°C | 0% | 0hPa | 0V | 00:00:00 | 00:00:00 | 00:00:00 | |
| GYPAP8-17 | 2026-09-02 23:20:46 | 49.02644 | 20.36559 | 98° | 35km/h | 4154m | 3.5m/s | 0°C | 0% | 618.4hPa | 0V | 00:00:00 | 00:00:00 | 00:00:00 | |
| SP9KGR-15 | 2026-09-02 23:20:38 | 49.02653 | 20.36466 | 105° | 27km/h | 4125m | 4.0m/s | 0°C | 0% | 0hPa | 0V | 00:00:00 | 00:00:00 | 00:00:00 | |
| SQ9EZE-13 | 2026-09-02 23:20:37 | 49.02655 | 20.36455 | 102° | 31km/h | 4121m | 3.6m/s | 0°C | 0% | 0hPa | 0V | 00:00:00 | 00:00:00 | 00:00:00 | |
| SP9KGR-15 | 2026-09-02 23:20:23 | 49.02684 | 20.36299 | 128° | 22km/h | 4075m | 3.0m/s | 0°C | 0% | 0hPa | 0V | 00:00:00 | 00:00:00 | 00:00:00 | |
| SQ9EZE-13 | 2026-09-02 23:20:21 | 49.02688 | 20.36286 | 102° | 18km/h | 4068m | 4.7m/s | 0°C | 0% | 0hPa | 0V | 00:00:00 | 00:00:00 | 00:00:00 | |
| SP9KGR-15 | 2026-09-02 23:20:08 | 49.02710 | 20.36123 | 114° | 29km/h | 3986m | 3.9m/s | 0°C | 0% | 0hPa | 0V | 00:00:00 | 00:00:00 | 00:00:00 | |
| SQ9EZE-13 | 2026-09-02 23:20:04 | 49.02714 | 20.36082 | 82° | 27km/h | 3970m | 3.9m/s | 0°C | 0% | 0hPa | 0V | 00:00:00 | 00:00:00 | 00:00:00 | |
| GYPAP8-17 | 2026-09-02 23:20:01 | 49.02710 | 20.36055 | 82° | 18km/h | 3960m | 2.7m/s | 0°C | 0% | 633.7hPa | 0V | 00:00:00 | 00:00:00 | 00:00:00 | |
| SP9KGR-15 | 2026-09-02 23:19:52 | 49.02726 | 20.35986 | 89° | 37km/h | 3919m | 7.0m/s | 0°C | 0% | 0hPa | 0V | 00:00:00 | 00:00:00 | 00:00:00 |